GFSWCAN_prec_precacc12_102.txt.gz
Total_Precipitation_Accumulation
0.07 0.06 0.06 0.07 0.08 0.08 0.08 0.09 0.10 0.10 0.10 0.10 0.10 0.11 0.14 0.14 0.12 0.27 0.31 0.17 0.20 0.24 0.09 0.01 0.01 0.08 0.13 0.17 0.20 0.25 0.33 0.20 0.22 0.26 0.15 0.07 0.06 0.03 0.01 0.03 0.27 0.16 0.29 0.27 0.16 0.20 0.07 0.03 0.11 0.18 0.21 0.08 0.07 0.03
0.06 0.07 0.07 0.06 0.07 0.07 0.08 0.09 0.09 0.09 0.10 0.09 0.11 0.12 0.12 0.16 0.19 0.31 0.47 0.27 0.23 0.32 0.23 0.03 0.00 0.00 0.01 0.04 0.09 0.11 0.24 0.26 0.35 0.26 0.25 0.19 0.12 0.07 0.03 0.04 0.05 0.11 0.04 0.12 0.24 0.18 0.05 0.03 0.08 0.11 0.08 0.05 0.09 0.08
0.03 0.03 0.03 0.04 0.05 0.05 0.06 0.07 0.08 0.08 0.07 0.06 0.07 0.09 0.13 0.15 0.20 0.39 0.49 0.30 0.39 0.67 0.50 0.11 0.01 0.00 0.00 0.00 0.01 0.06 0.02 0.02 0.10 0.21 0.39 0.29 0.17 0.11 0.10 0.04 0.06 0.03 0.03 0.03 0.03 0.01 0.03 0.06 0.06 0.05 0.07 0.01 0.02 0.02
0.03 0.05 0.08 0.09 0.09 0.08 0.08 0.08 0.08 0.08 0.08 0.06 0.05 0.06 0.07 0.15 0.21 0.34 0.60 0.52 0.37 0.55 0.33 0.12 0.00 0.00 0.00 0.00 0.01 0.01 0.01 0.02 0.06 0.18 0.38 0.28 0.16 0.09 0.06 0.07 0.04 0.03 0.02 0.03 0.03 0.02 0.00 0.00 0.00 0.01 0.01 0.00 0.00 0.03
0.12 0.14 0.13 0.13 0.13 0.13 0.13 0.13 0.14 0.12 0.09 0.09 0.07 0.06 0.06 0.07 0.20 0.39 0.57 0.52 0.27 0.17 0.24 0.15 0.04 0.00 0.00 0.00 0.00 0.02 0.05 0.07 0.14 0.30 0.36 0.14 0.05 0.06 0.03 0.02 0.01 0.00 0.00 0.01 0.03 0.04 0.00 0.00 0.00 0.00 0.00 0.00 0.01 0.04
0.14 0.14 0.13 0.11 0.12 0.11 0.09 0.07 0.09 0.12 0.10 0.07 0.09 0.09 0.09 0.08 0.22 0.77 1.25 0.83 0.26 0.15 0.47 0.14 0.05 0.01 0.00 0.00 0.00 0.01 0.04 0.10 0.25 0.44 0.23 0.10 0.04 0.11 0.08 0.02 0.00 0.00 0.00 0.00 0.00 0.00 0.00 0.00 0.00 0.00 0.00 0.00 0.01 0.02
0.11 0.08 0.07 0.06 0.05 0.04 0.03 0.04 0.04 0.09 0.11 0.07 0.06 0.09 0.14 0.20 0.43 0.82 0.48 0.26 0.18 0.28 0.71 0.30 0.03 0.01 0.00 0.02 0.02 0.02 0.04 0.13 0.26 0.54 0.32 0.09 0.04 0.14 0.15 0.03 0.00 0.00 0.00 0.00 0.00 0.00 0.00 0.00 0.00 0.00 0.00 0.00 0.01 0.01
0.07 0.05 0.04 0.03 0.02 0.02 0.01 0.01 0.04 0.04 0.11 0.09 0.08 0.14 0.25 0.51 0.67 0.44 0.07 0.03 0.04 0.33 0.43 0.22 0.06 0.06 0.01 0.02 0.03 0.02 0.04 0.11 0.20 0.19 0.12 0.10 0.06 0.13 0.14 0.01 0.00 0.00 0.00 0.00 0.00 0.00 0.00 0.00 0.00 0.00 0.00 0.00 0.01 0.01
0.05 0.03 0.01 0.01 0.01 0.01 0.01 0.01 0.05 0.09 0.13 0.16 0.24 0.64 1.42 1.69 0.94 0.38 0.12 0.11 0.06 0.17 0.22 0.08 0.03 0.08 0.10 0.09 0.11 0.11 0.09 0.14 0.13 0.12 0.04 0.05 0.06 0.06 0.02 0.00 0.00 0.00 0.00 0.00 0.00 0.00 0.00 0.00 0.00 0.00 0.00 0.01 0.02 0.01
0.10 0.10 0.04 0.02 0.05 0.05 0.07 0.07 0.13 0.21 0.28 0.61 1.63 2.46 1.97 0.86 0.11 0.44 0.96 0.67 0.46 0.23 0.13 0.03 0.02 0.10 0.16 0.09 0.14 0.38 0.18 0.10 0.14 0.04 0.05 0.12 0.04 0.00 0.00 0.00 0.00 0.00 0.00 0.00 0.00 0.00 0.00 0.00 0.00 0.00 0.00 0.01 0.01 0.02
0.04 0.06 0.08 0.10 0.12 0.13 0.17 0.30 0.41 0.38 0.59 1.30 1.56 0.75 0.43 0.17 0.24 0.47 0.58 0.33 0.23 0.13 0.04 0.01 0.01 0.06 0.06 0.10 0.10 0.19 0.56 0.19 0.09 0.04 0.05 0.04 0.01 0.01 0.00 0.00 0.00 0.00 0.00 0.00 0.00 0.00 0.00 0.00 0.00 0.00 0.00 0.00 0.00 0.00
0.10 0.07 0.08 0.08 0.10 0.17 0.28 0.37 0.28 0.16 0.37 0.47 0.35 0.31 0.29 0.39 0.39 0.25 0.16 0.06 0.03 0.01 0.01 0.00 0.02 0.07 0.06 0.14 0.31 0.18 0.21 0.34 0.16 0.11 0.12 0.04 0.01 0.00 0.00 0.00 0.00 0.00 0.00 0.00 0.00 0.00 0.00 0.00 0.00 0.00 0.00 0.00 0.00 0.01
0.18 0.15 0.16 0.22 0.26 0.32 0.34 0.32 0.09 0.03 0.03 0.02 0.02 0.17 0.17 0.15 0.07 0.05 0.05 0.03 0.01 0.02 0.01 0.02 0.06 0.06 0.11 0.09 0.31 0.28 0.14 0.12 0.08 0.12 0.11 0.02 0.01 0.00 0.00 0.00 0.00 0.00 0.00 0.00 0.00 0.00 0.00 0.00 0.00 0.00 0.00 0.01 0.01 0.02
0.16 0.11 0.09 0.18 0.30 0.34 0.32 0.15 0.08 0.17 0.18 0.10 0.08 0.09 0.05 0.02 0.05 0.05 0.02 0.01 0.02 0.02 0.01 0.02 0.05 0.15 0.17 0.06 0.06 0.16 0.15 0.12 0.10 0.06 0.04 0.03 0.01 0.01 0.01 0.01 0.00 0.00 0.01 0.01 0.01 0.00 0.01 0.01 0.02 0.02 0.02 0.03 0.03 0.05
0.04 0.07 0.10 0.15 0.19 0.17 0.10 0.08 0.11 0.04 0.01 0.00 0.00 0.01 0.02 0.03 0.03 0.03 0.02 0.03 0.03 0.03 0.03 0.06 0.07 0.18 0.16 0.12 0.04 0.04 0.08 0.09 0.08 0.05 0.03 0.03 0.01 0.01 0.01 0.02 0.01 0.02 0.02 0.03 0.04 0.03 0.04 0.04 0.04 0.07 0.08 0.08 0.09 0.17
0.03 0.03 0.07 0.12 0.13 0.10 0.06 0.05 0.00 0.00 0.00 0.00 0.02 0.03 0.04 0.05 0.05 0.05 0.05 0.05 0.05 0.05 0.06 0.08 0.12 0.10 0.16 0.11 0.11 0.05 0.06 0.06 0.06 0.04 0.03 0.01 0.02 0.02 0.02 0.03 0.03 0.06 0.08 0.09 0.13 0.14 0.11 0.10 0.11 0.16 0.24 0.29 0.31 0.29
0.00 0.00 0.05 0.05 0.04 0.01 0.00 0.00 0.00 0.00 0.00 0.01 0.02 0.04 0.05 0.05 0.05 0.06 0.06 0.06 0.06 0.12 0.12 0.09 0.18 0.08 0.07 0.07 0.07 0.03 0.05 0.05 0.03 0.02 0.02 0.03 0.04 0.03 0.03 0.04 0.08 0.12 0.11 0.14 0.17 0.22 0.28 0.31 0.33 0.28 0.29 0.38 0.38 0.37
0.00 0.00 0.00 0.00 0.00 0.00 0.00 0.00 0.00 0.00 0.01 0.03 0.04 0.07 0.03 0.05 0.05 0.04 0.06 0.08 0.11 0.10 0.05 0.05 0.04 0.03 0.05 0.06 0.07 0.08 0.06 0.04 0.04 0.03 0.04 0.04 0.06 0.06 0.07 0.08 0.13 0.14 0.12 0.20 0.28 0.25 0.26 0.30 0.29 0.32 0.29 0.30 0.28 0.31
0.00 0.00 0.00 0.00 0.01 0.00 0.00 0.00 0.00 0.00 0.02 0.02 0.04 0.04 0.03 0.04 0.05 0.07 0.07 0.08 0.10 0.07 0.05 0.07 0.08 0.07 0.09 0.09 0.09 0.08 0.06 0.04 0.04 0.05 0.07 0.09 0.11 0.13 0.16 0.16 0.16 0.22 0.22 0.26 0.33 0.32 0.26 0.27 0.31 0.31 0.27 0.27 0.25 0.31
0.00 0.02 0.00 0.00 0.00 0.00 0.00 0.00 0.00 0.00 0.01 0.01 0.02 0.02 0.03 0.07 0.06 0.06 0.05 0.04 0.04 0.05 0.07 0.09 0.13 0.13 0.14 0.14 0.14 0.13 0.10 0.07 0.07 0.07 0.10 0.11 0.12 0.15 0.19 0.19 0.20 0.21 0.20 0.20 0.25 0.26 0.19 0.20 0.26 0.27 0.27 0.25 0.17 0.18
0.00 0.00 0.00 0.00 0.00 0.00 0.00 0.00 0.00 0.00 0.01 0.01 0.03 0.02 0.05 0.04 0.05 0.06 0.06 0.03 0.03 0.09 0.13 0.15 0.18 0.19 0.21 0.19 0.16 0.12 0.08 0.05 0.06 0.05 0.10 0.11 0.11 0.11 0.15 0.17 0.18 0.18 0.16 0.16 0.17 0.25 0.21 0.16 0.20 0.19 0.17 0.16 0.12 0.07
0.00 0.00 0.00 0.00 0.00 0.00 0.01 0.00 0.00 0.01 0.01 0.03 0.03 0.02 0.05 0.06 0.08 0.12 0.07 0.08 0.16 0.21 0.21 0.21 0.19 0.18 0.16 0.12 0.10 0.08 0.09 0.07 0.06 0.07 0.09 0.10 0.13 0.14 0.17 0.19 0.16 0.19 0.20 0.21 0.16 0.17 0.18 0.14 0.10 0.10 0.08 0.07 0.04 0.03
0.00 0.00 0.00 0.00 0.00 0.00 0.07 0.08 0.04 0.06 0.05 0.06 0.03 0.02 0.04 0.06 0.07 0.04 0.10 0.17 0.18 0.18 0.17 0.15 0.14 0.13 0.11 0.11 0.08 0.07 0.09 0.09 0.08 0.10 0.12 0.13 0.14 0.16 0.16 0.20 0.22 0.16 0.14 0.19 0.16 0.11 0.09 0.08 0.06 0.04 0.02 0.01 0.01 0.01
0.00 0.00 0.00 0.00 0.00 0.01 0.01 0.00 0.01 0.03 0.03 0.03 0.02 0.04 0.05 0.06 0.02 0.02 0.06 0.10 0.12 0.09 0.07 0.09 0.08 0.10 0.07 0.05 0.06 0.07 0.11 0.14 0.10 0.10 0.15 0.14 0.11 0.17 0.16 0.17 0.19 0.19 0.12 0.08 0.07 0.05 0.03 0.02 0.01 0.00 0.00 0.00 0.00 0.00
0.00 0.00 0.00 0.00 0.00 0.00 0.00 0.00 0.01 0.01 0.02 0.01 0.01 0.03 0.03 0.02 0.01 0.02 0.04 0.06 0.06 0.07 0.08 0.08 0.08 0.06 0.06 0.07 0.08 0.08 0.09 0.12 0.13 0.07 0.16 0.19 0.15 0.13 0.13 0.11 0.08 0.07 0.05 0.03 0.02 0.01 0.01 0.00 0.00 0.00 0.00 0.00 0.00 0.00
0.00 0.00 0.00 0.00 0.00 0.00 0.00 0.00 0.00 0.00 0.00 0.00 0.01 0.00 0.00 0.00 0.00 0.02 0.03 0.04 0.06 0.06 0.07 0.08 0.08 0.07 0.07 0.07 0.07 0.08 0.08 0.10 0.11 0.09 0.12 0.14 0.17 0.13 0.08 0.03 0.01 0.01 0.00 0.00 0.00 0.00 0.00 0.00 0.00 0.00 0.00 0.00 0.00 0.00
0.00 0.00 0.00 0.00 0.00 0.00 0.00 0.00 0.00 0.00 0.01 0.01 0.01 0.00 0.00 0.00 0.01 0.03 0.03 0.03 0.04 0.05 0.05 0.05 0.05 0.06 0.08 0.09 0.10 0.11 0.10 0.09 0.09 0.09 0.07 0.04 0.02 0.02 0.02 0.02 0.02 0.01 0.00 0.00 0.00 0.00 0.00 0.00 0.00 0.00 0.00 0.00 0.00 0.00
0.00 0.00 0.00 0.00 0.00 0.00 0.00 0.00 0.00 0.01 0.01 0.01 0.00 0.00 0.01 0.01 0.04 0.04 0.05 0.05 0.05 0.04 0.04 0.04 0.04 0.04 0.05 0.07 0.09 0.10 0.12 0.12 0.11 0.07 0.04 0.03 0.02 0.01 0.01 0.00 0.00 0.00 0.00 0.00 0.00 0.00 0.00 0.00 0.00 0.00 0.00 0.00 0.00 0.00
0.00 0.00 0.00 0.00 0.00 0.00 0.01 0.01 0.01 0.01 0.01 0.01 0.00 0.01 0.02 0.03 0.06 0.06 0.05 0.05 0.04 0.03 0.03 0.04 0.05 0.05 0.05 0.05 0.05 0.05 0.05 0.07 0.09 0.07 0.05 0.05 0.03 0.03 0.02 0.01 0.00 0.00 0.00 0.00 0.00 0.00 0.00 0.00 0.00 0.00 0.00 0.00 0.00 0.00
0.00 0.00 0.00 0.00 0.01 0.01 0.04 0.02 0.03 0.02 0.01 0.01 0.01 0.01 0.02 0.04 0.07 0.05 0.04 0.04 0.03 0.04 0.04 0.04 0.04 0.04 0.05 0.05 0.05 0.04 0.03 0.02 0.03 0.04 0.03 0.03 0.03 0.02 0.01 0.00 0.01 0.01 0.00 0.00 0.00 0.00 0.00 0.00 0.00 0.00 0.00 0.00 0.00 0.00
0.00 0.00 0.00 0.00 0.02 0.02 0.02 0.01 0.01 0.01 0.01 0.01 0.00 0.00 0.01 0.04 0.03 0.02 0.02 0.04 0.03 0.03 0.03 0.02 0.02 0.02 0.02 0.01 0.02 0.02 0.02 0.01 0.01 0.01 0.01 0.01 0.01 0.00 0.00 0.00 0.01 0.00 0.00 0.00 0.00 0.00 0.00 0.00 0.00 0.00 0.00 0.00 0.00 0.00
0.00 0.00 0.00 0.00 0.02 0.01 0.02 0.03 0.01 0.01 0.01 0.01 0.01 0.01 0.01 0.01 0.01 0.02 0.02 0.03 0.02 0.01 0.01 0.01 0.00 0.00 0.00 0.00 0.01 0.01 0.01 0.01 0.01 0.00 0.00 0.00 0.00 0.00 0.00 0.00 0.00 0.00 0.00 0.00 0.00 0.00 0.00 0.00 0.00 0.00 0.00 0.00 0.00 0.00
0.00 0.00 0.00 0.00 0.01 0.01 0.01 0.01 0.01 0.01 0.01 0.01 0.01 0.01 0.01 0.01 0.01 0.02 0.02 0.02 0.01 0.00 0.00 0.00 0.00 0.00 0.00 0.00 0.00 0.00 0.00 0.00 0.00 0.00 0.00 0.00 0.00 0.00 0.00 0.00 0.00 0.00 0.00 0.00 0.00 0.00 0.00 0.00 0.00 0.00 0.00 0.00 0.00 0.00

GFSWCAN_prec_precacc12_105.txt.gz
Total_Precipitation_Accumulation
0.04 0.04 0.04 0.03 0.04 0.03 0.03 0.04 0.03 0.03 0.03 0.03 0.05 0.06 0.07 0.11 0.09 0.16 0.09 0.12 0.17 0.09 0.03 0.00 0.01 0.08 0.13 0.18 0.23 0.29 0.34 0.31 0.23 0.18 0.12 0.08 0.07 0.06 0.03 0.05 0.39 0.21 0.15 0.11 0.07 0.14 0.05 0.03 0.11 0.13 0.10 0.03 0.05 0.02
0.04 0.04 0.04 0.04 0.04 0.05 0.06 0.07 0.07 0.07 0.06 0.05 0.05 0.06 0.06 0.10 0.14 0.20 0.23 0.13 0.19 0.19 0.09 0.02 0.00 0.00 0.01 0.04 0.10 0.13 0.29 0.39 0.48 0.52 0.40 0.27 0.15 0.12 0.08 0.09 0.30 0.29 0.07 0.12 0.09 0.07 0.03 0.06 0.14 0.15 0.08 0.03 0.07 0.06
0.03 0.02 0.03 0.03 0.03 0.04 0.05 0.06 0.07 0.07 0.07 0.06 0.07 0.08 0.10 0.10 0.13 0.27 0.26 0.17 0.29 0.39 0.29 0.06 0.01 0.00 0.00 0.00 0.02 0.06 0.03 0.02 0.11 0.34 0.45 0.32 0.23 0.17 0.19 0.14 0.28 0.28 0.14 0.24 0.17 0.06 0.08 0.10 0.08 0.06 0.07 0.01 0.02 0.01
0.02 0.03 0.04 0.05 0.05 0.04 0.05 0.06 0.06 0.07 0.08 0.07 0.06 0.07 0.07 0.13 0.17 0.26 0.40 0.31 0.26 0.40 0.23 0.06 0.00 0.00 0.00 0.00 0.01 0.01 0.01 0.02 0.05 0.14 0.36 0.28 0.13 0.06 0.06 0.11 0.07 0.16 0.21 0.20 0.14 0.12 0.05 0.04 0.01 0.01 0.01 0.00 0.00 0.03
0.04 0.07 0.08 0.09 0.09 0.08 0.07 0.08 0.11 0.11 0.09 0.08 0.07 0.06 0.06 0.08 0.18 0.36 0.45 0.39 0.17 0.15 0.18 0.14 0.05 0.00 0.00 0.00 0.00 0.02 0.05 0.06 0.12 0.26 0.31 0.14 0.06 0.07 0.04 0.03 0.01 0.00 0.01 0.03 0.08 0.13 0.07 0.01 0.00 0.00 0.00 0.00 0.01 0.04
0.09 0.10 0.10 0.09 0.09 0.09 0.08 0.07 0.08 0.12 0.14 0.11 0.09 0.07 0.07 0.07 0.21 0.73 1.09 0.72 0.23 0.13 0.44 0.13 0.05 0.01 0.00 0.00 0.00 0.01 0.04 0.09 0.21 0.36 0.19 0.10 0.04 0.14 0.11 0.03 0.00 0.00 0.00 0.00 0.00 0.01 0.00 0.00 0.00 0.00 0.00 0.00 0.01 0.02
0.08 0.06 0.05 0.04 0.05 0.04 0.03 0.05 0.06 0.12 0.17 0.15 0.09 0.07 0.11 0.13 0.33 0.66 0.41 0.22 0.17 0.27 0.79 0.31 0.03 0.01 0.00 0.03 0.03 0.03 0.05 0.13 0.24 0.40 0.17 0.06 0.04 0.16 0.18 0.04 0.00 0.00 0.00 0.00 0.00 0.00 0.00 0.00 0.00 0.00 0.00 0.00 0.01 0.01
0.07 0.07 0.05 0.06 0.04 0.02 0.01 0.01 0.03 0.03 0.13 0.19 0.12 0.10 0.23 0.36 0.53 0.43 0.07 0.05 0.05 0.32 0.45 0.27 0.06 0.06 0.01 0.03 0.05 0.02 0.05 0.12 0.21 0.17 0.09 0.07 0.06 0.14 0.14 0.01 0.00 0.00 0.00 0.00 0.00 0.00 0.00 0.00 0.00 0.01 0.00 0.00 0.00 0.01
0.17 0.13 0.06 0.02 0.01 0.01 0.01 0.00 0.03 0.07 0.13 0.27 0.28 0.49 1.15 1.43 0.83 0.33 0.12 0.15 0.12 0.23 0.25 0.09 0.04 0.08 0.03 0.08 0.12 0.06 0.07 0.10 0.10 0.09 0.03 0.04 0.05 0.06 0.01 0.00 0.00 0.00 0.00 0.00 0.00 0.00 0.00 0.00 0.00 0.00 0.00 0.00 0.01 0.01
0.17 0.13 0.03 0.01 0.03 0.01 0.01 0.01 0.03 0.15 0.32 0.71 1.40 2.06 1.63 0.70 0.08 0.43 1.03 0.76 0.63 0.36 0.19 0.04 0.02 0.10 0.06 0.09 0.22 0.24 0.14 0.07 0.07 0.02 0.03 0.08 0.03 0.00 0.00 0.00 0.00 0.00 0.00 0.00 0.00 0.00 0.00 0.00 0.00 0.00 0.00 0.00 0.01 0.01
0.04 0.03 0.01 0.05 0.08 0.07 0.07 0.16 0.21 0.29 0.71 1.25 1.33 0.60 0.28 0.12 0.23 0.55 0.61 0.40 0.31 0.18 0.04 0.01 0.01 0.07 0.06 0.07 0.09 0.15 0.29 0.12 0.08 0.03 0.06 0.04 0.03 0.02 0.00 0.00 0.00 0.00 0.00 0.00 0.00 0.00 0.00 0.00 0.00 0.00 0.00 0.00 0.00 0.00
0.08 0.04 0.05 0.05 0.08 0.15 0.23 0.30 0.24 0.19 0.41 0.43 0.28 0.27 0.23 0.37 0.46 0.31 0.20 0.07 0.04 0.01 0.01 0.00 0.02 0.09 0.08 0.11 0.13 0.09 0.09 0.21 0.14 0.14 0.14 0.05 0.03 0.00 0.00 0.00 0.00 0.00 0.00 0.00 0.00 0.00 0.00 0.00 0.00 0.00 0.00 0.00 0.00 0.00
0.14 0.08 0.09 0.18 0.25 0.31 0.37 0.34 0.10 0.06 0.06 0.03 0.06 0.19 0.18 0.18 0.11 0.08 0.08 0.03 0.01 0.02 0.01 0.02 0.06 0.03 0.03 0.03 0.06 0.12 0.09 0.07 0.09 0.13 0.14 0.06 0.02 0.00 0.00 0.00 0.00 0.00 0.00 0.00 0.00 0.00 0.00 0.00 0.00 0.00 0.00 0.01 0.01 0.02
0.16 0.11 0.10 0.20 0.31 0.38 0.44 0.24 0.14 0.43 0.32 0.20 0.17 0.14 0.07 0.02 0.05 0.04 0.02 0.01 0.01 0.01 0.01 0.02 0.04 0.10 0.08 0.01 0.04 0.14 0.15 0.12 0.10 0.06 0.05 0.04 0.01 0.01 0.01 0.01 0.00 0.00 0.00 0.00 0.00 0.00 0.01 0.01 0.02 0.03 0.03 0.04 0.04 0.04
0.06 0.10 0.21 0.33 0.41 0.42 0.31 0.15 0.30 0.19 0.06 0.03 0.00 0.01 0.02 0.02 0.02 0.02 0.01 0.01 0.01 0.01 0.03 0.06 0.07 0.18 0.15 0.11 0.04 0.04 0.08 0.09 0.10 0.06 0.05 0.03 0.01 0.01 0.00 0.01 0.01 0.01 0.01 0.02 0.02 0.02 0.03 0.03 0.03 0.06 0.08 0.08 0.07 0.09
0.03 0.08 0.26 0.31 0.27 0.18 0.11 0.12 0.04 0.00 0.00 0.00 0.02 0.03 0.04 0.04 0.05 0.03 0.03 0.03 0.02 0.03 0.04 0.07 0.12 0.10 0.16 0.11 0.12 0.06 0.07 0.08 0.07 0.05 0.03 0.01 0.01 0.01 0.01 0.01 0.01 0.02 0.02 0.03 0.04 0.04 0.04 0.05 0.07 0.10 0.12 0.14 0.19 0.19
0.02 0.10 0.16 0.12 0.07 0.03 0.04 0.01 0.00 0.00 0.00 0.01 0.02 0.04 0.05 0.05 0.05 0.05 0.04 0.04 0.04 0.09 0.11 0.10 0.19 0.09 0.08 0.09 0.09 0.05 0.07 0.06 0.03 0.02 0.02 0.02 0.03 0.02 0.02 0.01 0.02 0.03 0.03 0.03 0.04 0.08 0.13 0.11 0.11 0.12 0.17 0.25 0.26 0.28
0.04 0.03 0.04 0.03 0.00 0.00 0.00 0.00 0.00 0.00 0.01 0.03 0.04 0.06 0.02 0.05 0.05 0.05 0.05 0.06 0.08 0.10 0.06 0.06 0.05 0.05 0.07 0.10 0.08 0.10 0.06 0.04 0.03 0.01 0.02 0.03 0.04 0.03 0.04 0.03 0.04 0.03 0.04 0.06 0.08 0.10 0.11 0.14 0.14 0.20 0.24 0.26 0.26 0.31
0.00 0.01 0.01 0.01 0.01 0.00 0.00 0.00 0.00 0.01 0.03 0.03 0.05 0.05 0.03 0.04 0.05 0.06 0.05 0.07 0.08 0.05 0.03 0.04 0.05 0.05 0.07 0.07 0.07 0.06 0.05 0.04 0.04 0.04 0.04 0.04 0.05 0.05 0.06 0.06 0.06 0.09 0.11 0.14 0.18 0.19 0.15 0.17 0.24 0.26 0.25 0.26 0.26 0.31
0.03 0.06 0.01 0.03 0.01 0.00 0.00 0.00 0.00 0.00 0.02 0.02 0.03 0.03 0.03 0.06 0.05 0.04 0.04 0.04 0.04 0.05 0.08 0.08 0.10 0.08 0.08 0.08 0.09 0.11 0.10 0.06 0.07 0.09 0.13 0.06 0.04 0.05 0.09 0.10 0.10 0.11 0.12 0.12 0.17 0.19 0.15 0.17 0.22 0.25 0.25 0.25 0.18 0.21
0.00 0.00 0.00 0.00 0.00 0.00 0.00 0.01 0.00 0.00 0.01 0.02 0.03 0.01 0.04 0.03 0.03 0.03 0.03 0.02 0.02 0.07 0.09 0.10 0.11 0.11 0.13 0.13 0.12 0.10 0.07 0.05 0.06 0.04 0.08 0.10 0.06 0.05 0.08 0.12 0.14 0.13 0.13 0.13 0.14 0.20 0.18 0.15 0.19 0.19 0.18 0.18 0.14 0.10
0.00 0.00 0.00 0.00 0.00 0.00 0.01 0.00 0.01 0.01 0.01 0.03 0.03 0.02 0.05 0.05 0.06 0.09 0.05 0.05 0.12 0.15 0.15 0.16 0.16 0.16 0.15 0.10 0.07 0.06 0.05 0.06 0.04 0.05 0.06 0.07 0.12 0.11 0.12 0.13 0.11 0.14 0.16 0.16 0.14 0.15 0.17 0.14 0.12 0.12 0.10 0.09 0.07 0.05
0.00 0.00 0.00 0.00 0.00 0.00 0.05 0.08 0.05 0.07 0.04 0.05 0.02 0.02 0.04 0.05 0.07 0.05 0.08 0.14 0.16 0.16 0.15 0.14 0.13 0.12 0.10 0.08 0.04 0.03 0.04 0.04 0.05 0.06 0.07 0.08 0.09 0.12 0.13 0.16 0.17 0.14 0.13 0.18 0.16 0.13 0.11 0.11 0.08 0.06 0.05 0.04 0.03 0.02
0.00 0.00 0.00 0.00 0.00 0.01 0.01 0.00 0.01 0.02 0.04 0.03 0.02 0.04 0.06 0.06 0.04 0.03 0.08 0.12 0.13 0.08 0.06 0.08 0.05 0.12 0.07 0.03 0.03 0.05 0.08 0.09 0.06 0.07 0.11 0.09 0.08 0.13 0.12 0.14 0.17 0.17 0.13 0.11 0.11 0.09 0.06 0.04 0.03 0.02 0.01 0.01 0.01 0.00
0.00 0.00 0.00 0.00 0.00 0.00 0.00 0.00 0.01 0.01 0.03 0.01 0.01 0.03 0.03 0.04 0.02 0.03 0.04 0.08 0.07 0.06 0.06 0.06 0.07 0.04 0.05 0.06 0.06 0.06 0.07 0.09 0.09 0.06 0.14 0.15 0.11 0.10 0.12 0.11 0.11 0.11 0.09 0.06 0.06 0.04 0.03 0.01 0.00 0.00 0.00 0.00 0.00 0.00
0.00 0.00 0.00 0.01 0.01 0.00 0.00 0.01 0.01 0.01 0.00 0.01 0.01 0.01 0.00 0.00 0.00 0.02 0.03 0.04 0.05 0.04 0.05 0.06 0.07 0.06 0.05 0.06 0.06 0.07 0.07 0.08 0.07 0.06 0.10 0.12 0.16 0.13 0.09 0.06 0.03 0.03 0.02 0.01 0.01 0.00 0.00 0.00 0.00 0.00 0.00 0.00 0.00 0.00
0.00 0.00 0.00 0.00 0.00 0.00 0.00 0.00 0.00 0.00 0.01 0.01 0.01 0.00 0.00 0.00 0.02 0.04 0.03 0.03 0.04 0.04 0.04 0.04 0.04 0.04 0.06 0.07 0.08 0.09 0.07 0.06 0.07 0.08 0.08 0.06 0.04 0.04 0.04 0.04 0.05 0.04 0.01 0.00 0.00 0.00 0.00 0.00 0.00 0.00 0.00 0.00 0.00 0.00
0.00 0.00 0.00 0.00 0.00 0.00 0.00 0.00 0.00 0.01 0.01 0.00 0.00 0.00 0.01 0.01 0.05 0.04 0.05 0.04 0.06 0.06 0.04 0.03 0.03 0.03 0.04 0.05 0.07 0.08 0.10 0.10 0.08 0.07 0.04 0.04 0.03 0.02 0.02 0.02 0.01 0.01 0.01 0.00 0.00 0.00 0.00 0.00 0.00 0.00 0.00 0.00 0.00 0.00
0.00 0.00 0.00 0.00 0.00 0.00 0.01 0.01 0.01 0.01 0.01 0.02 0.01 0.01 0.02 0.04 0.07 0.06 0.05 0.04 0.03 0.03 0.03 0.03 0.07 0.06 0.04 0.03 0.04 0.05 0.05 0.08 0.10 0.08 0.06 0.06 0.04 0.05 0.04 0.03 0.01 0.00 0.00 0.00 0.00 0.00 0.00 0.00 0.00 0.00 0.00 0.00 0.00 0.00
0.00 0.00 0.00 0.00 0.01 0.02 0.05 0.03 0.03 0.02 0.01 0.00 0.00 0.01 0.02 0.04 0.06 0.04 0.03 0.03 0.04 0.03 0.03 0.03 0.04 0.03 0.04 0.05 0.04 0.04 0.03 0.03 0.04 0.05 0.04 0.05 0.05 0.04 0.02 0.01 0.02 0.01 0.00 0.00 0.00 0.00 0.00 0.00 0.00 0.00 0.00 0.00 0.00 0.00
0.00 0.00 0.00 0.00 0.02 0.03 0.02 0.02 0.02 0.01 0.01 0.01 0.00 0.00 0.01 0.03 0.03 0.02 0.03 0.04 0.03 0.03 0.02 0.02 0.01 0.02 0.01 0.01 0.03 0.03 0.03 0.02 0.01 0.01 0.02 0.02 0.01 0.01 0.01 0.01 0.01 0.01 0.00 0.00 0.00 0.00 0.00 0.00 0.00 0.00 0.00 0.00 0.00 0.00
0.00 0.00 0.00 0.01 0.02 0.01 0.03 0.04 0.01 0.02 0.02 0.01 0.01 0.01 0.02 0.02 0.02 0.02 0.01 0.04 0.02 0.01 0.01 0.01 0.00 0.00 0.01 0.01 0.01 0.01 0.01 0.01 0.01 0.00 0.00 0.01 0.01 0.01 0.00 0.00 0.00 0.00 0.00 0.00 0.00 0.00 0.00 0.00 0.00 0.00 0.00 0.00 0.00 0.00
0.00 0.00 0.00 0.00 0.00 0.01 0.01 0.01 0.01 0.01 0.01 0.01 0.01 0.01 0.01 0.01 0.01 0.02 0.02 0.01 0.01 0.00 0.00 0.00 0.00 0.00 0.00 0.00 0.00 0.00 0.00 0.00 0.00 0.00 0.00 0.00 0.00 0.00 0.01 0.00 0.00 0.00 0.00 0.00 0.00 0.00 0.00 0.00 0.00 0.00 0.00 0.00 0.00 0.00

GFSWCAN_prec_precacc12_108.txt.gz
Total_Precipitation_Accumulation
0.03 0.03 0.02 0.02 0.02 0.02 0.02 0.02 0.02 0.02 0.02 0.02 0.04 0.06 0.07 0.11 0.12 0.13 0.05 0.09 0.18 0.10 0.02 0.00 0.01 0.05 0.09 0.13 0.17 0.25 0.29 0.33 0.25 0.12 0.09 0.08 0.07 0.07 0.04 0.06 0.42 0.37 0.24 0.10 0.07 0.12 0.04 0.02 0.07 0.12 0.10 0.01 0.01 0.00
0.03 0.03 0.03 0.03 0.03 0.03 0.04 0.05 0.05 0.05 0.04 0.02 0.01 0.02 0.02 0.05 0.09 0.18 0.07 0.06 0.17 0.17 0.04 0.00 0.00 0.00 0.01 0.04 0.08 0.12 0.27 0.42 0.63 0.71 0.60 0.38 0.19 0.16 0.11 0.16 0.53 0.61 0.12 0.12 0.04 0.03 0.02 0.06 0.16 0.22 0.08 0.01 0.00 0.00
0.02 0.02 0.02 0.02 0.03 0.03 0.03 0.04 0.05 0.06 0.05 0.05 0.04 0.03 0.03 0.02 0.04 0.16 0.06 0.07 0.20 0.20 0.11 0.01 0.00 0.00 0.00 0.00 0.01 0.04 0.02 0.02 0.10 0.30 0.41 0.29 0.25 0.22 0.19 0.20 0.41 0.50 0.30 0.33 0.22 0.07 0.08 0.06 0.05 0.09 0.07 0.01 0.00 0.00
0.02 0.02 0.02 0.02 0.02 0.03 0.03 0.05 0.05 0.06 0.06 0.06 0.05 0.06 0.05 0.06 0.08 0.16 0.20 0.14 0.15 0.22 0.14 0.02 0.00 0.00 0.00 0.00 0.00 0.01 0.01 0.01 0.04 0.09 0.29 0.21 0.08 0.05 0.05 0.11 0.10 0.29 0.36 0.45 0.48 0.63 0.30 0.11 0.06 0.01 0.01 0.00 0.00 0.03
0.02 0.02 0.02 0.03 0.04 0.04 0.05 0.07 0.10 0.10 0.08 0.07 0.07 0.06 0.06 0.07 0.12 0.26 0.26 0.27 0.12 0.11 0.13 0.13 0.05 0.00 0.00 0.00 0.00 0.01 0.03 0.04 0.08 0.19 0.23 0.11 0.05 0.06 0.03 0.01 0.01 0.04 0.09 0.15 0.33 0.25 0.16 0.04 0.00 0.00 0.00 0.00 0.02 0.03
0.03 0.04 0.06 0.06 0.07 0.07 0.07 0.05 0.07 0.12 0.14 0.11 0.08 0.06 0.08 0.09 0.19 0.54 0.74 0.50 0.17 0.07 0.37 0.12 0.05 0.01 0.00 0.00 0.00 0.01 0.03 0.06 0.15 0.24 0.13 0.07 0.03 0.12 0.13 0.03 0.00 0.00 0.00 0.00 0.01 0.01 0.00 0.00 0.00 0.00 0.00 0.01 0.01 0.00
0.03 0.02 0.03 0.03 0.04 0.04 0.03 0.04 0.05 0.11 0.18 0.19 0.15 0.09 0.10 0.14 0.30 0.51 0.34 0.15 0.07 0.16 0.71 0.26 0.03 0.01 0.01 0.03 0.03 0.04 0.05 0.10 0.17 0.28 0.12 0.03 0.03 0.14 0.17 0.03 0.00 0.00 0.00 0.00 0.00 0.00 0.01 0.00 0.00 0.00 0.00 0.00 0.00 0.00
0.06 0.06 0.06 0.06 0.05 0.03 0.02 0.02 0.03 0.04 0.17 0.31 0.25 0.16 0.17 0.26 0.48 0.33 0.07 0.07 0.04 0.28 0.40 0.26 0.06 0.06 0.01 0.03 0.05 0.03 0.06 0.14 0.21 0.14 0.07 0.04 0.03 0.08 0.09 0.01 0.00 0.00 0.00 0.00 0.00 0.00 0.01 0.00 0.00 0.02 0.02 0.00 0.00 0.00
0.18 0.15 0.09 0.05 0.04 0.04 0.03 0.02 0.03 0.07 0.15 0.38 0.44 0.44 0.89 1.16 0.74 0.24 0.10 0.19 0.16 0.24 0.24 0.09 0.04 0.07 0.03 0.08 0.12 0.10 0.07 0.12 0.10 0.08 0.02 0.02 0.03 0.06 0.02 0.00 0.00 0.00 0.00 0.00 0.00 0.00 0.00 0.00 0.00 0.00 0.00 0.00 0.00 0.00
0.14 0.11 0.10 0.08 0.08 0.05 0.03 0.03 0.03 0.15 0.40 0.95 1.36 1.56 1.24 0.52 0.06 0.34 0.81 0.70 0.71 0.53 0.24 0.05 0.02 0.09 0.07 0.08 0.24 0.37 0.15 0.06 0.06 0.02 0.02 0.05 0.03 0.01 0.00 0.00 0.00 0.00 0.00 0.00 0.00 0.00 0.00 0.00 0.00 0.00 0.00 0.00 0.00 0.00
0.10 0.09 0.12 0.08 0.10 0.08 0.03 0.02 0.09 0.44 0.98 1.30 0.97 0.42 0.20 0.09 0.17 0.49 0.58 0.38 0.28 0.21 0.04 0.01 0.01 0.08 0.05 0.06 0.09 0.12 0.10 0.08 0.05 0.01 0.04 0.03 0.07 0.04 0.00 0.00 0.00 0.00 0.00 0.00 0.00 0.00 0.00 0.00 0.00 0.00 0.00 0.00 0.00 0.00
0.07 0.06 0.05 0.05 0.07 0.10 0.10 0.09 0.17 0.33 0.47 0.30 0.17 0.24 0.18 0.26 0.40 0.34 0.27 0.09 0.05 0.01 0.01 0.00 0.02 0.09 0.08 0.12 0.13 0.08 0.04 0.09 0.07 0.14 0.13 0.06 0.05 0.01 0.00 0.00 0.00 0.00 0.00 0.00 0.00 0.00 0.00 0.00 0.00 0.00 0.00 0.00 0.00 0.00
0.06 0.06 0.08 0.16 0.19 0.25 0.28 0.26 0.09 0.07 0.07 0.05 0.10 0.16 0.15 0.19 0.16 0.11 0.11 0.03 0.01 0.02 0.01 0.01 0.05 0.03 0.03 0.03 0.05 0.05 0.07 0.05 0.07 0.10 0.12 0.07 0.02 0.00 0.00 0.00 0.00 0.00 0.00 0.00 0.00 0.00 0.00 0.00 0.00 0.00 0.00 0.01 0.02 0.02
0.12 0.10 0.10 0.20 0.30 0.35 0.38 0.19 0.18 0.57 0.37 0.28 0.27 0.16 0.08 0.03 0.06 0.03 0.01 0.01 0.01 0.01 0.00 0.02 0.03 0.07 0.07 0.01 0.01 0.02 0.05 0.08 0.05 0.03 0.05 0.05 0.01 0.00 0.00 0.00 0.00 0.00 0.00 0.00 0.00 0.00 0.00 0.01 0.02 0.02 0.03 0.04 0.04 0.05
0.07 0.12 0.25 0.37 0.46 0.52 0.40 0.21 0.46 0.27 0.09 0.11 0.02 0.01 0.02 0.02 0.02 0.01 0.01 0.01 0.00 0.00 0.01 0.03 0.04 0.06 0.05 0.03 0.02 0.04 0.06 0.08 0.10 0.06 0.06 0.04 0.01 0.00 0.00 0.00 0.00 0.01 0.01 0.01 0.01 0.01 0.02 0.02 0.02 0.04 0.06 0.07 0.06 0.08
0.07 0.24 0.41 0.49 0.48 0.41 0.25 0.21 0.10 0.00 0.00 0.00 0.02 0.03 0.04 0.03 0.04 0.03 0.03 0.02 0.01 0.01 0.02 0.04 0.09 0.08 0.13 0.08 0.11 0.06 0.07 0.09 0.08 0.05 0.03 0.00 0.00 0.01 0.01 0.00 0.01 0.01 0.01 0.01 0.01 0.02 0.02 0.03 0.03 0.05 0.06 0.08 0.14 0.13
0.05 0.30 0.30 0.22 0.17 0.09 0.06 0.06 0.04 0.01 0.00 0.01 0.03 0.05 0.06 0.04 0.06 0.06 0.04 0.04 0.02 0.04 0.06 0.08 0.18 0.09 0.08 0.10 0.11 0.06 0.08 0.06 0.03 0.02 0.01 0.01 0.02 0.01 0.01 0.01 0.01 0.02 0.01 0.01 0.01 0.02 0.03 0.05 0.05 0.04 0.08 0.15 0.16 0.18
0.06 0.09 0.07 0.07 0.03 0.02 0.03 0.02 0.01 0.00 0.01 0.03 0.04 0.06 0.02 0.04 0.04 0.04 0.05 0.06 0.07 0.10 0.06 0.05 0.05 0.05 0.07 0.11 0.08 0.10 0.08 0.06 0.04 0.01 0.01 0.01 0.03 0.02 0.02 0.02 0.02 0.02 0.02 0.02 0.02 0.03 0.03 0.05 0.05 0.08 0.12 0.15 0.17 0.21
0.02 0.03 0.02 0.02 0.01 0.01 0.03 0.01 0.00 0.01 0.03 0.03 0.05 0.04 0.02 0.03 0.04 0.04 0.04 0.05 0.04 0.02 0.02 0.02 0.03 0.03 0.05 0.05 0.06 0.05 0.05 0.03 0.03 0.03 0.03 0.02 0.02 0.03 0.03 0.02 0.03 0.03 0.05 0.06 0.05 0.05 0.05 0.05 0.08 0.10 0.13 0.15 0.17 0.24
0.07 0.11 0.02 0.03 0.01 0.00 0.00 0.00 0.00 0.00 0.02 0.02 0.03 0.03 0.02 0.05 0.04 0.03 0.03 0.03 0.02 0.03 0.06 0.06 0.08 0.06 0.06 0.06 0.06 0.09 0.10 0.06 0.07 0.09 0.13 0.04 0.02 0.02 0.04 0.03 0.03 0.03 0.03 0.04 0.05 0.06 0.06 0.08 0.11 0.13 0.14 0.16 0.14 0.20
0.04 0.04 0.00 0.00 0.00 0.00 0.00 0.00 0.00 0.01 0.01 0.02 0.02 0.01 0.03 0.01 0.01 0.02 0.02 0.01 0.02 0.07 0.08 0.08 0.09 0.08 0.09 0.09 0.08 0.08 0.06 0.05 0.06 0.04 0.08 0.10 0.04 0.02 0.03 0.07 0.09 0.07 0.06 0.08 0.09 0.12 0.11 0.10 0.13 0.14 0.14 0.16 0.15 0.11
0.01 0.00 0.00 0.00 0.00 0.00 0.01 0.00 0.01 0.01 0.01 0.03 0.04 0.02 0.03 0.03 0.03 0.05 0.03 0.03 0.08 0.12 0.12 0.13 0.12 0.11 0.12 0.08 0.06 0.05 0.05 0.06 0.03 0.03 0.04 0.06 0.11 0.08 0.08 0.08 0.08 0.10 0.12 0.11 0.09 0.11 0.13 0.12 0.11 0.12 0.10 0.11 0.09 0.08
0.00 0.00 0.00 0.00 0.00 0.00 0.03 0.10 0.06 0.06 0.04 0.03 0.02 0.02 0.03 0.04 0.06 0.04 0.06 0.10 0.14 0.14 0.14 0.13 0.11 0.11 0.09 0.07 0.04 0.02 0.02 0.02 0.03 0.04 0.04 0.05 0.06 0.08 0.08 0.10 0.11 0.11 0.11 0.15 0.13 0.11 0.12 0.12 0.10 0.08 0.07 0.06 0.05 0.05
0.00 0.00 0.00 0.00 0.00 0.01 0.01 0.00 0.01 0.02 0.04 0.03 0.02 0.04 0.05 0.05 0.04 0.03 0.08 0.12 0.13 0.08 0.06 0.08 0.05 0.12 0.06 0.02 0.03 0.04 0.05 0.05 0.04 0.05 0.06 0.05 0.05 0.09 0.08 0.10 0.12 0.14 0.12 0.12 0.12 0.11 0.08 0.07 0.05 0.04 0.03 0.03 0.03 0.02
0.00 0.00 0.00 0.00 0.00 0.00 0.00 0.01 0.02 0.01 0.03 0.02 0.02 0.04 0.06 0.05 0.03 0.03 0.05 0.09 0.07 0.05 0.05 0.06 0.05 0.02 0.04 0.04 0.04 0.04 0.05 0.05 0.05 0.04 0.10 0.10 0.07 0.07 0.08 0.10 0.11 0.12 0.10 0.07 0.07 0.06 0.05 0.03 0.02 0.01 0.01 0.00 0.00 0.00
0.00 0.00 0.00 0.00 0.00 0.00 0.00 0.01 0.01 0.01 0.00 0.01 0.01 0.01 0.01 0.00 0.00 0.02 0.03 0.05 0.04 0.03 0.04 0.05 0.06 0.04 0.03 0.04 0.04 0.04 0.05 0.06 0.04 0.05 0.08 0.10 0.12 0.10 0.09 0.07 0.05 0.06 0.05 0.02 0.02 0.02 0.01 0.00 0.00 0.00 0.00 0.00 0.00 0.00
0.00 0.00 0.00 0.00 0.00 0.00 0.00 0.00 0.00 0.00 0.01 0.01 0.01 0.00 0.00 0.00 0.02 0.04 0.03 0.03 0.04 0.03 0.02 0.02 0.02 0.02 0.04 0.05 0.06 0.07 0.05 0.03 0.04 0.06 0.08 0.07 0.05 0.05 0.04 0.05 0.06 0.07 0.02 0.00 0.00 0.00 0.00 0.00 0.00 0.00 0.00 0.00 0.00 0.00
0.00 0.00 0.00 0.00 0.00 0.00 0.00 0.00 0.00 0.01 0.01 0.00 0.00 0.00 0.01 0.01 0.05 0.05 0.04 0.04 0.07 0.05 0.04 0.03 0.02 0.02 0.03 0.04 0.05 0.06 0.08 0.08 0.06 0.06 0.04 0.04 0.04 0.03 0.03 0.03 0.03 0.02 0.02 0.01 0.00 0.00 0.00 0.00 0.00 0.00 0.00 0.00 0.00 0.00
0.00 0.00 0.00 0.00 0.00 0.00 0.01 0.01 0.01 0.01 0.01 0.02 0.01 0.01 0.02 0.06 0.08 0.07 0.05 0.03 0.02 0.02 0.02 0.03 0.07 0.05 0.03 0.03 0.03 0.05 0.05 0.08 0.10 0.07 0.05 0.07 0.05 0.07 0.06 0.04 0.02 0.01 0.01 0.01 0.01 0.00 0.00 0.00 0.00 0.00 0.00 0.00 0.00 0.00
0.00 0.00 0.00 0.00 0.01 0.02 0.05 0.02 0.03 0.02 0.00 0.00 0.00 0.01 0.02 0.04 0.05 0.03 0.03 0.03 0.03 0.02 0.02 0.02 0.02 0.02 0.04 0.04 0.03 0.03 0.04 0.04 0.04 0.06 0.05 0.06 0.07 0.06 0.03 0.03 0.03 0.01 0.00 0.00 0.00 0.00 0.00 0.00 0.00 0.00 0.00 0.00 0.00 0.00
0.00 0.00 0.00 0.00 0.03 0.03 0.03 0.02 0.02 0.01 0.01 0.01 0.00 0.00 0.01 0.03 0.02 0.01 0.02 0.04 0.02 0.02 0.01 0.01 0.01 0.01 0.01 0.01 0.02 0.02 0.03 0.02 0.02 0.02 0.03 0.03 0.02 0.02 0.02 0.02 0.02 0.01 0.00 0.00 0.00 0.00 0.00 0.00 0.00 0.00 0.00 0.00 0.00 0.00
0.00 0.00 0.00 0.01 0.03 0.02 0.04 0.05 0.02 0.02 0.02 0.01 0.01 0.01 0.02 0.02 0.02 0.02 0.02 0.04 0.01 0.01 0.01 0.00 0.00 0.01 0.00 0.00 0.00 0.00 0.01 0.00 0.00 0.00 0.00 0.01 0.01 0.01 0.01 0.00 0.00 0.00 0.00 0.00 0.00 0.00 0.00 0.00 0.00 0.00 0.00 0.00 0.00 0.00
0.00 0.00 0.00 0.00 0.01 0.01 0.01 0.02 0.01 0.01 0.01 0.01 0.01 0.01 0.02 0.01 0.01 0.02 0.01 0.01 0.01 0.00 0.00 0.00 0.00 0.00 0.00 0.00 0.00 0.00 0.00 0.00 0.00 0.00 0.00 0.00 0.00 0.00 0.01 0.00 0.00 0.00 0.00 0.00 0.00 0.00 0.00 0.00 0.00 0.00 0.00 0.00 0.00 0.00

GFSWCAN_prec_precacc12_111.txt.gz
Total_Precipitation_Accumulation
0.03 0.03 0.02 0.02 0.02 0.01 0.01 0.01 0.01 0.01 0.01 0.02 0.03 0.06 0.09 0.12 0.13 0.11 0.02 0.07 0.15 0.11 0.02 0.00 0.00 0.03 0.03 0.05 0.10 0.17 0.18 0.29 0.23 0.16 0.07 0.06 0.10 0.09 0.05 0.05 0.46 0.49 0.42 0.15 0.08 0.07 0.02 0.02 0.06 0.15 0.12 0.03 0.02 0.02
0.04 0.04 0.03 0.03 0.02 0.02 0.02 0.02 0.03 0.02 0.02 0.01 0.01 0.02 0.04 0.06 0.12 0.16 0.03 0.03 0.13 0.15 0.03 0.00 0.00 0.00 0.00 0.01 0.04 0.06 0.23 0.37 0.57 0.72 0.55 0.32 0.19 0.21 0.12 0.18 0.59 0.76 0.31 0.16 0.03 0.01 0.02 0.07 0.16 0.24 0.06 0.00 0.00 0.00
0.03 0.02 0.02 0.02 0.02 0.01 0.02 0.03 0.04 0.04 0.04 0.04 0.03 0.02 0.02 0.01 0.05 0.15 0.03 0.04 0.17 0.14 0.03 0.00 0.00 0.00 0.00 0.00 0.00 0.01 0.01 0.01 0.07 0.24 0.31 0.22 0.21 0.22 0.18 0.20 0.43 0.64 0.46 0.52 0.24 0.08 0.08 0.07 0.06 0.12 0.03 0.00 0.00 0.00
0.03 0.02 0.02 0.02 0.02 0.01 0.02 0.04 0.05 0.04 0.04 0.04 0.04 0.04 0.03 0.05 0.04 0.11 0.10 0.06 0.11 0.11 0.07 0.00 0.00 0.00 0.00 0.00 0.00 0.00 0.00 0.00 0.02 0.05 0.20 0.17 0.06 0.02 0.04 0.09 0.12 0.50 0.53 0.61 0.60 0.81 0.41 0.14 0.08 0.01 0.00 0.00 0.00 0.01
0.02 0.03 0.02 0.02 0.03 0.03 0.03 0.05 0.08 0.09 0.07 0.05 0.05 0.04 0.04 0.07 0.09 0.16 0.13 0.08 0.07 0.05 0.06 0.09 0.03 0.00 0.00 0.00 0.00 0.00 0.00 0.01 0.03 0.11 0.16 0.09 0.03 0.04 0.02 0.01 0.03 0.12 0.13 0.22 0.47 0.40 0.41 0.09 0.00 0.00 0.00 0.00 0.02 0.02
0.04 0.02 0.02 0.03 0.05 0.06 0.06 0.05 0.05 0.11 0.13 0.10 0.07 0.06 0.07 0.10 0.18 0.34 0.41 0.20 0.09 0.06 0.25 0.08 0.02 0.01 0.00 0.00 0.00 0.00 0.01 0.02 0.07 0.12 0.08 0.04 0.02 0.09 0.11 0.03 0.00 0.01 0.00 0.00 0.01 0.02 0.03 0.02 0.02 0.01 0.01 0.01 0.01 0.00
0.04 0.03 0.02 0.02 0.03 0.04 0.02 0.03 0.04 0.10 0.18 0.19 0.15 0.09 0.09 0.15 0.32 0.43 0.26 0.08 0.02 0.09 0.57 0.19 0.01 0.01 0.01 0.02 0.02 0.03 0.03 0.05 0.09 0.16 0.08 0.01 0.01 0.10 0.13 0.02 0.00 0.00 0.00 0.00 0.00 0.01 0.01 0.02 0.02 0.02 0.02 0.04 0.00 0.00
0.05 0.06 0.07 0.07 0.05 0.03 0.02 0.01 0.02 0.03 0.13 0.31 0.27 0.19 0.16 0.25 0.53 0.29 0.05 0.07 0.03 0.19 0.27 0.18 0.03 0.04 0.01 0.03 0.03 0.02 0.06 0.13 0.19 0.11 0.05 0.02 0.02 0.07 0.08 0.02 0.00 0.00 0.00 0.00 0.00 0.01 0.01 0.00 0.01 0.03 0.03 0.03 0.00 0.00
0.19 0.15 0.10 0.06 0.04 0.04 0.03 0.03 0.04 0.07 0.15 0.43 0.54 0.50 0.78 1.03 0.80 0.17 0.09 0.21 0.15 0.17 0.16 0.06 0.02 0.05 0.02 0.07 0.10 0.14 0.11 0.14 0.10 0.08 0.01 0.02 0.03 0.08 0.05 0.00 0.00 0.00 0.00 0.00 0.00 0.00 0.00 0.00 0.00 0.00 0.00 0.00 0.00 0.00
0.13 0.11 0.11 0.09 0.09 0.07 0.06 0.06 0.07 0.17 0.47 1.11 1.40 1.29 1.01 0.42 0.05 0.21 0.64 0.80 0.90 0.54 0.24 0.05 0.01 0.06 0.06 0.08 0.22 0.43 0.28 0.05 0.06 0.02 0.01 0.04 0.04 0.04 0.02 0.00 0.00 0.00 0.00 0.00 0.00 0.00 0.00 0.00 0.00 0.00 0.00 0.00 0.00 0.00
0.11 0.11 0.14 0.11 0.13 0.10 0.06 0.07 0.18 0.56 1.26 1.42 0.83 0.31 0.15 0.06 0.12 0.39 0.46 0.32 0.28 0.21 0.04 0.01 0.00 0.05 0.05 0.04 0.06 0.10 0.07 0.06 0.03 0.01 0.03 0.04 0.11 0.06 0.01 0.00 0.00 0.00 0.00 0.00 0.00 0.00 0.00 0.00 0.00 0.00 0.00 0.00 0.00 0.00
0.10 0.10 0.11 0.09 0.12 0.11 0.08 0.12 0.27 0.50 0.55 0.22 0.10 0.20 0.17 0.16 0.30 0.30 0.26 0.09 0.04 0.01 0.00 0.00 0.01 0.05 0.07 0.08 0.07 0.05 0.02 0.01 0.02 0.10 0.15 0.07 0.06 0.01 0.00 0.00 0.00 0.00 0.00 0.00 0.00 0.00 0.00 0.00 0.00 0.00 0.00 0.00 0.00 0.01
0.10 0.10 0.10 0.11 0.10 0.13 0.18 0.24 0.10 0.13 0.09 0.07 0.16 0.18 0.12 0.14 0.15 0.11 0.14 0.04 0.01 0.01 0.00 0.00 0.03 0.01 0.02 0.03 0.04 0.03 0.04 0.02 0.04 0.07 0.09 0.07 0.03 0.00 0.00 0.00 0.00 0.00 0.00 0.00 0.00 0.00 0.00 0.00 0.00 0.00 0.01 0.01 0.02 0.03
0.15 0.09 0.09 0.15 0.21 0.31 0.40 0.20 0.22 0.73 0.39 0.31 0.31 0.20 0.08 0.03 0.06 0.02 0.01 0.00 0.00 0.00 0.00 0.01 0.01 0.05 0.05 0.01 0.01 0.00 0.01 0.04 0.03 0.02 0.05 0.05 0.01 0.00 0.00 0.00 0.00 0.00 0.00 0.00 0.00 0.00 0.00 0.01 0.02 0.02 0.03 0.03 0.03 0.04
0.08 0.10 0.22 0.36 0.49 0.53 0.39 0.22 0.55 0.32 0.13 0.17 0.03 0.00 0.02 0.01 0.01 0.01 0.00 0.00 0.00 0.00 0.00 0.01 0.02 0.03 0.02 0.01 0.00 0.01 0.03 0.03 0.06 0.05 0.05 0.03 0.01 0.00 0.00 0.00 0.00 0.00 0.00 0.00 0.00 0.00 0.01 0.01 0.01 0.03 0.05 0.05 0.04 0.05
0.11 0.28 0.44 0.55 0.57 0.46 0.34 0.38 0.13 0.01 0.02 0.01 0.02 0.03 0.04 0.02 0.03 0.02 0.02 0.01 0.01 0.00 0.00 0.02 0.02 0.01 0.02 0.01 0.05 0.03 0.05 0.07 0.07 0.05 0.03 0.00 0.00 0.00 0.00 0.00 0.00 0.00 0.00 0.01 0.01 0.01 0.01 0.01 0.02 0.04 0.05 0.05 0.07 0.05
0.12 0.42 0.40 0.38 0.34 0.19 0.14 0.09 0.05 0.08 0.06 0.01 0.03 0.06 0.05 0.03 0.05 0.05 0.03 0.04 0.02 0.03 0.03 0.04 0.12 0.06 0.06 0.07 0.10 0.06 0.08 0.05 0.03 0.01 0.00 0.01 0.01 0.01 0.01 0.00 0.00 0.01 0.01 0.00 0.00 0.01 0.01 0.02 0.02 0.02 0.05 0.09 0.09 0.09
0.14 0.19 0.18 0.17 0.11 0.09 0.11 0.05 0.04 0.05 0.03 0.03 0.03 0.05 0.01 0.04 0.04 0.04 0.04 0.07 0.10 0.12 0.06 0.04 0.04 0.05 0.07 0.10 0.07 0.09 0.08 0.08 0.04 0.01 0.00 0.00 0.01 0.00 0.01 0.01 0.01 0.01 0.01 0.01 0.01 0.01 0.01 0.02 0.02 0.04 0.06 0.08 0.09 0.12
0.09 0.08 0.07 0.07 0.04 0.03 0.14 0.05 0.00 0.01 0.04 0.03 0.05 0.04 0.02 0.02 0.04 0.04 0.03 0.06 0.05 0.02 0.01 0.01 0.02 0.02 0.04 0.04 0.05 0.04 0.04 0.02 0.03 0.02 0.03 0.01 0.01 0.01 0.02 0.01 0.02 0.02 0.03 0.04 0.03 0.03 0.02 0.02 0.03 0.05 0.06 0.07 0.08 0.13
0.09 0.12 0.05 0.06 0.01 0.00 0.02 0.00 0.00 0.00 0.02 0.01 0.03 0.02 0.02 0.04 0.03 0.01 0.02 0.02 0.02 0.02 0.04 0.04 0.05 0.04 0.04 0.04 0.04 0.05 0.07 0.04 0.05 0.08 0.12 0.03 0.00 0.00 0.02 0.01 0.01 0.01 0.01 0.02 0.02 0.02 0.02 0.04 0.06 0.05 0.05 0.07 0.08 0.14
0.10 0.06 0.01 0.00 0.00 0.00 0.00 0.00 0.00 0.01 0.01 0.01 0.01 0.00 0.02 0.01 0.01 0.01 0.01 0.01 0.01 0.04 0.06 0.05 0.06 0.06 0.06 0.05 0.05 0.05 0.04 0.05 0.05 0.03 0.07 0.10 0.03 0.01 0.01 0.03 0.05 0.03 0.03 0.04 0.04 0.05 0.04 0.05 0.07 0.07 0.06 0.09 0.10 0.10
0.06 0.03 0.00 0.00 0.00 0.00 0.00 0.00 0.00 0.01 0.01 0.03 0.03 0.01 0.02 0.01 0.01 0.02 0.01 0.02 0.05 0.09 0.09 0.10 0.09 0.08 0.08 0.05 0.05 0.05 0.05 0.06 0.02 0.02 0.02 0.04 0.10 0.06 0.05 0.04 0.04 0.06 0.08 0.07 0.06 0.06 0.08 0.09 0.07 0.08 0.08 0.10 0.09 0.08
0.00 0.00 0.00 0.00 0.00 0.01 0.02 0.11 0.05 0.05 0.02 0.02 0.01 0.01 0.01 0.02 0.04 0.02 0.04 0.07 0.11 0.12 0.12 0.12 0.11 0.09 0.07 0.06 0.03 0.02 0.01 0.01 0.02 0.03 0.02 0.03 0.04 0.05 0.06 0.07 0.06 0.08 0.09 0.12 0.11 0.10 0.11 0.11 0.10 0.09 0.08 0.07 0.06 0.06
0.00 0.00 0.00 0.00 0.00 0.01 0.02 0.01 0.01 0.02 0.04 0.02 0.02 0.03 0.04 0.04 0.03 0.03 0.07 0.10 0.12 0.08 0.06 0.09 0.07 0.12 0.05 0.02 0.02 0.03 0.04 0.03 0.02 0.04 0.04 0.03 0.03 0.06 0.05 0.07 0.08 0.09 0.09 0.10 0.11 0.11 0.10 0.08 0.07 0.05 0.05 0.04 0.04 0.04
0.00 0.00 0.00 0.00 0.00 0.00 0.00 0.01 0.02 0.01 0.03 0.02 0.01 0.04 0.07 0.05 0.02 0.03 0.05 0.09 0.06 0.05 0.05 0.05 0.05 0.02 0.03 0.03 0.03 0.03 0.03 0.03 0.02 0.02 0.08 0.07 0.05 0.05 0.06 0.08 0.09 0.11 0.09 0.07 0.08 0.07 0.07 0.05 0.03 0.02 0.02 0.01 0.01 0.01
0.00 0.00 0.00 0.00 0.00 0.00 0.00 0.01 0.01 0.01 0.00 0.01 0.01 0.02 0.01 0.00 0.00 0.02 0.03 0.04 0.03 0.02 0.03 0.04 0.05 0.03 0.03 0.03 0.03 0.03 0.04 0.04 0.01 0.02 0.06 0.07 0.08 0.07 0.07 0.07 0.06 0.08 0.06 0.03 0.03 0.02 0.02 0.01 0.00 0.00 0.00 0.00 0.00 0.00
0.00 0.00 0.00 0.00 0.00 0.00 0.00 0.00 0.00 0.00 0.01 0.01 0.01 0.00 0.00 0.00 0.02 0.04 0.03 0.02 0.03 0.02 0.02 0.01 0.01 0.01 0.03 0.04 0.05 0.05 0.04 0.02 0.02 0.04 0.07 0.06 0.05 0.05 0.05 0.06 0.07 0.09 0.04 0.02 0.01 0.00 0.00 0.00 0.00 0.00 0.00 0.00 0.00 0.00
0.00 0.00 0.00 0.00 0.00 0.00 0.00 0.00 0.00 0.00 0.01 0.01 0.00 0.00 0.01 0.01 0.05 0.05 0.03 0.04 0.06 0.05 0.03 0.02 0.01 0.01 0.02 0.03 0.04 0.04 0.06 0.05 0.04 0.04 0.03 0.03 0.04 0.04 0.04 0.04 0.05 0.03 0.02 0.01 0.01 0.00 0.00 0.00 0.00 0.00 0.00 0.00 0.00 0.00
0.00 0.00 0.00 0.00 0.00 0.00 0.00 0.00 0.01 0.01 0.01 0.02 0.01 0.01 0.02 0.06 0.09 0.06 0.05 0.02 0.01 0.01 0.01 0.02 0.06 0.04 0.02 0.01 0.02 0.03 0.04 0.06 0.07 0.04 0.03 0.05 0.04 0.07 0.06 0.04 0.02 0.02 0.02 0.02 0.01 0.01 0.00 0.00 0.00 0.00 0.00 0.00 0.00 0.00
0.00 0.00 0.00 0.00 0.01 0.02 0.05 0.02 0.02 0.01 0.00 0.00 0.00 0.01 0.02 0.05 0.06 0.03 0.02 0.02 0.02 0.01 0.01 0.01 0.01 0.01 0.02 0.02 0.02 0.02 0.03 0.03 0.03 0.04 0.04 0.05 0.07 0.07 0.04 0.03 0.03 0.01 0.01 0.00 0.01 0.01 0.00 0.00 0.00 0.00 0.00 0.00 0.00 0.00
0.00 0.00 0.00 0.00 0.03 0.02 0.02 0.01 0.01 0.01 0.01 0.01 0.00 0.00 0.01 0.03 0.02 0.01 0.02 0.03 0.01 0.02 0.01 0.01 0.01 0.01 0.00 0.01 0.01 0.01 0.02 0.02 0.02 0.02 0.03 0.03 0.03 0.02 0.02 0.02 0.02 0.01 0.00 0.00 0.00 0.00 0.00 0.00 0.00 0.00 0.00 0.00 0.00 0.00
0.00 0.00 0.00 0.01 0.03 0.02 0.04 0.04 0.01 0.01 0.02 0.01 0.01 0.01 0.02 0.02 0.01 0.01 0.02 0.03 0.01 0.01 0.01 0.00 0.00 0.01 0.00 0.00 0.00 0.00 0.00 0.00 0.00 0.00 0.00 0.00 0.00 0.01 0.00 0.00 0.00 0.00 0.00 0.00 0.00 0.00 0.00 0.00 0.00 0.00 0.00 0.00 0.00 0.00
0.00 0.00 0.00 0.00 0.01 0.01 0.02 0.02 0.01 0.01 0.01 0.01 0.01 0.01 0.02 0.01 0.01 0.02 0.01 0.01 0.01 0.00 0.00 0.00 0.00 0.00 0.00 0.00 0.00 0.00 0.00 0.00 0.00 0.00 0.00 0.00 0.00 0.00 0.00 0.00 0.00 0.00 0.00 0.00 0.00 0.00 0.00 0.00 0.00 0.00 0.00 0.00 0.00 0.00

GFSWCAN_prec_precacc12_114.txt.gz
Total_Precipitation_Accumulation
0.04 0.04 0.03 0.02 0.01 0.01 0.02 0.01 0.01 0.01 0.01 0.01 0.02 0.05 0.08 0.11 0.13 0.07 0.01 0.03 0.09 0.10 0.01 0.00 0.00 0.00 0.00 0.02 0.05 0.07 0.08 0.21 0.15 0.14 0.06 0.05 0.11 0.15 0.10 0.05 0.31 0.52 0.48 0.17 0.15 0.07 0.01 0.03 0.09 0.16 0.13 0.06 0.07 0.11
0.05 0.05 0.04 0.03 0.03 0.02 0.02 0.02 0.02 0.01 0.01 0.00 0.00 0.01 0.04 0.04 0.11 0.16 0.02 0.01 0.08 0.12 0.03 0.00 0.00 0.00 0.00 0.00 0.01 0.02 0.09 0.20 0.38 0.58 0.43 0.23 0.12 0.18 0.11 0.17 0.63 0.82 0.47 0.24 0.02 0.01 0.02 0.07 0.19 0.27 0.13 0.02 0.00 0.00
0.05 0.04 0.03 0.02 0.02 0.02 0.02 0.02 0.02 0.02 0.02 0.02 0.02 0.01 0.02 0.01 0.05 0.17 0.04 0.01 0.13 0.16 0.02 0.00 0.00 0.00 0.00 0.00 0.00 0.01 0.00 0.01 0.03 0.15 0.14 0.11 0.12 0.13 0.11 0.20 0.44 0.71 0.61 0.73 0.25 0.08 0.07 0.06 0.07 0.16 0.25 0.12 0.00 0.01
0.06 0.04 0.03 0.03 0.02 0.02 0.02 0.02 0.02 0.02 0.02 0.03 0.03 0.04 0.03 0.05 0.04 0.12 0.07 0.01 0.06 0.11 0.06 0.00 0.00 0.00 0.00 0.00 0.00 0.00 0.00 0.00 0.00 0.01 0.05 0.09 0.04 0.01 0.01 0.04 0.15 0.59 0.59 0.67 0.69 0.87 0.44 0.15 0.08 0.01 0.01 0.01 0.00 0.01
0.05 0.06 0.04 0.02 0.02 0.02 0.02 0.02 0.03 0.03 0.04 0.04 0.03 0.03 0.03 0.06 0.10 0.14 0.08 0.03 0.03 0.04 0.05 0.02 0.00 0.00 0.00 0.00 0.00 0.00 0.00 0.00 0.01 0.05 0.10 0.08 0.02 0.02 0.01 0.00 0.10 0.15 0.17 0.31 0.59 0.47 0.60 0.20 0.06 0.01 0.02 0.03 0.04 0.02
0.07 0.04 0.04 0.02 0.02 0.02 0.03 0.03 0.03 0.05 0.08 0.09 0.07 0.05 0.05 0.08 0.16 0.25 0.25 0.05 0.03 0.03 0.21 0.05 0.00 0.00 0.00 0.00 0.00 0.00 0.00 0.00 0.02 0.04 0.05 0.02 0.01 0.08 0.12 0.05 0.01 0.01 0.01 0.03 0.05 0.06 0.18 0.23 0.09 0.03 0.05 0.07 0.04 0.02
0.07 0.05 0.04 0.03 0.02 0.02 0.03 0.03 0.04 0.07 0.12 0.16 0.14 0.09 0.09 0.14 0.20 0.29 0.15 0.01 0.00 0.04 0.32 0.08 0.00 0.00 0.00 0.01 0.01 0.01 0.01 0.01 0.03 0.08 0.05 0.00 0.01 0.09 0.08 0.01 0.00 0.00 0.00 0.01 0.01 0.01 0.03 0.03 0.02 0.02 0.08 0.16 0.06 0.00
0.07 0.07 0.06 0.06 0.06 0.05 0.03 0.02 0.02 0.03 0.10 0.27 0.26 0.21 0.16 0.22 0.38 0.24 0.07 0.07 0.02 0.06 0.09 0.08 0.00 0.01 0.00 0.01 0.02 0.01 0.03 0.10 0.11 0.08 0.05 0.02 0.02 0.07 0.09 0.03 0.00 0.00 0.00 0.00 0.00 0.01 0.01 0.00 0.01 0.03 0.03 0.04 0.00 0.00
0.17 0.17 0.13 0.09 0.06 0.06 0.05 0.04 0.03 0.05 0.09 0.39 0.56 0.53 0.74 0.89 0.68 0.16 0.08 0.21 0.13 0.11 0.08 0.03 0.01 0.01 0.02 0.05 0.05 0.16 0.20 0.23 0.12 0.09 0.02 0.06 0.06 0.13 0.08 0.01 0.00 0.00 0.00 0.00 0.00 0.00 0.00 0.00 0.00 0.00 0.00 0.00 0.00 0.00
0.14 0.13 0.14 0.11 0.10 0.08 0.07 0.07 0.07 0.14 0.39 1.07 1.38 1.17 0.87 0.33 0.05 0.13 0.43 0.66 0.82 0.47 0.17 0.04 0.00 0.01 0.04 0.07 0.23 0.39 0.39 0.09 0.05 0.02 0.03 0.05 0.08 0.07 0.02 0.00 0.00 0.00 0.00 0.00 0.00 0.00 0.00 0.00 0.00 0.00 0.00 0.00 0.00 0.00
0.11 0.12 0.15 0.12 0.13 0.10 0.06 0.08 0.18 0.57 1.31 1.57 0.76 0.23 0.08 0.04 0.11 0.35 0.33 0.25 0.29 0.24 0.04 0.00 0.00 0.01 0.02 0.03 0.05 0.08 0.13 0.07 0.01 0.01 0.03 0.04 0.13 0.07 0.02 0.01 0.00 0.00 0.00 0.00 0.00 0.00 0.00 0.00 0.00 0.00 0.00 0.00 0.00 0.00
0.10 0.09 0.10 0.09 0.13 0.11 0.09 0.15 0.34 0.74 0.78 0.28 0.05 0.18 0.21 0.16 0.28 0.26 0.22 0.07 0.03 0.00 0.00 0.00 0.00 0.02 0.04 0.05 0.02 0.02 0.01 0.00 0.00 0.06 0.13 0.08 0.06 0.02 0.00 0.00 0.00 0.00 0.00 0.00 0.00 0.00 0.00 0.00 0.00 0.00 0.00 0.00 0.01 0.01
0.08 0.08 0.09 0.09 0.10 0.14 0.19 0.23 0.24 0.32 0.23 0.14 0.21 0.29 0.19 0.14 0.16 0.10 0.12 0.03 0.00 0.00 0.00 0.00 0.00 0.00 0.02 0.03 0.02 0.01 0.01 0.00 0.01 0.03 0.05 0.06 0.03 0.00 0.00 0.00 0.00 0.00 0.00 0.00 0.00 0.00 0.00 0.00 0.00 0.01 0.01 0.02 0.02 0.03
0.10 0.10 0.13 0.14 0.14 0.23 0.36 0.30 0.37 0.85 0.43 0.38 0.33 0.25 0.08 0.03 0.03 0.00 0.00 0.00 0.00 0.00 0.00 0.00 0.00 0.02 0.01 0.01 0.02 0.01 0.00 0.01 0.02 0.02 0.03 0.03 0.01 0.00 0.00 0.00 0.00 0.00 0.00 0.00 0.00 0.00 0.00 0.00 0.01 0.02 0.02 0.03 0.03 0.03
0.13 0.17 0.32 0.40 0.46 0.52 0.45 0.34 0.66 0.43 0.29 0.26 0.04 0.00 0.02 0.00 0.00 0.00 0.00 0.00 0.00 0.00 0.00 0.00 0.00 0.01 0.01 0.02 0.00 0.00 0.01 0.01 0.03 0.02 0.03 0.02 0.00 0.00 0.00 0.00 0.00 0.00 0.00 0.00 0.00 0.00 0.00 0.00 0.01 0.02 0.03 0.04 0.04 0.04
0.19 0.43 0.59 0.57 0.54 0.46 0.45 0.57 0.23 0.07 0.08 0.02 0.01 0.02 0.02 0.01 0.02 0.01 0.01 0.01 0.00 0.00 0.01 0.03 0.01 0.00 0.01 0.01 0.01 0.01 0.03 0.04 0.04 0.03 0.02 0.00 0.00 0.00 0.00 0.00 0.00 0.00 0.00 0.00 0.00 0.00 0.00 0.01 0.01 0.02 0.03 0.03 0.05 0.05
0.19 0.48 0.45 0.46 0.47 0.44 0.37 0.15 0.11 0.16 0.10 0.01 0.02 0.05 0.04 0.02 0.04 0.04 0.03 0.04 0.02 0.02 0.02 0.02 0.03 0.02 0.03 0.05 0.06 0.04 0.05 0.04 0.03 0.01 0.00 0.00 0.00 0.00 0.00 0.00 0.00 0.00 0.00 0.00 0.00 0.00 0.00 0.01 0.01 0.01 0.02 0.06 0.06 0.07
0.16 0.22 0.32 0.38 0.26 0.21 0.17 0.10 0.10 0.11 0.04 0.03 0.02 0.04 0.01 0.03 0.03 0.03 0.04 0.07 0.12 0.12 0.05 0.03 0.03 0.03 0.05 0.07 0.04 0.06 0.07 0.07 0.03 0.00 0.00 0.00 0.00 0.00 0.00 0.00 0.00 0.00 0.00 0.00 0.00 0.00 0.00 0.00 0.01 0.02 0.03 0.05 0.05 0.07
0.13 0.12 0.11 0.09 0.04 0.05 0.19 0.07 0.00 0.00 0.03 0.02 0.04 0.03 0.01 0.02 0.03 0.03 0.03 0.07 0.07 0.04 0.02 0.00 0.01 0.01 0.02 0.03 0.03 0.02 0.03 0.01 0.02 0.02 0.02 0.00 0.00 0.00 0.01 0.00 0.00 0.01 0.02 0.02 0.02 0.01 0.01 0.01 0.01 0.03 0.04 0.04 0.05 0.08
0.18 0.21 0.11 0.06 0.01 0.00 0.02 0.00 0.00 0.00 0.01 0.01 0.02 0.02 0.01 0.04 0.02 0.01 0.01 0.01 0.02 0.03 0.05 0.05 0.04 0.03 0.02 0.03 0.03 0.03 0.04 0.02 0.02 0.04 0.08 0.02 0.00 0.00 0.01 0.00 0.00 0.00 0.01 0.01 0.01 0.01 0.01 0.02 0.03 0.03 0.02 0.03 0.05 0.08
0.14 0.11 0.02 0.00 0.00 0.00 0.00 0.00 0.00 0.00 0.01 0.01 0.00 0.00 0.01 0.00 0.00 0.01 0.00 0.00 0.01 0.03 0.04 0.04 0.04 0.04 0.03 0.02 0.02 0.02 0.03 0.04 0.04 0.02 0.04 0.08 0.03 0.01 0.01 0.02 0.04 0.02 0.02 0.02 0.02 0.03 0.02 0.03 0.05 0.04 0.04 0.05 0.06 0.07
0.08 0.04 0.00 0.00 0.00 0.00 0.00 0.00 0.00 0.00 0.00 0.02 0.03 0.01 0.01 0.01 0.01 0.01 0.00 0.00 0.03 0.06 0.06 0.06 0.06 0.05 0.05 0.03 0.03 0.04 0.04 0.05 0.02 0.01 0.01 0.02 0.07 0.04 0.02 0.03 0.02 0.04 0.04 0.04 0.04 0.04 0.05 0.06 0.05 0.05 0.05 0.07 0.07 0.08
0.01 0.01 0.02 0.00 0.00 0.00 0.02 0.10 0.03 0.03 0.01 0.02 0.00 0.00 0.01 0.01 0.02 0.01 0.02 0.03 0.07 0.09 0.10 0.10 0.10 0.07 0.05 0.04 0.03 0.02 0.01 0.00 0.01 0.02 0.01 0.01 0.02 0.03 0.03 0.04 0.03 0.04 0.05 0.08 0.07 0.07 0.08 0.08 0.08 0.07 0.08 0.07 0.07 0.07
0.01 0.02 0.03 0.01 0.00 0.02 0.03 0.01 0.01 0.01 0.03 0.01 0.01 0.02 0.03 0.02 0.02 0.02 0.05 0.07 0.09 0.07 0.06 0.09 0.08 0.09 0.04 0.01 0.02 0.02 0.03 0.02 0.01 0.02 0.02 0.01 0.01 0.03 0.02 0.04 0.05 0.06 0.06 0.07 0.08 0.08 0.08 0.07 0.07 0.06 0.06 0.05 0.05 0.05
0.00 0.00 0.00 0.00 0.00 0.00 0.00 0.01 0.01 0.01 0.03 0.02 0.01 0.04 0.07 0.05 0.02 0.03 0.04 0.08 0.05 0.04 0.04 0.04 0.03 0.01 0.02 0.03 0.02 0.02 0.03 0.02 0.01 0.01 0.05 0.04 0.02 0.03 0.04 0.05 0.06 0.08 0.06 0.05 0.06 0.06 0.07 0.05 0.04 0.03 0.03 0.02 0.02 0.02
0.00 0.00 0.00 0.00 0.00 0.00 0.00 0.01 0.01 0.00 0.00 0.00 0.01 0.02 0.01 0.00 0.00 0.02 0.02 0.03 0.02 0.02 0.02 0.02 0.03 0.02 0.02 0.02 0.02 0.02 0.03 0.02 0.00 0.01 0.04 0.05 0.05 0.03 0.04 0.05 0.05 0.08 0.07 0.03 0.03 0.03 0.02 0.01 0.01 0.00 0.00 0.00 0.00 0.00
0.00 0.00 0.00 0.00 0.00 0.00 0.00 0.00 0.00 0.00 0.00 0.01 0.01 0.00 0.00 0.00 0.01 0.03 0.03 0.02 0.02 0.02 0.01 0.01 0.00 0.01 0.02 0.03 0.04 0.04 0.03 0.01 0.01 0.03 0.05 0.04 0.04 0.04 0.04 0.04 0.06 0.09 0.05 0.03 0.02 0.01 0.00 0.00 0.00 0.00 0.00 0.00 0.00 0.00
0.00 0.00 0.00 0.00 0.00 0.00 0.00 0.00 0.00 0.00 0.01 0.01 0.00 0.00 0.01 0.01 0.03 0.04 0.03 0.04 0.05 0.04 0.02 0.02 0.01 0.00 0.01 0.02 0.03 0.03 0.04 0.04 0.02 0.02 0.01 0.02 0.03 0.03 0.04 0.04 0.05 0.04 0.03 0.02 0.02 0.01 0.00 0.00 0.00 0.00 0.00 0.00 0.00 0.00
0.00 0.00 0.00 0.00 0.00 0.00 0.00 0.00 0.01 0.01 0.01 0.01 0.00 0.01 0.02 0.05 0.08 0.05 0.05 0.02 0.01 0.00 0.00 0.02 0.05 0.03 0.01 0.01 0.01 0.03 0.03 0.04 0.04 0.02 0.02 0.03 0.03 0.05 0.05 0.03 0.02 0.02 0.02 0.02 0.02 0.01 0.01 0.01 0.00 0.00 0.00 0.00 0.00 0.00
0.00 0.00 0.00 0.00 0.00 0.01 0.04 0.01 0.01 0.00 0.00 0.00 0.00 0.01 0.02 0.05 0.06 0.02 0.01 0.01 0.01 0.01 0.01 0.01 0.01 0.00 0.01 0.01 0.01 0.01 0.02 0.02 0.02 0.02 0.02 0.03 0.05 0.06 0.04 0.03 0.02 0.01 0.01 0.01 0.01 0.02 0.01 0.00 0.00 0.00 0.00 0.00 0.00 0.00
0.00 0.00 0.00 0.00 0.02 0.02 0.01 0.01 0.01 0.00 0.00 0.00 0.00 0.00 0.01 0.02 0.02 0.01 0.01 0.02 0.01 0.01 0.00 0.00 0.00 0.00 0.00 0.00 0.01 0.01 0.01 0.01 0.01 0.02 0.02 0.03 0.02 0.02 0.02 0.02 0.02 0.01 0.00 0.00 0.00 0.00 0.00 0.00 0.00 0.00 0.00 0.00 0.00 0.00
0.00 0.00 0.00 0.01 0.03 0.02 0.03 0.02 0.01 0.01 0.01 0.00 0.01 0.01 0.02 0.01 0.01 0.01 0.02 0.02 0.00 0.00 0.00 0.00 0.00 0.00 0.00 0.00 0.00 0.00 0.00 0.00 0.00 0.00 0.00 0.00 0.00 0.00 0.00 0.00 0.00 0.00 0.00 0.00 0.00 0.00 0.00 0.00 0.00 0.00 0.00 0.00 0.00 0.00
0.00 0.00 0.00 0.00 0.01 0.01 0.01 0.02 0.00 0.01 0.01 0.00 0.01 0.01 0.01 0.00 0.01 0.01 0.01 0.00 0.00 0.00 0.00 0.00 0.00 0.00 0.00 0.00 0.00 0.00 0.00 0.00 0.00 0.00 0.00 0.00 0.00 0.00 0.00 0.00 0.00 0.00 0.00 0.00 0.00 0.00 0.00 0.00 0.00 0.00 0.00 0.00 0.00 0.00

GFSWCAN_prec_precacc12_117.txt.gz
Total_Precipitation_Accumulation
0.04 0.03 0.02 0.02 0.02 0.02 0.03 0.02 0.02 0.01 0.01 0.01 0.02 0.05 0.08 0.08 0.11 0.04 0.00 0.00 0.04 0.07 0.01 0.00 0.00 0.00 0.00 0.00 0.00 0.02 0.01 0.07 0.10 0.12 0.05 0.04 0.11 0.14 0.17 0.07 0.30 0.57 0.53 0.23 0.22 0.12 0.01 0.02 0.12 0.17 0.12 0.13 0.20 0.37
0.05 0.04 0.04 0.03 0.03 0.02 0.02 0.03 0.03 0.02 0.01 0.01 0.01 0.02 0.04 0.04 0.09 0.12 0.02 0.00 0.02 0.08 0.02 0.00 0.00 0.00 0.00 0.00 0.00 0.00 0.01 0.07 0.22 0.31 0.27 0.15 0.09 0.13 0.09 0.16 0.48 0.76 0.65 0.35 0.05 0.00 0.01 0.03 0.14 0.23 0.14 0.12 0.07 0.01
0.06 0.05 0.05 0.04 0.03 0.02 0.02 0.02 0.03 0.03 0.02 0.02 0.02 0.02 0.02 0.01 0.06 0.16 0.05 0.00 0.10 0.18 0.03 0.00 0.00 0.00 0.00 0.00 0.00 0.00 0.00 0.00 0.01 0.03 0.07 0.03 0.05 0.07 0.03 0.11 0.25 0.50 0.59 0.70 0.17 0.04 0.01 0.02 0.05 0.15 0.27 0.23 0.02 0.01
0.07 0.06 0.05 0.04 0.03 0.02 0.02 0.02 0.03 0.02 0.02 0.02 0.02 0.03 0.03 0.05 0.06 0.11 0.06 0.02 0.03 0.10 0.07 0.00 0.00 0.00 0.00 0.00 0.00 0.00 0.00 0.00 0.00 0.02 0.03 0.02 0.01 0.01 0.01 0.01 0.16 0.51 0.43 0.56 0.72 0.90 0.54 0.18 0.12 0.02 0.01 0.01 0.02 0.01
0.08 0.08 0.06 0.04 0.03 0.02 0.02 0.03 0.03 0.03 0.03 0.02 0.03 0.02 0.04 0.07 0.12 0.14 0.05 0.02 0.01 0.03 0.04 0.00 0.00 0.00 0.00 0.00 0.00 0.00 0.00 0.00 0.00 0.03 0.07 0.05 0.01 0.02 0.00 0.00 0.15 0.17 0.20 0.46 0.74 0.69 0.89 0.53 0.49 0.17 0.07 0.04 0.08 0.03
0.11 0.07 0.06 0.05 0.03 0.02 0.02 0.02 0.02 0.04 0.04 0.04 0.05 0.04 0.04 0.07 0.16 0.18 0.21 0.03 0.01 0.02 0.17 0.04 0.00 0.00 0.00 0.00 0.00 0.00 0.00 0.00 0.00 0.01 0.03 0.01 0.00 0.07 0.11 0.05 0.01 0.01 0.05 0.21 0.20 0.35 0.46 0.62 0.35 0.10 0.12 0.23 0.13 0.04
0.11 0.08 0.05 0.05 0.04 0.03 0.03 0.03 0.02 0.04 0.06 0.09 0.10 0.08 0.07 0.12 0.17 0.27 0.13 0.01 0.01 0.03 0.23 0.05 0.00 0.00 0.00 0.00 0.00 0.00 0.00 0.00 0.00 0.04 0.03 0.00 0.00 0.10 0.06 0.00 0.00 0.00 0.00 0.04 0.02 0.02 0.03 0.03 0.03 0.03 0.08 0.18 0.09 0.01
0.08 0.08 0.08 0.05 0.04 0.04 0.03 0.03 0.03 0.05 0.09 0.17 0.21 0.20 0.16 0.20 0.32 0.20 0.06 0.06 0.03 0.04 0.03 0.02 0.00 0.00 0.00 0.00 0.00 0.00 0.02 0.10 0.11 0.07 0.05 0.02 0.04 0.09 0.11 0.04 0.00 0.00 0.00 0.00 0.00 0.01 0.01 0.01 0.01 0.02 0.03 0.04 0.00 0.00
0.09 0.11 0.12 0.10 0.06 0.05 0.05 0.05 0.05 0.05 0.08 0.26 0.48 0.51 0.64 0.70 0.50 0.09 0.07 0.21 0.16 0.06 0.02 0.01 0.01 0.00 0.01 0.05 0.04 0.18 0.29 0.28 0.13 0.11 0.03 0.09 0.08 0.16 0.09 0.02 0.00 0.00 0.00 0.00 0.00 0.00 0.00 0.00 0.00 0.00 0.00 0.00 0.00 0.00
0.09 0.13 0.17 0.15 0.12 0.09 0.08 0.09 0.08 0.10 0.27 0.82 1.24 1.02 0.70 0.27 0.04 0.08 0.34 0.58 0.70 0.38 0.12 0.04 0.00 0.00 0.02 0.06 0.21 0.33 0.41 0.18 0.09 0.04 0.06 0.09 0.11 0.08 0.03 0.01 0.01 0.01 0.00 0.00 0.00 0.00 0.00 0.00 0.00 0.00 0.00 0.00 0.00 0.00
0.12 0.14 0.18 0.16 0.16 0.12 0.09 0.11 0.17 0.43 1.01 1.38 0.78 0.21 0.04 0.04 0.09 0.27 0.32 0.20 0.21 0.20 0.03 0.00 0.00 0.00 0.00 0.01 0.03 0.06 0.17 0.15 0.03 0.01 0.07 0.06 0.13 0.07 0.02 0.02 0.00 0.00 0.00 0.00 0.00 0.00 0.00 0.01 0.00 0.00 0.00 0.00 0.00 0.00
0.10 0.09 0.13 0.13 0.16 0.14 0.10 0.15 0.30 0.65 0.67 0.30 0.07 0.16 0.30 0.23 0.25 0.23 0.18 0.05 0.02 0.00 0.00 0.00 0.00 0.00 0.00 0.01 0.01 0.02 0.04 0.02 0.00 0.03 0.14 0.08 0.06 0.03 0.00 0.01 0.00 0.00 0.00 0.00 0.00 0.00 0.00 0.00 0.00 0.00 0.00 0.01 0.01 0.02
0.07 0.07 0.10 0.11 0.12 0.15 0.17 0.19 0.23 0.31 0.28 0.31 0.33 0.40 0.33 0.17 0.15 0.07 0.09 0.02 0.00 0.00 0.00 0.00 0.00 0.00 0.01 0.01 0.02 0.02 0.01 0.00 0.00 0.01 0.02 0.04 0.03 0.01 0.00 0.00 0.00 0.00 0.00 0.00 0.00 0.00 0.00 0.00 0.00 0.00 0.01 0.02 0.03 0.03
0.09 0.09 0.12 0.14 0.14 0.19 0.24 0.22 0.35 0.70 0.58 0.59 0.37 0.30 0.08 0.03 0.02 0.00 0.00 0.00 0.00 0.00 0.00 0.00 0.00 0.00 0.02 0.02 0.03 0.03 0.00 0.01 0.02 0.02 0.02 0.03 0.01 0.00 0.00 0.00 0.00 0.00 0.00 0.00 0.00 0.00 0.00 0.00 0.00 0.00 0.01 0.02 0.02 0.03
0.12 0.14 0.20 0.21 0.25 0.29 0.26 0.33 0.59 0.55 0.56 0.50 0.05 0.00 0.01 0.00 0.00 0.00 0.00 0.00 0.00 0.00 0.00 0.00 0.00 0.01 0.01 0.04 0.02 0.00 0.00 0.01 0.02 0.01 0.02 0.01 0.00 0.00 0.00 0.00 0.00 0.00 0.00 0.00 0.00 0.00 0.00 0.00 0.00 0.01 0.02 0.02 0.02 0.03
0.22 0.47 0.45 0.39 0.41 0.42 0.52 0.76 0.53 0.37 0.31 0.12 0.01 0.01 0.02 0.00 0.01 0.01 0.01 0.00 0.00 0.00 0.01 0.04 0.02 0.01 0.02 0.01 0.01 0.00 0.01 0.02 0.02 0.01 0.01 0.00 0.00 0.00 0.00 0.00 0.00 0.00 0.00 0.00 0.00 0.00 0.00 0.00 0.00 0.01 0.01 0.02 0.03 0.03
0.40 0.60 0.41 0.44 0.51 0.60 0.64 0.47 0.35 0.38 0.21 0.02 0.02 0.04 0.02 0.01 0.03 0.03 0.02 0.02 0.02 0.02 0.02 0.02 0.00 0.01 0.02 0.03 0.04 0.02 0.03 0.03 0.03 0.01 0.00 0.00 0.00 0.00 0.00 0.00 0.00 0.00 0.00 0.00 0.00 0.00 0.00 0.00 0.00 0.00 0.01 0.03 0.03 0.04
0.31 0.31 0.42 0.47 0.48 0.48 0.40 0.31 0.26 0.22 0.06 0.02 0.02 0.04 0.01 0.02 0.02 0.03 0.03 0.06 0.11 0.11 0.04 0.01 0.01 0.01 0.02 0.03 0.02 0.03 0.05 0.06 0.02 0.00 0.00 0.00 0.00 0.00 0.00 0.00 0.00 0.00 0.00 0.00 0.00 0.00 0.00 0.00 0.00 0.01 0.01 0.03 0.03 0.04
0.22 0.18 0.15 0.10 0.07 0.10 0.31 0.19 0.03 0.01 0.03 0.01 0.03 0.03 0.01 0.02 0.03 0.03 0.03 0.07 0.07 0.05 0.03 0.02 0.02 0.00 0.01 0.02 0.02 0.02 0.02 0.01 0.01 0.01 0.01 0.00 0.00 0.00 0.00 0.00 0.00 0.00 0.00 0.01 0.01 0.00 0.00 0.00 0.00 0.01 0.02 0.02 0.03 0.05
0.25 0.27 0.15 0.06 0.01 0.00 0.04 0.01 0.00 0.00 0.01 0.01 0.01 0.01 0.01 0.03 0.03 0.01 0.01 0.02 0.03 0.06 0.08 0.06 0.03 0.02 0.01 0.02 0.02 0.02 0.03 0.02 0.01 0.01 0.02 0.01 0.01 0.01 0.01 0.00 0.00 0.00 0.00 0.01 0.01 0.00 0.00 0.01 0.02 0.01 0.01 0.02 0.04 0.06
0.27 0.21 0.04 0.01 0.00 0.00 0.00 0.00 0.00 0.00 0.00 0.00 0.00 0.00 0.00 0.00 0.01 0.02 0.00 0.00 0.01 0.03 0.04 0.03 0.04 0.04 0.04 0.02 0.02 0.02 0.02 0.03 0.03 0.01 0.02 0.04 0.03 0.01 0.01 0.01 0.02 0.02 0.01 0.01 0.01 0.02 0.01 0.02 0.03 0.03 0.03 0.04 0.05 0.06
0.12 0.05 0.01 0.00 0.00 0.00 0.00 0.00 0.00 0.00 0.00 0.02 0.02 0.00 0.00 0.00 0.00 0.00 0.00 0.00 0.02 0.05 0.04 0.04 0.04 0.04 0.03 0.02 0.03 0.04 0.04 0.03 0.01 0.00 0.00 0.01 0.04 0.02 0.01 0.02 0.01 0.02 0.03 0.03 0.03 0.03 0.03 0.04 0.04 0.04 0.04 0.06 0.06 0.07
0.01 0.01 0.02 0.00 0.00 0.00 0.01 0.09 0.02 0.01 0.00 0.01 0.00 0.00 0.00 0.00 0.01 0.00 0.00 0.01 0.03 0.06 0.07 0.07 0.07 0.05 0.03 0.03 0.03 0.02 0.01 0.00 0.00 0.01 0.00 0.01 0.01 0.01 0.01 0.01 0.01 0.02 0.03 0.05 0.05 0.05 0.05 0.06 0.06 0.06 0.06 0.06 0.06 0.07
0.01 0.03 0.05 0.02 0.00 0.03 0.03 0.02 0.00 0.00 0.01 0.00 0.00 0.01 0.01 0.01 0.01 0.00 0.02 0.03 0.05 0.05 0.05 0.07 0.07 0.05 0.01 0.01 0.02 0.02 0.02 0.01 0.00 0.01 0.01 0.00 0.00 0.02 0.01 0.01 0.02 0.03 0.03 0.04 0.04 0.04 0.05 0.05 0.05 0.05 0.05 0.05 0.05 0.05
0.02 0.02 0.01 0.00 0.00 0.00 0.00 0.00 0.00 0.00 0.01 0.01 0.01 0.03 0.06 0.02 0.01 0.01 0.02 0.04 0.03 0.04 0.04 0.03 0.02 0.01 0.02 0.03 0.02 0.03 0.02 0.01 0.01 0.01 0.02 0.02 0.01 0.02 0.02 0.03 0.03 0.04 0.02 0.02 0.03 0.03 0.04 0.04 0.04 0.03 0.03 0.03 0.03 0.03
0.01 0.01 0.00 0.00 0.00 0.00 0.00 0.00 0.00 0.00 0.00 0.00 0.01 0.02 0.01 0.00 0.00 0.01 0.02 0.02 0.02 0.02 0.02 0.01 0.01 0.00 0.01 0.01 0.01 0.01 0.02 0.02 0.00 0.01 0.03 0.03 0.02 0.02 0.02 0.03 0.03 0.06 0.06 0.02 0.02 0.02 0.02 0.01 0.01 0.01 0.01 0.01 0.01 0.01
0.00 0.00 0.00 0.00 0.00 0.00 0.00 0.00 0.00 0.00 0.00 0.00 0.01 0.00 0.00 0.00 0.00 0.02 0.02 0.02 0.01 0.01 0.01 0.01 0.00 0.00 0.01 0.02 0.03 0.04 0.03 0.02 0.01 0.02 0.04 0.04 0.03 0.03 0.02 0.02 0.04 0.06 0.06 0.04 0.02 0.01 0.01 0.00 0.00 0.00 0.00 0.00 0.00 0.00
0.00 0.00 0.00 0.00 0.00 0.00 0.00 0.00 0.00 0.00 0.01 0.01 0.00 0.00 0.00 0.00 0.02 0.03 0.02 0.03 0.03 0.01 0.01 0.01 0.00 0.00 0.01 0.01 0.02 0.02 0.02 0.02 0.01 0.01 0.01 0.02 0.02 0.02 0.03 0.04 0.05 0.04 0.02 0.02 0.02 0.02 0.01 0.00 0.00 0.00 0.00 0.00 0.00 0.00
0.00 0.00 0.00 0.00 0.00 0.00 0.00 0.00 0.01 0.01 0.01 0.00 0.00 0.00 0.01 0.04 0.06 0.04 0.04 0.02 0.01 0.00 0.00 0.01 0.02 0.01 0.00 0.01 0.01 0.02 0.02 0.02 0.02 0.01 0.01 0.02 0.01 0.03 0.03 0.02 0.02 0.02 0.03 0.03 0.03 0.02 0.01 0.01 0.01 0.01 0.01 0.01 0.01 0.00
0.00 0.00 0.00 0.00 0.00 0.01 0.02 0.01 0.01 0.00 0.00 0.00 0.00 0.01 0.01 0.05 0.06 0.02 0.01 0.01 0.00 0.00 0.00 0.00 0.00 0.00 0.00 0.00 0.01 0.01 0.02 0.01 0.01 0.01 0.01 0.02 0.03 0.04 0.03 0.03 0.01 0.01 0.01 0.01 0.02 0.02 0.02 0.01 0.01 0.01 0.01 0.01 0.01 0.00
0.00 0.00 0.00 0.00 0.02 0.02 0.01 0.00 0.00 0.00 0.00 0.00 0.00 0.00 0.01 0.02 0.02 0.01 0.00 0.00 0.00 0.00 0.00 0.00 0.00 0.00 0.00 0.00 0.00 0.00 0.00 0.00 0.01 0.01 0.01 0.02 0.02 0.02 0.02 0.01 0.01 0.01 0.00 0.00 0.00 0.00 0.00 0.00 0.00 0.00 0.00 0.00 0.00 0.00
0.00 0.00 0.00 0.01 0.02 0.01 0.01 0.00 0.00 0.00 0.00 0.00 0.00 0.00 0.01 0.00 0.00 0.01 0.02 0.01 0.00 0.00 0.00 0.00 0.00 0.00 0.00 0.00 0.00 0.00 0.00 0.00 0.00 0.00 0.00 0.00 0.00 0.00 0.00 0.00 0.00 0.00 0.00 0.00 0.00 0.00 0.00 0.00 0.00 0.00 0.00 0.00 0.00 0.00
0.00 0.00 0.00 0.00 0.01 0.01 0.01 0.01 0.00 0.00 0.00 0.00 0.01 0.01 0.01 0.00 0.00 0.01 0.01 0.00 0.00 0.00 0.00 0.00 0.00 0.00 0.00 0.00 0.00 0.00 0.00 0.00 0.00 0.00 0.00 0.00 0.00 0.00 0.00 0.00 0.00 0.00 0.00 0.00 0.00 0.00 0.00 0.00 0.00 0.00 0.00 0.00 0.00 0.00

GFSWCAN_prec_precacc12_123.txt.gz
Total_Precipitation_Accumulation
0.15 0.08 0.04 0.03 0.03 0.04 0.06 0.05 0.04 0.04 0.06 0.01 0.00 0.01 0.02 0.03 0.04 0.01 0.00 0.00 0.01 0.02 0.00 0.00 0.00 0.00 0.00 0.00 0.00 0.00 0.00 0.00 0.00 0.03 0.04 0.03 0.07 0.12 0.20 0.16 0.32 0.42 0.34 0.36 0.38 0.30 0.23 0.07 0.12 0.17 0.14 0.18 0.33 0.84
0.18 0.11 0.07 0.03 0.03 0.03 0.03 0.04 0.05 0.04 0.04 0.02 0.01 0.01 0.02 0.01 0.03 0.04 0.02 0.00 0.02 0.05 0.01 0.00 0.00 0.00 0.00 0.00 0.00 0.00 0.00 0.01 0.01 0.03 0.04 0.07 0.05 0.05 0.09 0.13 0.25 0.43 0.65 0.63 0.26 0.19 0.14 0.03 0.07 0.09 0.15 0.25 0.34 0.21
0.15 0.16 0.08 0.05 0.03 0.02 0.02 0.02 0.03 0.04 0.03 0.02 0.02 0.02 0.02 0.01 0.06 0.10 0.06 0.01 0.08 0.16 0.02 0.00 0.00 0.00 0.00 0.00 0.00 0.00 0.00 0.00 0.01 0.09 0.16 0.09 0.03 0.01 0.05 0.09 0.14 0.19 0.36 0.76 0.48 0.33 0.19 0.11 0.08 0.11 0.34 0.32 0.08 0.08
0.12 0.13 0.10 0.05 0.03 0.02 0.02 0.02 0.02 0.02 0.02 0.02 0.03 0.04 0.02 0.02 0.08 0.07 0.08 0.04 0.04 0.09 0.04 0.00 0.00 0.00 0.00 0.00 0.00 0.00 0.00 0.00 0.01 0.05 0.08 0.05 0.03 0.02 0.01 0.03 0.13 0.29 0.18 0.22 0.55 0.54 0.41 0.28 0.31 0.29 0.20 0.15 0.22 0.08
0.10 0.13 0.10 0.08 0.04 0.02 0.03 0.03 0.02 0.03 0.02 0.02 0.03 0.03 0.02 0.02 0.10 0.13 0.06 0.03 0.01 0.05 0.06 0.00 0.00 0.00 0.00 0.00 0.00 0.00 0.00 0.00 0.01 0.03 0.06 0.05 0.02 0.04 0.01 0.02 0.25 0.12 0.16 0.39 0.53 0.69 0.80 0.73 0.90 0.54 0.31 0.12 0.11 0.02
0.10 0.11 0.10 0.09 0.08 0.06 0.04 0.03 0.02 0.03 0.04 0.03 0.04 0.04 0.02 0.04 0.12 0.13 0.13 0.02 0.01 0.03 0.12 0.02 0.00 0.00 0.00 0.00 0.00 0.00 0.00 0.00 0.01 0.02 0.03 0.02 0.01 0.08 0.09 0.06 0.05 0.00 0.12 0.32 0.27 0.40 0.56 0.70 0.38 0.13 0.13 0.24 0.13 0.04
0.09 0.10 0.10 0.09 0.09 0.08 0.06 0.04 0.03 0.03 0.04 0.05 0.04 0.05 0.05 0.06 0.07 0.13 0.10 0.03 0.01 0.06 0.17 0.03 0.00 0.00 0.00 0.00 0.00 0.00 0.00 0.00 0.00 0.03 0.03 0.01 0.01 0.14 0.08 0.01 0.01 0.00 0.02 0.05 0.02 0.01 0.03 0.01 0.03 0.01 0.06 0.14 0.09 0.01
0.08 0.10 0.12 0.09 0.08 0.07 0.06 0.04 0.04 0.03 0.04 0.05 0.05 0.06 0.09 0.10 0.13 0.13 0.06 0.04 0.05 0.08 0.05 0.01 0.00 0.00 0.00 0.03 0.04 0.00 0.01 0.03 0.06 0.05 0.06 0.03 0.08 0.13 0.11 0.03 0.00 0.00 0.00 0.01 0.00 0.00 0.02 0.01 0.01 0.01 0.00 0.00 0.00 0.00
0.10 0.12 0.13 0.13 0.09 0.08 0.06 0.05 0.04 0.05 0.05 0.05 0.11 0.18 0.31 0.30 0.20 0.08 0.05 0.09 0.17 0.10 0.07 0.01 0.00 0.01 0.01 0.09 0.10 0.16 0.30 0.24 0.11 0.11 0.04 0.12 0.12 0.16 0.07 0.01 0.01 0.00 0.00 0.00 0.00 0.00 0.00 0.00 0.00 0.00 0.00 0.00 0.00 0.00
0.11 0.12 0.13 0.13 0.11 0.10 0.08 0.05 0.04 0.06 0.09 0.25 0.49 0.47 0.38 0.12 0.03 0.09 0.31 0.31 0.35 0.23 0.10 0.04 0.00 0.00 0.01 0.08 0.20 0.10 0.29 0.24 0.15 0.06 0.09 0.12 0.11 0.05 0.02 0.02 0.01 0.01 0.00 0.00 0.00 0.00 0.00 0.00 0.00 0.00 0.00 0.00 0.00 0.00
0.09 0.09 0.10 0.12 0.11 0.09 0.08 0.05 0.05 0.10 0.41 0.72 0.48 0.15 0.05 0.06 0.14 0.24 0.25 0.20 0.16 0.15 0.03 0.01 0.00 0.00 0.00 0.00 0.02 0.03 0.18 0.25 0.14 0.08 0.14 0.13 0.10 0.04 0.02 0.02 0.01 0.00 0.00 0.00 0.00 0.00 0.00 0.00 0.00 0.00 0.00 0.00 0.00 0.01
0.08 0.08 0.08 0.11 0.12 0.10 0.07 0.07 0.13 0.40 0.50 0.22 0.11 0.14 0.36 0.30 0.25 0.16 0.09 0.06 0.03 0.01 0.00 0.00 0.00 0.00 0.00 0.00 0.01 0.03 0.09 0.10 0.08 0.05 0.12 0.09 0.04 0.02 0.00 0.01 0.00 0.00 0.00 0.00 0.00 0.00 0.00 0.00 0.00 0.00 0.00 0.01 0.01 0.02
0.08 0.07 0.09 0.11 0.12 0.12 0.11 0.13 0.24 0.26 0.25 0.34 0.41 0.37 0.50 0.23 0.15 0.04 0.03 0.02 0.00 0.00 0.00 0.00 0.00 0.00 0.01 0.02 0.02 0.03 0.04 0.03 0.01 0.01 0.03 0.03 0.02 0.01 0.00 0.00 0.00 0.00 0.00 0.00 0.00 0.00 0.00 0.00 0.00 0.00 0.01 0.01 0.01 0.02
0.10 0.11 0.13 0.14 0.15 0.14 0.16 0.22 0.29 0.41 0.53 0.62 0.50 0.34 0.15 0.09 0.01 0.00 0.00 0.00 0.00 0.00 0.00 0.00 0.00 0.01 0.03 0.03 0.04 0.06 0.03 0.02 0.03 0.03 0.02 0.02 0.01 0.00 0.00 0.00 0.00 0.00 0.00 0.00 0.00 0.00 0.00 0.00 0.00 0.00 0.00 0.01 0.01 0.01
0.13 0.15 0.21 0.19 0.18 0.17 0.17 0.27 0.41 0.49 0.55 0.64 0.28 0.12 0.01 0.01 0.00 0.00 0.00 0.00 0.00 0.00 0.00 0.00 0.01 0.02 0.04 0.08 0.04 0.03 0.03 0.02 0.02 0.02 0.01 0.01 0.00 0.00 0.00 0.00 0.00 0.00 0.00 0.00 0.00 0.00 0.00 0.00 0.00 0.00 0.01 0.01 0.01 0.01
0.18 0.33 0.33 0.20 0.15 0.18 0.34 0.68 0.68 0.49 0.43 0.33 0.16 0.07 0.02 0.00 0.01 0.01 0.01 0.00 0.00 0.01 0.03 0.07 0.05 0.03 0.06 0.04 0.05 0.03 0.02 0.01 0.02 0.01 0.01 0.00 0.00 0.00 0.00 0.00 0.00 0.00 0.00 0.00 0.00 0.00 0.00 0.00 0.00 0.00 0.00 0.00 0.01 0.01
0.34 0.32 0.20 0.22 0.29 0.53 0.75 0.80 0.48 0.46 0.34 0.14 0.05 0.02 0.01 0.01 0.02 0.02 0.01 0.01 0.01 0.02 0.05 0.05 0.02 0.03 0.04 0.04 0.02 0.01 0.01 0.02 0.02 0.01 0.00 0.00 0.00 0.00 0.00 0.00 0.00 0.00 0.00 0.00 0.00 0.00 0.00 0.00 0.00 0.00 0.00 0.01 0.01 0.01
0.26 0.17 0.30 0.37 0.52 0.70 0.61 0.47 0.30 0.25 0.12 0.03 0.02 0.03 0.01 0.02 0.01 0.02 0.02 0.02 0.05 0.06 0.05 0.05 0.03 0.02 0.02 0.03 0.02 0.01 0.01 0.02 0.01 0.00 0.01 0.01 0.01 0.00 0.00 0.00 0.00 0.00 0.00 0.00 0.00 0.00 0.00 0.00 0.00 0.00 0.01 0.01 0.01 0.01
0.22 0.15 0.11 0.11 0.17 0.18 0.34 0.30 0.10 0.05 0.04 0.02 0.03 0.03 0.02 0.02 0.03 0.03 0.03 0.05 0.06 0.05 0.04 0.03 0.03 0.02 0.01 0.01 0.01 0.01 0.01 0.01 0.01 0.01 0.01 0.01 0.01 0.01 0.01 0.00 0.01 0.01 0.01 0.00 0.01 0.00 0.00 0.01 0.00 0.00 0.00 0.01 0.01 0.02
0.33 0.28 0.19 0.09 0.03 0.03 0.07 0.08 0.01 0.01 0.03 0.02 0.01 0.02 0.02 0.03 0.04 0.05 0.04 0.04 0.06 0.11 0.12 0.08 0.04 0.01 0.01 0.01 0.01 0.02 0.02 0.02 0.01 0.02 0.01 0.01 0.01 0.01 0.01 0.01 0.01 0.01 0.01 0.01 0.01 0.00 0.01 0.00 0.00 0.01 0.01 0.01 0.02 0.03
0.47 0.40 0.19 0.10 0.06 0.04 0.02 0.03 0.00 0.00 0.01 0.03 0.02 0.01 0.02 0.02 0.03 0.06 0.05 0.02 0.04 0.03 0.03 0.02 0.03 0.03 0.03 0.03 0.03 0.02 0.03 0.02 0.02 0.01 0.01 0.01 0.02 0.01 0.01 0.01 0.01 0.01 0.01 0.01 0.01 0.01 0.01 0.01 0.01 0.02 0.02 0.03 0.04 0.04
0.31 0.24 0.18 0.05 0.03 0.02 0.00 0.01 0.00 0.00 0.01 0.01 0.01 0.01 0.02 0.02 0.02 0.01 0.01 0.02 0.02 0.03 0.03 0.02 0.03 0.03 0.02 0.02 0.02 0.02 0.02 0.01 0.00 0.00 0.00 0.00 0.01 0.01 0.01 0.01 0.01 0.01 0.01 0.01 0.01 0.01 0.01 0.02 0.02 0.03 0.04 0.04 0.04 0.05
0.09 0.07 0.05 0.05 0.07 0.05 0.02 0.04 0.03 0.00 0.00 0.01 0.00 0.00 0.01 0.01 0.00 0.00 0.01 0.01 0.02 0.03 0.03 0.03 0.03 0.02 0.01 0.02 0.01 0.01 0.00 0.00 0.00 0.00 0.01 0.00 0.01 0.01 0.01 0.00 0.00 0.01 0.01 0.01 0.01 0.01 0.02 0.02 0.02 0.03 0.04 0.04 0.04 0.05
0.03 0.08 0.11 0.06 0.05 0.07 0.04 0.03 0.01 0.00 0.00 0.00 0.00 0.01 0.00 0.00 0.00 0.00 0.00 0.01 0.02 0.03 0.03 0.04 0.03 0.02 0.01 0.01 0.02 0.02 0.02 0.01 0.01 0.00 0.01 0.00 0.00 0.01 0.00 0.01 0.01 0.01 0.01 0.01 0.01 0.01 0.02 0.02 0.02 0.02 0.02 0.03 0.03 0.04
0.10 0.08 0.04 0.03 0.02 0.01 0.00 0.00 0.00 0.00 0.01 0.00 0.00 0.01 0.01 0.00 0.00 0.00 0.01 0.02 0.02 0.03 0.03 0.02 0.02 0.02 0.03 0.03 0.03 0.03 0.02 0.01 0.01 0.01 0.01 0.01 0.01 0.01 0.01 0.01 0.01 0.01 0.01 0.01 0.01 0.02 0.01 0.02 0.02 0.02 0.02 0.02 0.02 0.03
0.04 0.02 0.01 0.01 0.00 0.00 0.00 0.00 0.00 0.00 0.00 0.00 0.01 0.01 0.00 0.00 0.00 0.00 0.01 0.01 0.02 0.03 0.03 0.02 0.01 0.01 0.01 0.01 0.01 0.01 0.01 0.01 0.00 0.01 0.02 0.02 0.01 0.02 0.02 0.01 0.02 0.02 0.03 0.02 0.02 0.02 0.01 0.01 0.01 0.01 0.02 0.02 0.01 0.02
0.00 0.00 0.00 0.00 0.00 0.00 0.00 0.00 0.00 0.00 0.00 0.00 0.01 0.00 0.00 0.00 0.00 0.01 0.02 0.01 0.01 0.01 0.01 0.01 0.00 0.00 0.00 0.01 0.01 0.02 0.02 0.01 0.01 0.02 0.02 0.02 0.02 0.02 0.02 0.02 0.02 0.03 0.03 0.04 0.03 0.03 0.02 0.01 0.01 0.00 0.01 0.01 0.01 0.01
0.00 0.00 0.00 0.00 0.00 0.00 0.00 0.00 0.00 0.00 0.00 0.00 0.00 0.01 0.00 0.00 0.01 0.02 0.02 0.02 0.01 0.00 0.01 0.01 0.01 0.00 0.00 0.01 0.01 0.01 0.01 0.01 0.01 0.01 0.01 0.01 0.01 0.01 0.02 0.02 0.03 0.02 0.02 0.03 0.03 0.03 0.03 0.02 0.02 0.01 0.01 0.01 0.01 0.00
0.00 0.00 0.00 0.00 0.00 0.00 0.00 0.00 0.00 0.01 0.01 0.00 0.00 0.01 0.01 0.01 0.03 0.03 0.03 0.02 0.01 0.00 0.00 0.00 0.00 0.01 0.00 0.00 0.01 0.01 0.01 0.01 0.01 0.00 0.00 0.01 0.01 0.01 0.01 0.01 0.01 0.01 0.02 0.03 0.03 0.02 0.02 0.02 0.02 0.02 0.02 0.02 0.02 0.02
0.00 0.00 0.00 0.00 0.00 0.01 0.01 0.02 0.01 0.01 0.00 0.00 0.00 0.00 0.01 0.03 0.04 0.02 0.02 0.01 0.01 0.01 0.01 0.00 0.00 0.00 0.01 0.00 0.01 0.00 0.01 0.00 0.00 0.00 0.01 0.00 0.01 0.01 0.01 0.01 0.00 0.01 0.01 0.01 0.02 0.03 0.02 0.02 0.02 0.02 0.02 0.02 0.02 0.02
0.00 0.00 0.00 0.00 0.01 0.02 0.01 0.00 0.00 0.00 0.00 0.00 0.00 0.00 0.01 0.02 0.02 0.01 0.00 0.00 0.00 0.00 0.00 0.00 0.00 0.00 0.00 0.00 0.00 0.01 0.01 0.00 0.00 0.00 0.00 0.00 0.00 0.01 0.00 0.01 0.00 0.00 0.01 0.00 0.00 0.00 0.00 0.00 0.00 0.00 0.00 0.00 0.00 0.00
0.00 0.00 0.00 0.00 0.01 0.01 0.01 0.00 0.00 0.00 0.00 0.00 0.00 0.01 0.00 0.00 0.00 0.01 0.00 0.00 0.00 0.00 0.00 0.00 0.00 0.00 0.00 0.00 0.00 0.00 0.00 0.00 0.00 0.00 0.00 0.00 0.00 0.00 0.00 0.00 0.00 0.00 0.00 0.00 0.01 0.00 0.00 0.00 0.00 0.00 0.00 0.00 0.00 0.00
0.00 0.00 0.00 0.00 0.01 0.01 0.01 0.01 0.00 0.00 0.00 0.00 0.00 0.01 0.00 0.00 0.00 0.01 0.01 0.01 0.00 0.00 0.00 0.00 0.00 0.00 0.00 0.00 0.00 0.00 0.00 0.00 0.00 0.00 0.00 0.00 0.00 0.00 0.00 0.00 0.00 0.00 0.00 0.00 0.00 0.01 0.01 0.01 0.00 0.00 0.00 0.00 0.00 0.00

GFSWCAN_prec_precacc12_126.txt.gz
Total_Precipitation_Accumulation
0.15 0.07 0.04 0.03 0.03 0.04 0.06 0.05 0.04 0.04 0.06 0.01 0.00 0.00 0.00 0.01 0.02 0.00 0.00 0.00 0.01 0.01 0.00 0.00 0.00 0.00 0.00 0.00 0.00 0.01 0.01 0.01 0.00 0.01 0.04 0.04 0.06 0.05 0.16 0.16 0.30 0.37 0.23 0.31 0.37 0.44 0.46 0.12 0.11 0.25 0.30 0.17 0.29 0.77
0.17 0.11 0.06 0.03 0.03 0.03 0.04 0.04 0.05 0.04 0.04 0.02 0.01 0.01 0.00 0.00 0.02 0.00 0.02 0.00 0.02 0.03 0.01 0.00 0.00 0.00 0.00 0.00 0.00 0.00 0.00 0.00 0.01 0.03 0.06 0.08 0.07 0.04 0.08 0.13 0.19 0.31 0.53 0.64 0.41 0.34 0.30 0.16 0.15 0.17 0.15 0.27 0.39 0.31
0.16 0.16 0.08 0.05 0.03 0.02 0.02 0.02 0.03 0.04 0.03 0.02 0.02 0.02 0.01 0.00 0.04 0.03 0.04 0.01 0.05 0.08 0.01 0.00 0.00 0.00 0.00 0.00 0.00 0.00 0.00 0.00 0.01 0.10 0.16 0.11 0.04 0.02 0.05 0.08 0.09 0.10 0.25 0.58 0.54 0.38 0.22 0.21 0.12 0.15 0.23 0.33 0.18 0.14
0.14 0.20 0.14 0.07 0.03 0.02 0.02 0.02 0.02 0.03 0.02 0.02 0.02 0.03 0.01 0.02 0.07 0.04 0.08 0.04 0.04 0.07 0.03 0.00 0.00 0.00 0.00 0.00 0.00 0.00 0.00 0.00 0.00 0.04 0.07 0.05 0.03 0.02 0.01 0.03 0.07 0.23 0.15 0.13 0.50 0.49 0.39 0.29 0.33 0.34 0.28 0.22 0.28 0.10
0.11 0.19 0.22 0.12 0.06 0.03 0.03 0.02 0.01 0.02 0.02 0.02 0.03 0.03 0.02 0.02 0.08 0.11 0.08 0.06 0.02 0.05 0.06 0.00 0.00 0.00 0.00 0.00 0.00 0.00 0.00 0.00 0.01 0.03 0.05 0.04 0.02 0.04 0.01 0.02 0.24 0.10 0.13 0.31 0.40 0.61 0.63 0.64 0.85 0.54 0.30 0.10 0.09 0.02
0.08 0.19 0.23 0.17 0.10 0.06 0.04 0.03 0.02 0.02 0.03 0.03 0.04 0.04 0.02 0.04 0.11 0.10 0.06 0.02 0.01 0.03 0.08 0.02 0.00 0.00 0.00 0.00 0.00 0.00 0.00 0.00 0.01 0.03 0.03 0.02 0.01 0.07 0.08 0.04 0.07 0.00 0.11 0.29 0.22 0.37 0.42 0.49 0.31 0.12 0.08 0.18 0.11 0.02
0.06 0.11 0.19 0.16 0.10 0.08 0.06 0.03 0.03 0.02 0.03 0.04 0.04 0.04 0.04 0.05 0.07 0.05 0.04 0.04 0.01 0.06 0.12 0.03 0.00 0.00 0.00 0.00 0.00 0.00 0.00 0.00 0.01 0.04 0.03 0.01 0.01 0.13 0.08 0.02 0.04 0.00 0.02 0.04 0.02 0.01 0.02 0.00 0.02 0.01 0.00 0.03 0.03 0.01
0.05 0.07 0.14 0.12 0.09 0.07 0.07 0.04 0.05 0.04 0.04 0.05 0.05 0.04 0.07 0.09 0.10 0.05 0.03 0.03 0.05 0.07 0.06 0.02 0.00 0.01 0.00 0.04 0.06 0.01 0.00 0.03 0.05 0.04 0.04 0.03 0.08 0.13 0.09 0.02 0.00 0.00 0.00 0.01 0.00 0.00 0.01 0.01 0.01 0.01 0.00 0.00 0.00 0.00
0.08 0.09 0.10 0.13 0.08 0.08 0.06 0.04 0.05 0.05 0.04 0.04 0.05 0.10 0.18 0.17 0.12 0.07 0.02 0.07 0.18 0.11 0.08 0.02 0.01 0.04 0.02 0.13 0.19 0.17 0.19 0.14 0.07 0.09 0.03 0.09 0.10 0.15 0.05 0.01 0.00 0.00 0.00 0.00 0.00 0.00 0.00 0.00 0.00 0.00 0.00 0.00 0.00 0.00
0.10 0.10 0.11 0.14 0.12 0.11 0.09 0.05 0.04 0.06 0.07 0.10 0.17 0.19 0.20 0.08 0.03 0.05 0.19 0.24 0.28 0.19 0.10 0.03 0.00 0.01 0.01 0.11 0.19 0.10 0.14 0.19 0.18 0.06 0.08 0.10 0.09 0.04 0.01 0.01 0.01 0.00 0.00 0.00 0.00 0.00 0.00 0.00 0.00 0.00 0.00 0.00 0.00 0.01
0.09 0.08 0.09 0.13 0.16 0.14 0.14 0.06 0.04 0.07 0.15 0.21 0.23 0.12 0.07 0.05 0.10 0.18 0.24 0.17 0.08 0.08 0.03 0.01 0.00 0.00 0.00 0.01 0.03 0.05 0.13 0.23 0.16 0.14 0.15 0.16 0.12 0.03 0.01 0.02 0.00 0.00 0.00 0.00 0.00 0.00 0.00 0.00 0.00 0.00 0.00 0.00 0.00 0.01
0.08 0.07 0.09 0.13 0.20 0.18 0.15 0.05 0.05 0.14 0.16 0.10 0.11 0.10 0.29 0.25 0.19 0.14 0.11 0.07 0.04 0.01 0.00 0.00 0.00 0.00 0.01 0.00 0.02 0.05 0.10 0.12 0.10 0.09 0.11 0.10 0.04 0.02 0.00 0.00 0.00 0.00 0.00 0.00 0.00 0.00 0.00 0.00 0.00 0.00 0.00 0.00 0.01 0.01
0.08 0.08 0.09 0.12 0.19 0.19 0.12 0.05 0.08 0.07 0.11 0.31 0.38 0.23 0.40 0.20 0.15 0.04 0.03 0.03 0.01 0.00 0.00 0.00 0.01 0.01 0.02 0.01 0.03 0.04 0.05 0.05 0.05 0.04 0.04 0.03 0.01 0.00 0.00 0.00 0.00 0.00 0.00 0.00 0.00 0.00 0.00 0.00 0.00 0.00 0.00 0.01 0.01 0.01
0.08 0.08 0.08 0.10 0.16 0.17 0.08 0.08 0.10 0.17 0.43 0.51 0.44 0.27 0.16 0.12 0.01 0.00 0.00 0.00 0.00 0.00 0.01 0.01 0.00 0.01 0.04 0.03 0.04 0.05 0.04 0.02 0.04 0.03 0.04 0.01 0.01 0.00 0.00 0.00 0.00 0.00 0.00 0.00 0.00 0.00 0.00 0.00 0.00 0.00 0.00 0.01 0.01 0.01
0.07 0.08 0.11 0.11 0.16 0.15 0.09 0.13 0.21 0.37 0.46 0.56 0.31 0.18 0.02 0.03 0.04 0.03 0.02 0.01 0.00 0.02 0.02 0.01 0.02 0.04 0.07 0.09 0.04 0.04 0.06 0.04 0.04 0.05 0.02 0.01 0.00 0.00 0.00 0.00 0.00 0.00 0.00 0.00 0.00 0.00 0.00 0.00 0.00 0.00 0.00 0.00 0.01 0.01
0.12 0.24 0.20 0.12 0.16 0.16 0.19 0.48 0.68 0.55 0.41 0.34 0.19 0.15 0.07 0.03 0.03 0.01 0.01 0.02 0.01 0.04 0.07 0.11 0.08 0.03 0.08 0.05 0.09 0.04 0.04 0.04 0.04 0.01 0.01 0.00 0.00 0.00 0.00 0.00 0.00 0.00 0.00 0.00 0.00 0.00 0.00 0.00 0.00 0.00 0.01 0.01 0.00 0.01
0.33 0.37 0.15 0.12 0.17 0.33 0.57 0.96 0.60 0.45 0.31 0.15 0.07 0.06 0.06 0.03 0.03 0.02 0.01 0.01 0.00 0.03 0.07 0.08 0.05 0.04 0.09 0.09 0.05 0.03 0.03 0.02 0.01 0.01 0.01 0.01 0.01 0.00 0.00 0.00 0.00 0.00 0.00 0.00 0.00 0.00 0.00 0.00 0.00 0.01 0.01 0.01 0.01 0.02
0.28 0.16 0.17 0.20 0.44 0.68 0.72 0.58 0.30 0.21 0.11 0.03 0.02 0.04 0.01 0.01 0.01 0.02 0.01 0.01 0.02 0.04 0.07 0.07 0.06 0.07 0.06 0.07 0.08 0.02 0.01 0.01 0.01 0.01 0.01 0.01 0.01 0.00 0.00 0.01 0.00 0.00 0.01 0.01 0.00 0.01 0.02 0.01 0.00 0.01 0.01 0.01 0.01 0.02
0.22 0.13 0.09 0.14 0.22 0.25 0.43 0.36 0.12 0.05 0.03 0.02 0.02 0.02 0.01 0.02 0.02 0.02 0.02 0.03 0.04 0.04 0.04 0.04 0.06 0.06 0.04 0.01 0.01 0.02 0.01 0.01 0.02 0.01 0.01 0.01 0.01 0.01 0.01 0.01 0.01 0.02 0.01 0.01 0.01 0.01 0.01 0.01 0.01 0.01 0.01 0.01 0.02 0.03
0.25 0.18 0.14 0.11 0.07 0.10 0.09 0.09 0.01 0.01 0.03 0.02 0.01 0.02 0.01 0.03 0.04 0.05 0.05 0.05 0.08 0.15 0.16 0.08 0.05 0.01 0.01 0.02 0.02 0.02 0.02 0.02 0.02 0.03 0.04 0.02 0.01 0.01 0.02 0.01 0.01 0.01 0.01 0.01 0.02 0.01 0.00 0.01 0.01 0.01 0.01 0.02 0.03 0.04
0.47 0.39 0.24 0.16 0.08 0.05 0.02 0.03 0.00 0.00 0.01 0.03 0.03 0.01 0.03 0.02 0.04 0.06 0.06 0.05 0.08 0.06 0.04 0.02 0.02 0.03 0.03 0.03 0.03 0.03 0.02 0.02 0.01 0.02 0.03 0.03 0.01 0.01 0.01 0.01 0.01 0.01 0.01 0.01 0.01 0.01 0.01 0.01 0.01 0.01 0.02 0.03 0.04 0.04
0.32 0.29 0.26 0.07 0.03 0.03 0.01 0.01 0.00 0.00 0.00 0.02 0.02 0.02 0.04 0.05 0.04 0.02 0.02 0.05 0.04 0.03 0.03 0.03 0.03 0.02 0.02 0.02 0.02 0.02 0.01 0.00 0.00 0.00 0.00 0.00 0.01 0.01 0.01 0.01 0.01 0.01 0.01 0.01 0.01 0.02 0.02 0.01 0.01 0.02 0.03 0.03 0.03 0.04
0.10 0.08 0.04 0.04 0.06 0.05 0.03 0.03 0.04 0.01 0.01 0.01 0.01 0.01 0.01 0.02 0.01 0.00 0.02 0.01 0.02 0.02 0.03 0.03 0.03 0.02 0.01 0.02 0.01 0.01 0.00 0.00 0.00 0.01 0.01 0.01 0.01 0.01 0.01 0.01 0.01 0.01 0.01 0.01 0.01 0.01 0.01 0.01 0.01 0.02 0.03 0.03 0.04 0.04
0.03 0.08 0.09 0.06 0.06 0.07 0.04 0.04 0.02 0.01 0.01 0.01 0.01 0.01 0.00 0.01 0.00 0.00 0.01 0.01 0.02 0.02 0.03 0.03 0.02 0.02 0.01 0.01 0.02 0.02 0.02 0.01 0.01 0.01 0.01 0.01 0.01 0.01 0.01 0.01 0.01 0.01 0.01 0.01 0.01 0.01 0.01 0.02 0.01 0.02 0.02 0.03 0.03 0.03
0.14 0.10 0.06 0.05 0.03 0.04 0.03 0.02 0.01 0.00 0.01 0.00 0.00 0.01 0.01 0.00 0.00 0.00 0.01 0.02 0.02 0.04 0.03 0.02 0.02 0.02 0.05 0.04 0.03 0.02 0.02 0.01 0.01 0.01 0.01 0.01 0.01 0.02 0.02 0.01 0.01 0.01 0.01 0.02 0.02 0.02 0.01 0.02 0.02 0.01 0.02 0.02 0.02 0.03
0.11 0.04 0.02 0.02 0.01 0.01 0.01 0.01 0.00 0.00 0.00 0.01 0.01 0.01 0.00 0.00 0.00 0.00 0.01 0.02 0.03 0.04 0.04 0.03 0.02 0.01 0.02 0.01 0.02 0.02 0.02 0.01 0.01 0.01 0.01 0.01 0.01 0.02 0.02 0.02 0.04 0.03 0.02 0.02 0.03 0.02 0.02 0.01 0.01 0.01 0.02 0.02 0.01 0.02
0.05 0.03 0.00 0.00 0.00 0.00 0.00 0.00 0.00 0.00 0.00 0.00 0.01 0.00 0.00 0.00 0.00 0.01 0.02 0.01 0.02 0.02 0.01 0.01 0.00 0.00 0.01 0.01 0.01 0.02 0.02 0.01 0.01 0.02 0.02 0.01 0.01 0.01 0.02 0.02 0.02 0.03 0.02 0.03 0.03 0.04 0.04 0.02 0.01 0.01 0.01 0.02 0.01 0.01
0.01 0.00 0.00 0.00 0.00 0.00 0.00 0.00 0.00 0.00 0.00 0.00 0.00 0.00 0.00 0.00 0.02 0.02 0.02 0.02 0.01 0.01 0.00 0.00 0.00 0.01 0.01 0.01 0.01 0.02 0.01 0.01 0.01 0.01 0.01 0.01 0.01 0.01 0.01 0.02 0.02 0.02 0.02 0.03 0.02 0.03 0.03 0.03 0.03 0.02 0.01 0.01 0.01 0.01
0.00 0.00 0.00 0.00 0.00 0.00 0.00 0.00 0.00 0.01 0.01 0.01 0.01 0.01 0.01 0.01 0.03 0.03 0.03 0.02 0.01 0.00 0.01 0.01 0.01 0.01 0.01 0.01 0.01 0.01 0.01 0.01 0.02 0.01 0.01 0.03 0.03 0.02 0.01 0.01 0.01 0.01 0.02 0.04 0.03 0.02 0.02 0.02 0.02 0.03 0.03 0.03 0.03 0.03
0.00 0.00 0.00 0.00 0.00 0.01 0.01 0.01 0.02 0.01 0.01 0.00 0.00 0.00 0.01 0.02 0.04 0.03 0.02 0.02 0.02 0.02 0.01 0.01 0.01 0.01 0.01 0.01 0.01 0.01 0.01 0.01 0.00 0.01 0.01 0.01 0.01 0.01 0.01 0.01 0.01 0.01 0.01 0.02 0.02 0.03 0.02 0.02 0.03 0.03 0.02 0.02 0.03 0.02
0.00 0.00 0.00 0.00 0.01 0.02 0.02 0.01 0.01 0.01 0.01 0.01 0.00 0.00 0.01 0.02 0.02 0.01 0.02 0.01 0.01 0.00 0.01 0.01 0.01 0.01 0.01 0.01 0.01 0.01 0.01 0.00 0.00 0.00 0.00 0.00 0.00 0.01 0.01 0.01 0.00 0.00 0.01 0.01 0.01 0.01 0.00 0.00 0.01 0.01 0.01 0.00 0.00 0.00
0.00 0.00 0.00 0.00 0.01 0.01 0.02 0.02 0.01 0.01 0.01 0.00 0.01 0.01 0.01 0.01 0.00 0.01 0.00 0.00 0.00 0.01 0.01 0.00 0.00 0.00 0.00 0.00 0.00 0.00 0.00 0.00 0.00 0.00 0.00 0.00 0.00 0.00 0.01 0.01 0.00 0.00 0.00 0.01 0.01 0.01 0.00 0.00 0.00 0.00 0.00 0.00 0.00 0.00
0.00 0.00 0.00 0.00 0.01 0.01 0.01 0.01 0.00 0.00 0.00 0.01 0.01 0.00 0.00 0.00 0.00 0.01 0.01 0.01 0.01 0.00 0.00 0.00 0.00 0.00 0.00 0.00 0.00 0.00 0.00 0.00 0.00 0.00 0.00 0.00 0.00 0.00 0.00 0.00 0.00 0.00 0.00 0.00 0.01 0.01 0.00 0.00 0.00 0.00 0.00 0.00 0.00 0.00

GFSWCAN_prec_precacc12_129.txt.gz
Total_Precipitation_Accumulation
0.17 0.08 0.04 0.03 0.02 0.03 0.05 0.04 0.03 0.04 0.06 0.00 0.00 0.00 0.00 0.00 0.01 0.00 0.00 0.00 0.01 0.01 0.00 0.00 0.00 0.00 0.00 0.00 0.00 0.01 0.01 0.01 0.00 0.01 0.04 0.04 0.05 0.04 0.08 0.12 0.19 0.27 0.16 0.25 0.31 0.39 0.50 0.13 0.08 0.26 0.33 0.16 0.23 0.59
0.18 0.11 0.05 0.02 0.02 0.02 0.03 0.03 0.04 0.04 0.04 0.02 0.00 0.00 0.00 0.00 0.01 0.00 0.01 0.00 0.02 0.02 0.01 0.00 0.00 0.00 0.00 0.00 0.00 0.00 0.00 0.00 0.01 0.03 0.06 0.08 0.07 0.04 0.06 0.09 0.11 0.20 0.37 0.56 0.45 0.44 0.38 0.22 0.24 0.26 0.25 0.28 0.44 0.44
0.17 0.16 0.06 0.04 0.02 0.02 0.02 0.03 0.03 0.04 0.03 0.01 0.01 0.01 0.00 0.00 0.02 0.02 0.02 0.01 0.03 0.03 0.01 0.00 0.00 0.00 0.00 0.00 0.00 0.00 0.00 0.00 0.01 0.08 0.10 0.09 0.04 0.02 0.04 0.06 0.07 0.08 0.17 0.39 0.54 0.46 0.23 0.32 0.18 0.22 0.27 0.27 0.20 0.17
0.17 0.19 0.13 0.06 0.03 0.02 0.02 0.02 0.02 0.03 0.02 0.01 0.01 0.02 0.01 0.00 0.05 0.03 0.07 0.03 0.02 0.04 0.02 0.00 0.00 0.00 0.00 0.00 0.00 0.00 0.00 0.00 0.00 0.03 0.06 0.04 0.03 0.01 0.01 0.03 0.03 0.19 0.13 0.07 0.36 0.38 0.25 0.25 0.33 0.35 0.29 0.22 0.27 0.10
0.15 0.20 0.22 0.10 0.05 0.03 0.02 0.02 0.01 0.02 0.01 0.01 0.02 0.02 0.01 0.01 0.05 0.08 0.09 0.06 0.02 0.05 0.06 0.00 0.00 0.00 0.00 0.00 0.00 0.00 0.00 0.00 0.01 0.03 0.05 0.03 0.01 0.02 0.01 0.02 0.23 0.08 0.09 0.15 0.23 0.33 0.32 0.34 0.44 0.38 0.25 0.08 0.05 0.01
0.08 0.21 0.26 0.17 0.09 0.06 0.04 0.03 0.02 0.01 0.01 0.01 0.02 0.03 0.01 0.03 0.08 0.09 0.03 0.02 0.01 0.03 0.04 0.01 0.00 0.00 0.00 0.00 0.00 0.00 0.00 0.00 0.01 0.03 0.03 0.02 0.01 0.06 0.06 0.04 0.07 0.00 0.07 0.11 0.07 0.08 0.17 0.11 0.05 0.04 0.01 0.01 0.01 0.00
0.03 0.14 0.27 0.25 0.14 0.09 0.06 0.03 0.03 0.01 0.02 0.02 0.03 0.04 0.04 0.04 0.06 0.05 0.04 0.04 0.01 0.05 0.06 0.02 0.00 0.00 0.00 0.00 0.00 0.00 0.00 0.01 0.01 0.04 0.02 0.01 0.01 0.10 0.07 0.02 0.05 0.00 0.02 0.01 0.00 0.00 0.01 0.00 0.01 0.00 0.00 0.00 0.00 0.00
0.03 0.07 0.22 0.28 0.18 0.11 0.07 0.04 0.04 0.03 0.02 0.04 0.04 0.05 0.05 0.06 0.08 0.05 0.03 0.01 0.02 0.05 0.04 0.02 0.00 0.01 0.00 0.04 0.06 0.01 0.00 0.00 0.01 0.02 0.03 0.03 0.07 0.11 0.08 0.02 0.00 0.00 0.00 0.01 0.00 0.00 0.01 0.01 0.01 0.00 0.00 0.00 0.00 0.00
0.04 0.06 0.15 0.29 0.17 0.11 0.07 0.04 0.04 0.04 0.03 0.04 0.05 0.08 0.11 0.11 0.09 0.08 0.02 0.01 0.09 0.09 0.08 0.02 0.01 0.05 0.02 0.12 0.25 0.22 0.10 0.07 0.05 0.06 0.02 0.07 0.09 0.13 0.04 0.01 0.00 0.00 0.00 0.00 0.00 0.00 0.00 0.00 0.00 0.00 0.00 0.00 0.00 0.00
0.06 0.07 0.10 0.21 0.15 0.11 0.09 0.03 0.03 0.03 0.05 0.08 0.09 0.08 0.10 0.04 0.03 0.04 0.06 0.07 0.12 0.12 0.08 0.03 0.00 0.01 0.01 0.11 0.19 0.07 0.10 0.10 0.16 0.05 0.05 0.07 0.07 0.03 0.00 0.00 0.00 0.00 0.00 0.00 0.00 0.00 0.00 0.00 0.00 0.00 0.00 0.00 0.00 0.00
0.07 0.07 0.07 0.14 0.19 0.15 0.13 0.04 0.03 0.05 0.12 0.12 0.07 0.08 0.08 0.04 0.09 0.12 0.10 0.10 0.05 0.06 0.02 0.01 0.00 0.00 0.00 0.01 0.05 0.06 0.09 0.15 0.16 0.16 0.16 0.17 0.13 0.02 0.00 0.00 0.00 0.00 0.00 0.00 0.00 0.00 0.00 0.00 0.00 0.00 0.00 0.00 0.00 0.00
0.08 0.07 0.06 0.10 0.21 0.19 0.15 0.05 0.04 0.12 0.12 0.05 0.08 0.08 0.18 0.15 0.12 0.08 0.09 0.06 0.04 0.01 0.00 0.00 0.00 0.00 0.01 0.01 0.02 0.05 0.08 0.10 0.11 0.11 0.19 0.13 0.04 0.01 0.00 0.00 0.00 0.00 0.00 0.00 0.00 0.00 0.00 0.00 0.00 0.00 0.00 0.00 0.00 0.01
0.08 0.08 0.07 0.10 0.23 0.24 0.15 0.05 0.06 0.04 0.04 0.16 0.26 0.10 0.24 0.13 0.13 0.04 0.03 0.03 0.01 0.00 0.01 0.00 0.01 0.01 0.02 0.02 0.03 0.04 0.04 0.05 0.07 0.09 0.05 0.03 0.01 0.00 0.00 0.00 0.00 0.00 0.00 0.00 0.00 0.00 0.00 0.00 0.00 0.00 0.00 0.00 0.00 0.00
0.08 0.08 0.07 0.10 0.25 0.28 0.13 0.07 0.06 0.08 0.16 0.21 0.32 0.18 0.13 0.12 0.01 0.00 0.00 0.00 0.00 0.00 0.02 0.01 0.00 0.01 0.03 0.02 0.03 0.04 0.04 0.03 0.05 0.04 0.05 0.01 0.00 0.00 0.00 0.00 0.00 0.00 0.00 0.00 0.00 0.00 0.00 0.00 0.00 0.00 0.00 0.00 0.01 0.01
0.07 0.08 0.10 0.13 0.29 0.30 0.11 0.08 0.12 0.13 0.17 0.31 0.29 0.19 0.02 0.03 0.05 0.04 0.04 0.02 0.01 0.03 0.04 0.01 0.02 0.04 0.08 0.08 0.03 0.05 0.07 0.04 0.05 0.06 0.03 0.01 0.00 0.00 0.00 0.00 0.00 0.00 0.00 0.00 0.00 0.00 0.00 0.00 0.00 0.00 0.00 0.00 0.01 0.01
0.10 0.19 0.16 0.14 0.29 0.27 0.12 0.27 0.42 0.29 0.20 0.24 0.19 0.16 0.08 0.04 0.03 0.01 0.02 0.03 0.02 0.07 0.12 0.12 0.08 0.03 0.08 0.05 0.10 0.05 0.06 0.07 0.07 0.01 0.01 0.00 0.00 0.00 0.00 0.00 0.00 0.00 0.00 0.00 0.00 0.00 0.00 0.00 0.00 0.01 0.01 0.02 0.00 0.01
0.17 0.22 0.13 0.15 0.28 0.30 0.33 0.72 0.44 0.29 0.25 0.14 0.07 0.06 0.08 0.07 0.05 0.02 0.01 0.01 0.00 0.05 0.10 0.12 0.09 0.05 0.10 0.11 0.07 0.06 0.06 0.03 0.02 0.01 0.01 0.01 0.01 0.00 0.00 0.01 0.00 0.00 0.00 0.00 0.00 0.00 0.01 0.01 0.00 0.01 0.01 0.01 0.01 0.02
0.19 0.07 0.07 0.20 0.59 0.63 0.54 0.39 0.16 0.12 0.10 0.03 0.02 0.05 0.01 0.03 0.02 0.02 0.01 0.00 0.01 0.02 0.07 0.12 0.09 0.09 0.07 0.08 0.12 0.07 0.04 0.02 0.01 0.01 0.01 0.01 0.01 0.00 0.00 0.01 0.01 0.00 0.01 0.01 0.00 0.01 0.03 0.01 0.00 0.01 0.01 0.01 0.01 0.02
0.17 0.08 0.16 0.38 0.35 0.27 0.35 0.30 0.12 0.05 0.04 0.02 0.01 0.01 0.01 0.01 0.01 0.01 0.01 0.02 0.02 0.03 0.03 0.04 0.08 0.08 0.05 0.01 0.02 0.05 0.04 0.02 0.02 0.01 0.01 0.01 0.01 0.00 0.01 0.01 0.02 0.04 0.01 0.01 0.01 0.01 0.01 0.02 0.01 0.01 0.00 0.01 0.02 0.03
0.16 0.12 0.16 0.15 0.08 0.12 0.09 0.12 0.04 0.02 0.02 0.02 0.01 0.01 0.01 0.02 0.02 0.04 0.05 0.04 0.07 0.15 0.17 0.09 0.05 0.02 0.02 0.02 0.02 0.02 0.01 0.01 0.02 0.04 0.06 0.03 0.00 0.01 0.01 0.01 0.01 0.01 0.01 0.02 0.03 0.01 0.00 0.00 0.00 0.01 0.01 0.01 0.02 0.03
0.36 0.30 0.24 0.17 0.12 0.09 0.02 0.04 0.03 0.01 0.01 0.03 0.02 0.01 0.03 0.02 0.03 0.05 0.06 0.06 0.10 0.08 0.05 0.02 0.02 0.03 0.03 0.02 0.02 0.02 0.02 0.02 0.01 0.03 0.05 0.04 0.01 0.01 0.01 0.01 0.01 0.01 0.01 0.01 0.02 0.01 0.01 0.01 0.01 0.01 0.02 0.02 0.03 0.03
0.40 0.35 0.37 0.09 0.05 0.03 0.01 0.01 0.00 0.00 0.00 0.01 0.02 0.02 0.04 0.05 0.05 0.03 0.02 0.06 0.05 0.02 0.03 0.03 0.02 0.03 0.02 0.02 0.02 0.01 0.01 0.00 0.00 0.00 0.00 0.01 0.01 0.01 0.01 0.01 0.01 0.02 0.01 0.01 0.01 0.02 0.02 0.01 0.00 0.02 0.02 0.02 0.02 0.02
0.16 0.15 0.06 0.05 0.06 0.05 0.03 0.02 0.04 0.01 0.01 0.01 0.01 0.01 0.02 0.02 0.01 0.00 0.03 0.02 0.02 0.02 0.03 0.02 0.02 0.03 0.02 0.02 0.01 0.00 0.00 0.01 0.00 0.01 0.01 0.00 0.01 0.01 0.01 0.01 0.01 0.01 0.02 0.01 0.00 0.01 0.01 0.01 0.01 0.01 0.02 0.02 0.03 0.04
0.04 0.07 0.07 0.05 0.06 0.07 0.04 0.04 0.02 0.01 0.01 0.01 0.01 0.01 0.01 0.01 0.00 0.01 0.02 0.02 0.02 0.02 0.02 0.02 0.01 0.02 0.01 0.02 0.02 0.02 0.02 0.01 0.01 0.01 0.01 0.02 0.01 0.01 0.01 0.01 0.01 0.01 0.00 0.03 0.02 0.02 0.01 0.02 0.01 0.02 0.02 0.03 0.02 0.03
0.13 0.09 0.05 0.05 0.04 0.04 0.03 0.02 0.01 0.01 0.02 0.01 0.01 0.01 0.01 0.00 0.01 0.01 0.02 0.02 0.02 0.04 0.03 0.02 0.03 0.03 0.06 0.03 0.02 0.01 0.01 0.02 0.01 0.01 0.01 0.01 0.01 0.03 0.03 0.02 0.01 0.01 0.01 0.03 0.03 0.03 0.02 0.02 0.02 0.01 0.02 0.02 0.02 0.02
0.11 0.04 0.02 0.03 0.01 0.01 0.01 0.01 0.00 0.00 0.00 0.01 0.01 0.01 0.00 0.00 0.01 0.01 0.01 0.02 0.03 0.03 0.04 0.03 0.02 0.02 0.03 0.02 0.02 0.01 0.01 0.01 0.01 0.01 0.01 0.01 0.01 0.02 0.03 0.04 0.06 0.04 0.01 0.02 0.03 0.03 0.05 0.02 0.01 0.01 0.02 0.02 0.01 0.02
0.05 0.03 0.00 0.00 0.00 0.00 0.00 0.00 0.00 0.00 0.00 0.00 0.01 0.01 0.00 0.01 0.01 0.01 0.02 0.02 0.02 0.02 0.01 0.01 0.01 0.01 0.01 0.01 0.01 0.01 0.01 0.01 0.01 0.01 0.01 0.00 0.00 0.01 0.01 0.02 0.02 0.02 0.01 0.03 0.03 0.04 0.04 0.04 0.02 0.01 0.02 0.03 0.02 0.01
0.04 0.01 0.00 0.00 0.00 0.00 0.00 0.00 0.00 0.00 0.00 0.00 0.00 0.01 0.01 0.01 0.02 0.03 0.02 0.02 0.01 0.01 0.00 0.00 0.00 0.01 0.00 0.01 0.01 0.02 0.01 0.01 0.01 0.01 0.01 0.01 0.00 0.01 0.01 0.02 0.01 0.01 0.02 0.04 0.02 0.02 0.03 0.03 0.03 0.03 0.02 0.02 0.01 0.01
0.01 0.01 0.01 0.00 0.00 0.00 0.00 0.00 0.00 0.00 0.00 0.01 0.02 0.01 0.01 0.01 0.04 0.03 0.02 0.01 0.01 0.00 0.01 0.01 0.01 0.01 0.01 0.00 0.01 0.00 0.01 0.02 0.02 0.02 0.01 0.05 0.04 0.02 0.01 0.01 0.01 0.01 0.01 0.04 0.04 0.01 0.01 0.01 0.02 0.02 0.02 0.03 0.03 0.03
0.00 0.00 0.00 0.00 0.00 0.00 0.01 0.01 0.02 0.01 0.01 0.00 0.00 0.00 0.01 0.02 0.04 0.03 0.02 0.02 0.02 0.03 0.02 0.01 0.01 0.01 0.01 0.01 0.01 0.01 0.01 0.01 0.00 0.01 0.02 0.02 0.02 0.01 0.01 0.01 0.01 0.01 0.01 0.01 0.02 0.03 0.01 0.01 0.02 0.03 0.02 0.02 0.03 0.02
0.00 0.00 0.00 0.00 0.01 0.02 0.02 0.02 0.01 0.01 0.01 0.01 0.01 0.00 0.01 0.02 0.02 0.01 0.04 0.03 0.02 0.01 0.01 0.01 0.01 0.01 0.01 0.02 0.02 0.01 0.01 0.00 0.00 0.00 0.00 0.00 0.00 0.00 0.01 0.01 0.00 0.00 0.01 0.01 0.01 0.01 0.00 0.00 0.01 0.01 0.01 0.00 0.00 0.00
0.01 0.01 0.00 0.01 0.02 0.02 0.02 0.02 0.02 0.01 0.01 0.01 0.01 0.01 0.01 0.01 0.01 0.01 0.00 0.00 0.00 0.01 0.01 0.00 0.01 0.01 0.01 0.00 0.00 0.00 0.00 0.00 0.00 0.00 0.00 0.00 0.00 0.00 0.01 0.01 0.00 0.00 0.00 0.01 0.01 0.01 0.00 0.00 0.00 0.00 0.00 0.00 0.00 0.00
0.01 0.01 0.01 0.00 0.01 0.02 0.02 0.02 0.01 0.01 0.01 0.01 0.01 0.00 0.01 0.01 0.01 0.02 0.00 0.01 0.01 0.01 0.00 0.01 0.00 0.00 0.00 0.00 0.00 0.00 0.00 0.00 0.00 0.00 0.00 0.00 0.00 0.00 0.00 0.00 0.00 0.00 0.00 0.00 0.01 0.00 0.00 0.00 0.00 0.00 0.00 0.00 0.00 0.00

GFSWCAN_prec_precacc12_132.txt.gz
Total_Precipitation_Accumulation
0.14 0.08 0.05 0.02 0.02 0.02 0.03 0.02 0.03 0.03 0.04 0.00 0.00 0.00 0.00 0.00 0.00 0.00 0.00 0.00 0.00 0.01 0.00 0.00 0.00 0.00 0.00 0.00 0.00 0.01 0.01 0.01 0.00 0.01 0.04 0.04 0.04 0.04 0.04 0.05 0.09 0.15 0.09 0.15 0.24 0.31 0.48 0.13 0.05 0.25 0.34 0.17 0.22 0.32
0.20 0.12 0.06 0.02 0.02 0.02 0.02 0.02 0.03 0.03 0.04 0.01 0.00 0.00 0.00 0.00 0.00 0.00 0.01 0.00 0.01 0.01 0.00 0.00 0.00 0.00 0.00 0.00 0.00 0.00 0.00 0.00 0.00 0.02 0.05 0.05 0.06 0.03 0.03 0.06 0.07 0.12 0.25 0.40 0.40 0.45 0.39 0.24 0.27 0.30 0.30 0.32 0.37 0.49
0.16 0.16 0.07 0.04 0.02 0.02 0.02 0.02 0.03 0.03 0.02 0.01 0.00 0.00 0.00 0.00 0.00 0.01 0.02 0.00 0.01 0.01 0.00 0.00 0.00 0.00 0.00 0.00 0.00 0.00 0.00 0.00 0.00 0.04 0.06 0.05 0.02 0.01 0.02 0.04 0.05 0.06 0.13 0.22 0.39 0.36 0.15 0.31 0.19 0.22 0.31 0.32 0.21 0.18
0.15 0.18 0.12 0.05 0.02 0.01 0.01 0.01 0.02 0.03 0.02 0.01 0.00 0.01 0.00 0.00 0.01 0.01 0.06 0.02 0.01 0.02 0.01 0.00 0.00 0.00 0.00 0.00 0.00 0.00 0.00 0.00 0.00 0.01 0.04 0.03 0.02 0.01 0.01 0.01 0.02 0.12 0.09 0.02 0.16 0.13 0.12 0.15 0.18 0.24 0.23 0.18 0.17 0.08
0.17 0.18 0.20 0.08 0.03 0.02 0.02 0.01 0.01 0.02 0.01 0.00 0.00 0.01 0.00 0.00 0.02 0.05 0.08 0.05 0.02 0.04 0.05 0.00 0.00 0.00 0.00 0.00 0.00 0.00 0.00 0.00 0.01 0.02 0.03 0.02 0.01 0.01 0.01 0.01 0.19 0.05 0.03 0.06 0.07 0.12 0.14 0.11 0.07 0.07 0.06 0.03 0.01 0.01
0.15 0.21 0.24 0.15 0.06 0.03 0.02 0.02 0.01 0.01 0.01 0.00 0.00 0.01 0.00 0.01 0.05 0.07 0.02 0.02 0.00 0.02 0.03 0.01 0.00 0.00 0.00 0.00 0.00 0.00 0.00 0.00 0.01 0.02 0.02 0.01 0.00 0.04 0.04 0.03 0.06 0.00 0.02 0.02 0.02 0.00 0.05 0.03 0.00 0.00 0.00 0.00 0.00 0.00
0.12 0.18 0.27 0.23 0.11 0.06 0.05 0.03 0.02 0.02 0.01 0.01 0.01 0.02 0.03 0.02 0.05 0.05 0.04 0.03 0.00 0.03 0.04 0.02 0.00 0.00 0.00 0.00 0.00 0.00 0.00 0.01 0.01 0.03 0.01 0.00 0.01 0.06 0.04 0.02 0.05 0.00 0.00 0.00 0.00 0.00 0.00 0.00 0.00 0.00 0.00 0.00 0.00 0.00
0.08 0.11 0.25 0.30 0.16 0.10 0.06 0.04 0.04 0.03 0.01 0.02 0.02 0.04 0.04 0.04 0.06 0.04 0.03 0.00 0.01 0.03 0.03 0.01 0.00 0.01 0.00 0.04 0.05 0.01 0.00 0.00 0.01 0.01 0.01 0.02 0.05 0.08 0.06 0.02 0.00 0.00 0.00 0.00 0.00 0.00 0.00 0.00 0.00 0.00 0.00 0.00 0.00 0.00
0.03 0.06 0.18 0.33 0.19 0.14 0.08 0.04 0.04 0.03 0.02 0.03 0.05 0.06 0.07 0.07 0.06 0.07 0.02 0.00 0.03 0.05 0.06 0.01 0.01 0.05 0.02 0.10 0.23 0.19 0.04 0.04 0.03 0.03 0.01 0.04 0.07 0.12 0.03 0.01 0.00 0.00 0.00 0.00 0.00 0.00 0.00 0.00 0.00 0.00 0.00 0.00 0.00 0.00
0.03 0.03 0.14 0.32 0.24 0.17 0.13 0.04 0.04 0.03 0.03 0.05 0.07 0.06 0.06 0.02 0.03 0.02 0.04 0.05 0.05 0.04 0.04 0.02 0.00 0.01 0.01 0.10 0.21 0.05 0.04 0.05 0.13 0.03 0.03 0.05 0.06 0.02 0.00 0.00 0.00 0.00 0.00 0.00 0.00 0.00 0.00 0.00 0.00 0.00 0.00 0.00 0.00 0.00
0.04 0.03 0.12 0.28 0.28 0.17 0.14 0.05 0.03 0.04 0.08 0.09 0.06 0.07 0.07 0.02 0.05 0.10 0.07 0.05 0.04 0.03 0.01 0.00 0.00 0.00 0.00 0.01 0.05 0.05 0.07 0.09 0.11 0.14 0.12 0.14 0.13 0.02 0.00 0.00 0.00 0.00 0.00 0.00 0.00 0.00 0.00 0.00 0.00 0.00 0.00 0.00 0.00 0.00
0.06 0.05 0.13 0.24 0.29 0.20 0.15 0.04 0.02 0.06 0.09 0.04 0.04 0.05 0.07 0.08 0.07 0.06 0.07 0.04 0.03 0.01 0.00 0.00 0.00 0.00 0.01 0.01 0.02 0.04 0.04 0.06 0.09 0.10 0.23 0.29 0.07 0.01 0.00 0.00 0.00 0.00 0.00 0.00 0.00 0.00 0.00 0.00 0.00 0.00 0.00 0.00 0.00 0.01
0.06 0.06 0.11 0.18 0.28 0.24 0.15 0.04 0.03 0.03 0.04 0.10 0.09 0.05 0.10 0.06 0.09 0.03 0.02 0.03 0.01 0.00 0.01 0.00 0.00 0.01 0.02 0.02 0.02 0.03 0.03 0.05 0.07 0.10 0.06 0.03 0.00 0.00 0.00 0.00 0.00 0.00 0.00 0.00 0.00 0.00 0.00 0.00 0.00 0.00 0.00 0.00 0.00 0.00
0.06 0.06 0.09 0.17 0.30 0.31 0.12 0.05 0.04 0.08 0.13 0.09 0.16 0.10 0.10 0.10 0.01 0.00 0.00 0.00 0.00 0.00 0.02 0.01 0.00 0.01 0.02 0.02 0.03 0.03 0.03 0.03 0.05 0.03 0.05 0.00 0.00 0.00 0.00 0.00 0.00 0.00 0.00 0.00 0.00 0.00 0.00 0.00 0.00 0.00 0.00 0.00 0.00 0.01
0.06 0.06 0.09 0.18 0.32 0.37 0.10 0.06 0.09 0.10 0.13 0.09 0.15 0.15 0.02 0.03 0.05 0.04 0.04 0.02 0.01 0.03 0.04 0.01 0.01 0.03 0.07 0.05 0.02 0.04 0.07 0.04 0.05 0.06 0.03 0.01 0.00 0.00 0.00 0.00 0.00 0.00 0.00 0.00 0.00 0.00 0.00 0.00 0.00 0.00 0.00 0.00 0.00 0.01
0.09 0.16 0.13 0.16 0.34 0.38 0.13 0.26 0.36 0.19 0.07 0.08 0.11 0.16 0.08 0.04 0.03 0.01 0.01 0.03 0.03 0.09 0.13 0.13 0.08 0.03 0.06 0.05 0.09 0.05 0.06 0.08 0.08 0.04 0.01 0.00 0.00 0.00 0.00 0.00 0.00 0.00 0.00 0.00 0.00 0.00 0.00 0.00 0.00 0.00 0.01 0.02 0.00 0.01
0.15 0.20 0.12 0.15 0.39 0.52 0.40 0.69 0.38 0.18 0.10 0.05 0.04 0.05 0.07 0.06 0.05 0.01 0.01 0.01 0.00 0.06 0.13 0.18 0.12 0.05 0.09 0.11 0.07 0.06 0.06 0.04 0.05 0.06 0.03 0.01 0.00 0.00 0.00 0.01 0.00 0.00 0.00 0.00 0.00 0.00 0.01 0.01 0.00 0.01 0.01 0.01 0.00 0.02
0.16 0.06 0.08 0.26 1.04 0.83 0.50 0.31 0.12 0.06 0.05 0.01 0.01 0.04 0.01 0.02 0.01 0.02 0.01 0.00 0.00 0.01 0.07 0.15 0.15 0.12 0.08 0.08 0.13 0.08 0.08 0.10 0.07 0.04 0.02 0.01 0.00 0.00 0.00 0.01 0.01 0.00 0.00 0.01 0.00 0.01 0.03 0.01 0.00 0.00 0.00 0.01 0.01 0.02
0.11 0.07 0.22 0.57 0.55 0.33 0.31 0.19 0.07 0.02 0.01 0.00 0.00 0.00 0.00 0.01 0.01 0.01 0.01 0.01 0.01 0.01 0.02 0.04 0.10 0.09 0.06 0.01 0.02 0.05 0.06 0.04 0.03 0.02 0.01 0.00 0.00 0.00 0.00 0.01 0.02 0.03 0.01 0.01 0.01 0.00 0.01 0.01 0.01 0.00 0.00 0.01 0.01 0.02
0.08 0.10 0.21 0.20 0.09 0.10 0.05 0.06 0.04 0.01 0.01 0.01 0.00 0.00 0.01 0.01 0.01 0.03 0.04 0.03 0.06 0.13 0.16 0.08 0.04 0.02 0.01 0.02 0.02 0.02 0.02 0.01 0.01 0.04 0.06 0.03 0.00 0.01 0.01 0.00 0.01 0.01 0.01 0.02 0.03 0.01 0.00 0.00 0.00 0.00 0.00 0.01 0.02 0.02
0.20 0.31 0.37 0.21 0.10 0.07 0.01 0.02 0.03 0.01 0.00 0.03 0.02 0.01 0.02 0.02 0.02 0.03 0.04 0.05 0.09 0.07 0.04 0.01 0.01 0.02 0.02 0.01 0.02 0.01 0.01 0.01 0.01 0.03 0.06 0.05 0.02 0.01 0.01 0.01 0.01 0.01 0.01 0.01 0.01 0.01 0.01 0.01 0.00 0.01 0.02 0.02 0.02 0.02
0.56 0.49 0.44 0.09 0.05 0.03 0.01 0.01 0.00 0.00 0.00 0.01 0.01 0.02 0.04 0.05 0.05 0.03 0.02 0.05 0.04 0.02 0.03 0.03 0.02 0.02 0.02 0.02 0.02 0.01 0.01 0.00 0.01 0.01 0.01 0.01 0.02 0.01 0.01 0.01 0.01 0.02 0.01 0.01 0.01 0.01 0.01 0.00 0.00 0.01 0.01 0.02 0.02 0.01
0.20 0.16 0.06 0.04 0.06 0.05 0.03 0.02 0.04 0.01 0.01 0.01 0.01 0.01 0.02 0.02 0.01 0.00 0.03 0.02 0.02 0.01 0.03 0.02 0.02 0.03 0.02 0.02 0.00 0.00 0.01 0.01 0.01 0.01 0.01 0.01 0.00 0.01 0.01 0.01 0.01 0.01 0.02 0.01 0.00 0.01 0.01 0.01 0.01 0.01 0.01 0.02 0.03 0.03
0.05 0.07 0.07 0.05 0.06 0.06 0.03 0.03 0.02 0.02 0.01 0.01 0.01 0.01 0.01 0.01 0.00 0.01 0.02 0.02 0.02 0.02 0.01 0.01 0.01 0.01 0.01 0.02 0.02 0.03 0.03 0.01 0.01 0.01 0.01 0.02 0.01 0.01 0.00 0.00 0.00 0.00 0.01 0.04 0.02 0.02 0.01 0.01 0.01 0.02 0.01 0.03 0.02 0.02
0.13 0.08 0.05 0.05 0.04 0.04 0.03 0.02 0.01 0.01 0.01 0.01 0.01 0.01 0.01 0.00 0.01 0.01 0.01 0.02 0.02 0.03 0.02 0.02 0.02 0.02 0.05 0.03 0.02 0.01 0.01 0.02 0.01 0.01 0.01 0.01 0.01 0.04 0.04 0.02 0.01 0.00 0.01 0.02 0.02 0.04 0.02 0.01 0.02 0.01 0.01 0.01 0.01 0.02
0.11 0.03 0.02 0.03 0.01 0.01 0.01 0.01 0.00 0.00 0.01 0.01 0.01 0.01 0.00 0.01 0.01 0.01 0.01 0.02 0.02 0.02 0.02 0.03 0.03 0.02 0.04 0.02 0.02 0.01 0.01 0.00 0.01 0.01 0.00 0.00 0.00 0.02 0.03 0.04 0.05 0.03 0.01 0.02 0.02 0.03 0.06 0.02 0.01 0.01 0.02 0.02 0.00 0.01
0.05 0.03 0.00 0.00 0.00 0.00 0.00 0.00 0.00 0.01 0.01 0.01 0.01 0.01 0.00 0.01 0.01 0.01 0.02 0.02 0.02 0.02 0.01 0.01 0.01 0.01 0.01 0.01 0.01 0.01 0.01 0.00 0.01 0.01 0.00 0.00 0.00 0.00 0.01 0.02 0.01 0.01 0.01 0.02 0.02 0.03 0.04 0.04 0.03 0.01 0.02 0.03 0.01 0.01
0.04 0.01 0.00 0.00 0.00 0.00 0.00 0.00 0.00 0.00 0.00 0.00 0.00 0.00 0.01 0.01 0.02 0.03 0.02 0.02 0.01 0.00 0.00 0.00 0.00 0.00 0.00 0.01 0.01 0.01 0.01 0.01 0.00 0.00 0.01 0.01 0.00 0.00 0.01 0.01 0.01 0.00 0.02 0.03 0.01 0.01 0.02 0.03 0.02 0.03 0.01 0.02 0.01 0.01
0.01 0.01 0.01 0.01 0.00 0.00 0.00 0.00 0.00 0.00 0.00 0.01 0.02 0.01 0.01 0.01 0.04 0.03 0.02 0.01 0.00 0.00 0.01 0.01 0.01 0.01 0.00 0.00 0.01 0.00 0.01 0.01 0.02 0.02 0.01 0.05 0.04 0.02 0.00 0.01 0.01 0.01 0.01 0.04 0.04 0.01 0.00 0.01 0.01 0.01 0.01 0.02 0.03 0.02
0.01 0.00 0.00 0.00 0.00 0.00 0.01 0.01 0.02 0.01 0.00 0.00 0.00 0.00 0.01 0.02 0.04 0.03 0.02 0.02 0.02 0.03 0.02 0.01 0.01 0.01 0.01 0.01 0.01 0.01 0.01 0.01 0.00 0.01 0.02 0.02 0.02 0.01 0.00 0.01 0.01 0.01 0.01 0.01 0.01 0.02 0.01 0.01 0.02 0.03 0.01 0.01 0.02 0.02
0.00 0.00 0.00 0.00 0.01 0.02 0.01 0.01 0.01 0.01 0.01 0.02 0.01 0.00 0.01 0.02 0.02 0.01 0.04 0.03 0.02 0.01 0.01 0.01 0.02 0.01 0.01 0.02 0.02 0.01 0.01 0.01 0.00 0.00 0.00 0.00 0.00 0.00 0.00 0.00 0.00 0.00 0.01 0.01 0.01 0.01 0.00 0.00 0.01 0.01 0.01 0.00 0.00 0.00
0.02 0.01 0.00 0.01 0.01 0.02 0.02 0.03 0.02 0.01 0.01 0.01 0.01 0.01 0.01 0.01 0.01 0.00 0.00 0.01 0.01 0.01 0.01 0.01 0.01 0.01 0.01 0.00 0.00 0.00 0.00 0.00 0.00 0.00 0.00 0.00 0.00 0.00 0.00 0.01 0.01 0.00 0.00 0.00 0.01 0.01 0.00 0.00 0.00 0.00 0.00 0.00 0.00 0.00
0.04 0.02 0.01 0.01 0.02 0.03 0.02 0.04 0.02 0.01 0.01 0.01 0.01 0.00 0.01 0.01 0.01 0.02 0.00 0.01 0.01 0.01 0.00 0.01 0.00 0.00 0.00 0.00 0.00 0.00 0.00 0.00 0.00 0.00 0.00 0.00 0.00 0.00 0.00 0.00 0.00 0.00 0.00 0.00 0.00 0.00 0.00 0.00 0.00 0.00 0.00 0.00 0.00 0.00

GFSWCAN_prec_precacc12_135.txt.gz
Total_Precipitation_Accumulation
0.18 0.13 0.08 0.03 0.01 0.01 0.02 0.01 0.01 0.01 0.00 0.00 0.00 0.00 0.00 0.00 0.00 0.00 0.00 0.00 0.00 0.00 0.00 0.00 0.00 0.00 0.00 0.00 0.00 0.01 0.01 0.01 0.00 0.00 0.02 0.02 0.03 0.02 0.02 0.02 0.05 0.08 0.03 0.04 0.12 0.19 0.29 0.09 0.04 0.17 0.31 0.16 0.18 0.21
0.14 0.10 0.05 0.02 0.01 0.02 0.02 0.01 0.02 0.02 0.01 0.00 0.00 0.00 0.00 0.00 0.00 0.00 0.01 0.00 0.00 0.00 0.00 0.00 0.00 0.00 0.00 0.00 0.00 0.00 0.00 0.00 0.00 0.01 0.02 0.02 0.02 0.02 0.01 0.03 0.03 0.04 0.13 0.20 0.26 0.30 0.28 0.22 0.26 0.31 0.31 0.29 0.29 0.36
0.12 0.08 0.04 0.02 0.01 0.01 0.01 0.01 0.02 0.02 0.01 0.00 0.00 0.00 0.00 0.00 0.00 0.00 0.00 0.00 0.00 0.00 0.00 0.00 0.00 0.00 0.00 0.00 0.00 0.00 0.00 0.00 0.00 0.01 0.01 0.02 0.01 0.00 0.01 0.02 0.02 0.02 0.08 0.06 0.19 0.21 0.06 0.25 0.16 0.18 0.23 0.27 0.19 0.11
0.14 0.14 0.07 0.04 0.01 0.01 0.01 0.01 0.02 0.02 0.01 0.00 0.00 0.00 0.00 0.00 0.00 0.00 0.03 0.01 0.00 0.01 0.00 0.00 0.00 0.00 0.00 0.00 0.00 0.00 0.00 0.00 0.00 0.00 0.01 0.01 0.01 0.00 0.00 0.00 0.01 0.07 0.06 0.01 0.07 0.06 0.05 0.11 0.08 0.08 0.10 0.09 0.06 0.03
0.16 0.16 0.17 0.06 0.02 0.02 0.02 0.01 0.01 0.01 0.01 0.00 0.00 0.00 0.00 0.00 0.00 0.01 0.04 0.04 0.02 0.02 0.03 0.00 0.00 0.00 0.00 0.00 0.00 0.00 0.00 0.00 0.00 0.01 0.01 0.01 0.00 0.00 0.00 0.01 0.11 0.02 0.01 0.03 0.03 0.08 0.09 0.08 0.02 0.00 0.00 0.00 0.00 0.00
0.16 0.20 0.22 0.13 0.04 0.02 0.02 0.01 0.01 0.01 0.01 0.00 0.00 0.00 0.00 0.00 0.02 0.03 0.01 0.01 0.00 0.00 0.00 0.00 0.00 0.00 0.00 0.00 0.00 0.00 0.00 0.00 0.01 0.01 0.01 0.00 0.00 0.02 0.03 0.01 0.03 0.00 0.00 0.00 0.00 0.00 0.04 0.02 0.00 0.00 0.00 0.00 0.00 0.00
0.13 0.17 0.24 0.22 0.09 0.04 0.02 0.01 0.02 0.02 0.01 0.00 0.00 0.01 0.01 0.01 0.03 0.03 0.02 0.02 0.00 0.00 0.02 0.01 0.00 0.00 0.00 0.00 0.00 0.00 0.00 0.00 0.01 0.02 0.01 0.00 0.00 0.02 0.02 0.01 0.04 0.00 0.00 0.00 0.00 0.00 0.00 0.00 0.00 0.00 0.00 0.00 0.00 0.00
0.11 0.12 0.22 0.27 0.14 0.07 0.04 0.03 0.04 0.03 0.01 0.01 0.01 0.03 0.02 0.02 0.03 0.03 0.02 0.00 0.00 0.01 0.02 0.01 0.00 0.00 0.00 0.01 0.02 0.00 0.00 0.00 0.00 0.00 0.00 0.01 0.02 0.05 0.04 0.01 0.00 0.00 0.00 0.00 0.00 0.00 0.00 0.00 0.00 0.00 0.00 0.00 0.00 0.00
0.09 0.08 0.17 0.30 0.16 0.10 0.06 0.05 0.05 0.03 0.02 0.02 0.03 0.04 0.04 0.04 0.04 0.05 0.01 0.00 0.01 0.02 0.02 0.01 0.00 0.04 0.02 0.06 0.18 0.16 0.01 0.02 0.01 0.01 0.00 0.01 0.03 0.08 0.02 0.01 0.00 0.00 0.00 0.00 0.00 0.00 0.00 0.00 0.00 0.00 0.00 0.00 0.00 0.00
0.08 0.06 0.15 0.31 0.20 0.13 0.10 0.05 0.04 0.02 0.02 0.03 0.03 0.03 0.04 0.02 0.02 0.01 0.01 0.01 0.01 0.02 0.01 0.01 0.00 0.01 0.01 0.08 0.19 0.04 0.01 0.01 0.09 0.02 0.02 0.03 0.04 0.02 0.00 0.00 0.00 0.00 0.00 0.00 0.00 0.00 0.00 0.00 0.00 0.00 0.00 0.00 0.00 0.00
0.07 0.05 0.14 0.28 0.27 0.18 0.16 0.05 0.03 0.03 0.04 0.03 0.03 0.05 0.04 0.01 0.01 0.04 0.02 0.02 0.02 0.01 0.00 0.00 0.00 0.00 0.00 0.01 0.04 0.04 0.05 0.05 0.06 0.09 0.11 0.10 0.09 0.01 0.00 0.00 0.00 0.00 0.00 0.00 0.00 0.00 0.00 0.00 0.00 0.00 0.00 0.00 0.00 0.00
0.05 0.04 0.15 0.28 0.31 0.20 0.15 0.03 0.01 0.01 0.03 0.02 0.03 0.03 0.04 0.04 0.03 0.03 0.04 0.01 0.02 0.00 0.00 0.00 0.00 0.00 0.01 0.00 0.01 0.02 0.02 0.03 0.04 0.09 0.24 0.29 0.10 0.02 0.00 0.00 0.00 0.00 0.00 0.00 0.00 0.00 0.00 0.00 0.00 0.00 0.00 0.00 0.00 0.00
0.04 0.05 0.16 0.31 0.35 0.22 0.13 0.02 0.01 0.00 0.02 0.09 0.06 0.01 0.03 0.03 0.04 0.02 0.01 0.02 0.00 0.00 0.01 0.00 0.00 0.00 0.02 0.02 0.02 0.01 0.01 0.02 0.06 0.10 0.05 0.02 0.00 0.00 0.00 0.00 0.00 0.00 0.00 0.00 0.00 0.00 0.00 0.00 0.00 0.00 0.00 0.00 0.00 0.00
0.04 0.07 0.19 0.34 0.33 0.29 0.10 0.02 0.01 0.05 0.11 0.05 0.02 0.05 0.05 0.05 0.00 0.00 0.00 0.00 0.00 0.00 0.02 0.00 0.00 0.01 0.01 0.01 0.02 0.01 0.01 0.02 0.03 0.02 0.04 0.00 0.00 0.00 0.00 0.00 0.00 0.00 0.00 0.00 0.00 0.00 0.00 0.00 0.00 0.00 0.00 0.00 0.00 0.00
0.06 0.12 0.26 0.32 0.33 0.35 0.08 0.03 0.04 0.07 0.11 0.03 0.03 0.07 0.01 0.02 0.05 0.04 0.04 0.02 0.01 0.03 0.04 0.01 0.01 0.02 0.05 0.02 0.01 0.02 0.04 0.03 0.03 0.04 0.02 0.00 0.00 0.00 0.00 0.00 0.00 0.00 0.00 0.00 0.00 0.00 0.00 0.00 0.00 0.00 0.00 0.00 0.00 0.00
0.09 0.25 0.36 0.32 0.36 0.36 0.11 0.14 0.18 0.16 0.06 0.02 0.04 0.09 0.06 0.04 0.02 0.00 0.01 0.03 0.03 0.08 0.11 0.09 0.05 0.01 0.03 0.02 0.05 0.03 0.05 0.06 0.07 0.04 0.03 0.03 0.01 0.00 0.00 0.00 0.00 0.00 0.00 0.00 0.00 0.00 0.00 0.00 0.00 0.00 0.01 0.01 0.00 0.00
0.14 0.23 0.27 0.29 0.43 0.52 0.28 0.38 0.30 0.17 0.06 0.01 0.03 0.05 0.07 0.06 0.04 0.01 0.01 0.01 0.00 0.06 0.11 0.16 0.10 0.02 0.07 0.09 0.06 0.06 0.06 0.03 0.05 0.07 0.07 0.05 0.01 0.00 0.00 0.01 0.00 0.00 0.00 0.00 0.00 0.00 0.01 0.01 0.00 0.01 0.01 0.01 0.00 0.01
0.15 0.06 0.18 0.37 1.18 0.75 0.42 0.28 0.11 0.05 0.02 0.00 0.01 0.04 0.01 0.02 0.01 0.01 0.00 0.00 0.00 0.01 0.04 0.14 0.17 0.11 0.06 0.06 0.11 0.07 0.08 0.10 0.10 0.09 0.06 0.02 0.00 0.00 0.00 0.01 0.00 0.00 0.00 0.00 0.00 0.01 0.02 0.01 0.00 0.00 0.00 0.00 0.01 0.01
0.09 0.07 0.31 0.72 0.63 0.36 0.36 0.19 0.05 0.01 0.02 0.00 0.00 0.00 0.00 0.00 0.00 0.00 0.00 0.00 0.00 0.01 0.02 0.04 0.08 0.08 0.05 0.01 0.02 0.05 0.05 0.03 0.03 0.02 0.00 0.00 0.00 0.00 0.00 0.01 0.01 0.03 0.01 0.01 0.00 0.00 0.00 0.01 0.00 0.00 0.00 0.00 0.01 0.02
0.08 0.09 0.21 0.29 0.21 0.13 0.05 0.06 0.03 0.01 0.00 0.00 0.00 0.00 0.00 0.00 0.00 0.00 0.01 0.02 0.04 0.10 0.13 0.07 0.03 0.02 0.01 0.01 0.02 0.01 0.01 0.01 0.01 0.03 0.05 0.02 0.00 0.01 0.00 0.00 0.00 0.00 0.01 0.02 0.03 0.01 0.00 0.00 0.00 0.00 0.00 0.01 0.01 0.01
0.18 0.33 0.51 0.39 0.19 0.08 0.00 0.01 0.03 0.01 0.00 0.00 0.00 0.00 0.01 0.01 0.01 0.01 0.02 0.03 0.07 0.06 0.03 0.01 0.01 0.02 0.02 0.01 0.01 0.00 0.00 0.01 0.01 0.03 0.05 0.04 0.01 0.00 0.00 0.00 0.01 0.01 0.01 0.01 0.01 0.01 0.00 0.00 0.00 0.01 0.01 0.01 0.01 0.01
0.56 0.62 0.52 0.13 0.04 0.01 0.00 0.00 0.00 0.00 0.00 0.00 0.00 0.01 0.02 0.03 0.03 0.02 0.01 0.04 0.03 0.01 0.02 0.02 0.01 0.02 0.02 0.01 0.01 0.00 0.00 0.00 0.01 0.02 0.01 0.01 0.02 0.01 0.01 0.01 0.01 0.02 0.01 0.00 0.01 0.01 0.01 0.00 0.00 0.01 0.01 0.01 0.01 0.00
0.35 0.22 0.06 0.02 0.00 0.00 0.01 0.00 0.01 0.00 0.01 0.01 0.01 0.01 0.01 0.01 0.01 0.01 0.02 0.01 0.01 0.01 0.02 0.01 0.01 0.02 0.01 0.01 0.00 0.00 0.01 0.01 0.02 0.02 0.02 0.01 0.00 0.01 0.00 0.00 0.00 0.01 0.01 0.00 0.00 0.01 0.01 0.00 0.00 0.00 0.01 0.01 0.02 0.02
0.11 0.04 0.03 0.01 0.01 0.02 0.01 0.02 0.02 0.01 0.01 0.01 0.01 0.01 0.01 0.01 0.00 0.01 0.02 0.01 0.01 0.01 0.01 0.00 0.00 0.01 0.01 0.02 0.03 0.04 0.03 0.01 0.01 0.02 0.01 0.02 0.01 0.00 0.00 0.00 0.00 0.00 0.01 0.04 0.01 0.01 0.01 0.01 0.01 0.01 0.01 0.02 0.01 0.02
0.06 0.02 0.02 0.02 0.01 0.03 0.03 0.02 0.01 0.01 0.01 0.01 0.01 0.01 0.01 0.00 0.01 0.01 0.01 0.02 0.01 0.02 0.01 0.01 0.02 0.02 0.05 0.02 0.02 0.01 0.01 0.01 0.01 0.01 0.01 0.01 0.01 0.04 0.04 0.02 0.01 0.00 0.00 0.01 0.02 0.03 0.02 0.01 0.01 0.00 0.01 0.01 0.01 0.02
0.07 0.02 0.02 0.02 0.01 0.01 0.01 0.01 0.00 0.00 0.01 0.00 0.01 0.00 0.00 0.01 0.01 0.01 0.01 0.01 0.02 0.01 0.01 0.02 0.02 0.02 0.04 0.02 0.01 0.01 0.01 0.00 0.00 0.01 0.00 0.00 0.00 0.01 0.02 0.03 0.04 0.02 0.00 0.01 0.01 0.02 0.05 0.01 0.01 0.00 0.01 0.01 0.00 0.01
0.05 0.03 0.00 0.00 0.00 0.00 0.00 0.00 0.00 0.01 0.01 0.01 0.01 0.01 0.01 0.01 0.01 0.01 0.02 0.02 0.01 0.01 0.01 0.00 0.00 0.00 0.01 0.01 0.00 0.00 0.00 0.00 0.01 0.01 0.00 0.00 0.00 0.00 0.00 0.01 0.01 0.00 0.01 0.01 0.01 0.02 0.03 0.03 0.02 0.01 0.01 0.02 0.01 0.00
0.04 0.01 0.00 0.00 0.00 0.00 0.00 0.00 0.00 0.00 0.00 0.00 0.01 0.01 0.01 0.00 0.02 0.03 0.02 0.02 0.00 0.00 0.00 0.00 0.00 0.00 0.00 0.01 0.01 0.01 0.00 0.00 0.00 0.00 0.00 0.01 0.00 0.00 0.00 0.01 0.01 0.00 0.01 0.03 0.00 0.00 0.01 0.02 0.02 0.02 0.01 0.02 0.01 0.00
0.01 0.01 0.01 0.01 0.00 0.00 0.00 0.00 0.00 0.00 0.00 0.01 0.01 0.01 0.01 0.01 0.03 0.02 0.02 0.00 0.00 0.00 0.01 0.01 0.02 0.00 0.00 0.00 0.01 0.00 0.01 0.01 0.01 0.02 0.01 0.04 0.03 0.02 0.00 0.00 0.01 0.00 0.00 0.02 0.03 0.00 0.00 0.00 0.00 0.01 0.00 0.01 0.02 0.02
0.01 0.00 0.00 0.00 0.00 0.00 0.01 0.00 0.01 0.00 0.00 0.00 0.00 0.00 0.01 0.01 0.04 0.02 0.01 0.01 0.02 0.02 0.01 0.01 0.01 0.01 0.01 0.01 0.01 0.01 0.01 0.00 0.00 0.01 0.01 0.02 0.01 0.01 0.00 0.00 0.00 0.00 0.00 0.00 0.01 0.01 0.00 0.01 0.02 0.03 0.01 0.01 0.01 0.01
0.00 0.00 0.00 0.00 0.00 0.01 0.01 0.01 0.01 0.01 0.01 0.01 0.01 0.00 0.01 0.01 0.01 0.01 0.04 0.03 0.02 0.00 0.00 0.01 0.01 0.01 0.01 0.01 0.01 0.01 0.01 0.00 0.00 0.00 0.00 0.00 0.00 0.00 0.00 0.00 0.00 0.00 0.00 0.00 0.00 0.00 0.00 0.00 0.01 0.00 0.00 0.00 0.00 0.00
0.02 0.01 0.00 0.01 0.01 0.01 0.02 0.02 0.02 0.01 0.01 0.01 0.01 0.00 0.01 0.01 0.00 0.00 0.00 0.00 0.01 0.01 0.01 0.01 0.01 0.01 0.01 0.00 0.00 0.00 0.00 0.00 0.00 0.00 0.00 0.00 0.00 0.00 0.00 0.00 0.00 0.00 0.00 0.00 0.00 0.00 0.00 0.00 0.00 0.00 0.00 0.00 0.00 0.00
0.04 0.03 0.02 0.02 0.02 0.03 0.02 0.04 0.03 0.01 0.01 0.01 0.01 0.00 0.01 0.01 0.01 0.01 0.00 0.00 0.01 0.00 0.00 0.01 0.00 0.00 0.00 0.00 0.00 0.00 0.00 0.00 0.00 0.00 0.00 0.00 0.00 0.00 0.00 0.00 0.00 0.00 0.00 0.00 0.00 0.00 0.00 0.00 0.00 0.00 0.00 0.00 0.00 0.00

GFSWCAN_prec_precacc12_138.txt.gz
Total_Precipitation_Accumulation
0.34 0.26 0.21 0.11 0.06 0.05 0.03 0.02 0.01 0.01 0.00 0.00 0.00 0.00 0.00 0.00 0.00 0.00 0.00 0.00 0.00 0.00 0.00 0.00 0.00 0.00 0.00 0.00 0.00 0.00 0.00 0.00 0.00 0.00 0.00 0.00 0.00 0.00 0.00 0.00 0.01 0.02 0.01 0.01 0.03 0.02 0.06 0.02 0.02 0.08 0.13 0.14 0.21 0.22
0.23 0.17 0.11 0.05 0.02 0.02 0.02 0.00 0.01 0.01 0.01 0.00 0.00 0.00 0.00 0.00 0.00 0.00 0.00 0.00 0.00 0.00 0.00 0.00 0.00 0.00 0.00 0.00 0.00 0.00 0.00 0.00 0.00 0.00 0.00 0.00 0.00 0.00 0.00 0.01 0.01 0.01 0.06 0.07 0.10 0.15 0.12 0.09 0.14 0.19 0.25 0.26 0.28 0.27
0.16 0.10 0.06 0.02 0.01 0.01 0.01 0.00 0.01 0.01 0.00 0.00 0.00 0.00 0.00 0.00 0.00 0.00 0.00 0.00 0.00 0.00 0.00 0.00 0.00 0.00 0.00 0.00 0.00 0.00 0.00 0.00 0.00 0.00 0.00 0.00 0.00 0.00 0.00 0.00 0.00 0.01 0.01 0.01 0.10 0.15 0.03 0.15 0.10 0.10 0.12 0.14 0.09 0.04
0.15 0.08 0.04 0.01 0.01 0.01 0.01 0.01 0.01 0.01 0.00 0.00 0.00 0.00 0.00 0.00 0.00 0.00 0.01 0.00 0.00 0.00 0.00 0.00 0.00 0.00 0.00 0.00 0.00 0.00 0.00 0.00 0.00 0.00 0.00 0.00 0.00 0.00 0.00 0.00 0.00 0.02 0.02 0.00 0.01 0.04 0.04 0.09 0.06 0.03 0.01 0.02 0.01 0.00
0.15 0.07 0.05 0.02 0.01 0.01 0.01 0.01 0.00 0.01 0.01 0.00 0.00 0.00 0.00 0.00 0.00 0.00 0.01 0.01 0.00 0.00 0.01 0.00 0.00 0.00 0.00 0.00 0.00 0.00 0.00 0.00 0.00 0.00 0.00 0.00 0.00 0.00 0.00 0.00 0.04 0.00 0.00 0.00 0.02 0.05 0.06 0.06 0.01 0.00 0.00 0.00 0.00 0.00
0.15 0.11 0.08 0.04 0.02 0.01 0.01 0.00 0.01 0.01 0.01 0.00 0.00 0.00 0.00 0.00 0.00 0.00 0.00 0.00 0.00 0.00 0.00 0.00 0.00 0.00 0.00 0.00 0.00 0.00 0.00 0.00 0.00 0.00 0.00 0.00 0.00 0.00 0.01 0.00 0.00 0.00 0.00 0.00 0.00 0.00 0.03 0.01 0.00 0.00 0.00 0.00 0.00 0.00
0.14 0.15 0.14 0.14 0.07 0.03 0.01 0.01 0.01 0.02 0.01 0.00 0.00 0.00 0.01 0.00 0.00 0.00 0.00 0.00 0.00 0.00 0.00 0.00 0.00 0.00 0.00 0.00 0.00 0.00 0.00 0.00 0.00 0.01 0.00 0.00 0.00 0.00 0.01 0.00 0.00 0.00 0.00 0.00 0.00 0.00 0.00 0.00 0.00 0.00 0.00 0.00 0.00 0.00
0.11 0.11 0.19 0.23 0.13 0.06 0.03 0.02 0.02 0.02 0.01 0.00 0.01 0.02 0.01 0.01 0.01 0.01 0.00 0.00 0.00 0.00 0.00 0.00 0.00 0.00 0.00 0.00 0.00 0.00 0.00 0.00 0.00 0.00 0.00 0.00 0.01 0.02 0.02 0.01 0.00 0.00 0.00 0.00 0.00 0.00 0.00 0.00 0.00 0.00 0.00 0.00 0.00 0.00
0.09 0.07 0.16 0.28 0.16 0.09 0.06 0.04 0.04 0.02 0.01 0.01 0.02 0.02 0.01 0.00 0.01 0.01 0.00 0.00 0.00 0.00 0.00 0.00 0.00 0.01 0.00 0.01 0.08 0.11 0.00 0.00 0.00 0.00 0.00 0.00 0.01 0.04 0.01 0.01 0.00 0.00 0.00 0.00 0.00 0.00 0.00 0.00 0.00 0.00 0.00 0.00 0.00 0.00
0.08 0.06 0.14 0.28 0.18 0.12 0.09 0.05 0.03 0.01 0.01 0.01 0.00 0.00 0.00 0.00 0.00 0.00 0.00 0.00 0.00 0.00 0.00 0.00 0.00 0.00 0.00 0.02 0.13 0.02 0.00 0.00 0.03 0.01 0.00 0.01 0.02 0.01 0.00 0.00 0.00 0.00 0.00 0.00 0.00 0.00 0.00 0.00 0.00 0.00 0.00 0.00 0.00 0.00
0.08 0.05 0.13 0.26 0.22 0.16 0.10 0.03 0.02 0.01 0.01 0.00 0.00 0.02 0.01 0.00 0.00 0.01 0.00 0.00 0.00 0.00 0.00 0.00 0.00 0.00 0.00 0.00 0.02 0.02 0.02 0.02 0.03 0.03 0.07 0.06 0.05 0.01 0.00 0.00 0.00 0.00 0.00 0.00 0.00 0.00 0.00 0.00 0.00 0.00 0.00 0.00 0.00 0.00
0.07 0.05 0.14 0.26 0.26 0.13 0.06 0.01 0.00 0.00 0.00 0.00 0.01 0.01 0.01 0.01 0.00 0.00 0.01 0.00 0.00 0.00 0.00 0.00 0.00 0.00 0.00 0.00 0.00 0.01 0.01 0.01 0.01 0.05 0.23 0.26 0.08 0.02 0.00 0.00 0.00 0.00 0.00 0.00 0.00 0.00 0.00 0.00 0.00 0.00 0.00 0.00 0.00 0.00
0.06 0.06 0.16 0.29 0.26 0.12 0.06 0.01 0.00 0.00 0.01 0.03 0.03 0.00 0.00 0.00 0.01 0.01 0.00 0.00 0.00 0.00 0.00 0.00 0.00 0.00 0.01 0.01 0.00 0.00 0.00 0.00 0.02 0.08 0.04 0.01 0.00 0.00 0.00 0.00 0.00 0.00 0.00 0.00 0.00 0.00 0.00 0.00 0.00 0.00 0.00 0.00 0.00 0.00
0.05 0.10 0.20 0.33 0.26 0.19 0.06 0.01 0.00 0.02 0.03 0.01 0.00 0.00 0.01 0.01 0.00 0.00 0.00 0.00 0.00 0.00 0.01 0.00 0.00 0.00 0.00 0.00 0.00 0.00 0.00 0.01 0.02 0.02 0.02 0.00 0.00 0.00 0.00 0.00 0.00 0.00 0.00 0.00 0.00 0.00 0.00 0.00 0.00 0.00 0.00 0.00 0.00 0.00
0.08 0.16 0.30 0.33 0.27 0.28 0.05 0.01 0.03 0.03 0.03 0.01 0.00 0.01 0.00 0.00 0.01 0.01 0.01 0.01 0.01 0.02 0.02 0.00 0.00 0.00 0.01 0.01 0.00 0.01 0.02 0.01 0.01 0.02 0.02 0.01 0.00 0.00 0.00 0.00 0.00 0.00 0.00 0.00 0.00 0.00 0.00 0.00 0.00 0.00 0.00 0.00 0.00 0.00
0.20 0.39 0.53 0.37 0.29 0.30 0.09 0.09 0.08 0.04 0.03 0.01 0.00 0.01 0.01 0.01 0.01 0.00 0.00 0.02 0.02 0.05 0.06 0.03 0.02 0.00 0.01 0.00 0.01 0.01 0.02 0.03 0.05 0.04 0.03 0.03 0.04 0.02 0.00 0.00 0.00 0.00 0.00 0.00 0.00 0.00 0.00 0.00 0.00 0.00 0.01 0.01 0.00 0.00
0.15 0.27 0.46 0.35 0.42 0.46 0.22 0.16 0.12 0.09 0.05 0.00 0.00 0.00 0.01 0.03 0.02 0.00 0.00 0.00 0.00 0.04 0.08 0.12 0.08 0.01 0.02 0.03 0.03 0.03 0.03 0.02 0.05 0.06 0.07 0.05 0.02 0.01 0.00 0.00 0.00 0.00 0.00 0.00 0.00 0.00 0.01 0.00 0.00 0.00 0.00 0.00 0.00 0.01
0.14 0.22 0.41 0.47 1.13 0.66 0.25 0.11 0.05 0.03 0.02 0.00 0.00 0.02 0.00 0.01 0.00 0.00 0.00 0.00 0.00 0.01 0.02 0.12 0.15 0.06 0.02 0.02 0.05 0.06 0.08 0.10 0.10 0.08 0.05 0.02 0.00 0.00 0.00 0.01 0.00 0.00 0.00 0.00 0.00 0.00 0.01 0.00 0.00 0.00 0.00 0.00 0.00 0.00
0.19 0.33 0.58 0.73 0.57 0.27 0.23 0.12 0.03 0.01 0.01 0.00 0.00 0.00 0.00 0.00 0.00 0.00 0.00 0.00 0.00 0.00 0.01 0.02 0.05 0.04 0.02 0.01 0.01 0.04 0.05 0.03 0.02 0.01 0.01 0.00 0.00 0.00 0.00 0.00 0.01 0.01 0.00 0.01 0.00 0.00 0.00 0.01 0.00 0.00 0.00 0.00 0.00 0.00
0.25 0.39 0.38 0.31 0.19 0.07 0.03 0.05 0.03 0.01 0.00 0.00 0.00 0.00 0.00 0.00 0.00 0.00 0.00 0.00 0.01 0.03 0.06 0.04 0.02 0.01 0.00 0.01 0.01 0.01 0.01 0.00 0.00 0.02 0.02 0.01 0.00 0.00 0.00 0.00 0.00 0.00 0.01 0.01 0.02 0.00 0.00 0.00 0.00 0.00 0.00 0.00 0.00 0.00
0.25 0.56 0.67 0.45 0.24 0.08 0.00 0.01 0.03 0.01 0.00 0.00 0.00 0.00 0.00 0.00 0.00 0.00 0.00 0.00 0.02 0.03 0.02 0.00 0.00 0.01 0.01 0.01 0.01 0.00 0.00 0.00 0.00 0.02 0.03 0.02 0.01 0.00 0.00 0.00 0.00 0.00 0.00 0.00 0.00 0.00 0.00 0.00 0.00 0.00 0.00 0.00 0.00 0.00
0.56 0.67 0.69 0.24 0.07 0.01 0.00 0.00 0.00 0.00 0.00 0.00 0.00 0.00 0.00 0.01 0.01 0.01 0.01 0.01 0.01 0.00 0.01 0.01 0.01 0.01 0.01 0.01 0.01 0.00 0.00 0.00 0.01 0.02 0.01 0.01 0.02 0.01 0.00 0.00 0.00 0.01 0.00 0.00 0.00 0.00 0.00 0.00 0.00 0.00 0.00 0.00 0.01 0.00
0.35 0.31 0.15 0.04 0.00 0.00 0.01 0.00 0.00 0.00 0.00 0.00 0.00 0.00 0.00 0.00 0.01 0.01 0.01 0.01 0.00 0.00 0.01 0.00 0.01 0.01 0.01 0.01 0.00 0.00 0.01 0.01 0.02 0.02 0.02 0.01 0.00 0.00 0.00 0.00 0.00 0.00 0.00 0.00 0.00 0.00 0.00 0.00 0.00 0.00 0.00 0.00 0.01 0.02
0.14 0.14 0.05 0.01 0.00 0.01 0.00 0.00 0.00 0.00 0.01 0.00 0.00 0.01 0.01 0.01 0.00 0.00 0.01 0.01 0.00 0.01 0.00 0.00 0.00 0.01 0.01 0.02 0.02 0.04 0.03 0.00 0.01 0.02 0.01 0.02 0.01 0.00 0.00 0.00 0.00 0.00 0.00 0.03 0.01 0.00 0.00 0.00 0.00 0.00 0.00 0.01 0.00 0.01
0.07 0.04 0.00 0.00 0.00 0.00 0.01 0.01 0.01 0.00 0.00 0.00 0.01 0.01 0.01 0.00 0.00 0.00 0.01 0.01 0.01 0.01 0.01 0.01 0.01 0.01 0.03 0.02 0.01 0.01 0.01 0.01 0.01 0.00 0.01 0.00 0.00 0.03 0.03 0.02 0.00 0.00 0.00 0.00 0.00 0.02 0.01 0.00 0.00 0.00 0.00 0.00 0.00 0.01
0.02 0.01 0.00 0.00 0.00 0.00 0.00 0.00 0.00 0.00 0.00 0.00 0.01 0.00 0.00 0.00 0.00 0.00 0.01 0.00 0.01 0.01 0.01 0.01 0.02 0.02 0.03 0.01 0.01 0.00 0.00 0.00 0.00 0.00 0.00 0.00 0.00 0.00 0.01 0.02 0.02 0.01 0.00 0.00 0.00 0.01 0.03 0.01 0.00 0.00 0.01 0.01 0.00 0.00
0.00 0.00 0.00 0.00 0.00 0.00 0.00 0.00 0.00 0.01 0.01 0.00 0.01 0.01 0.01 0.01 0.00 0.01 0.02 0.01 0.01 0.00 0.00 0.00 0.00 0.00 0.00 0.00 0.00 0.00 0.00 0.00 0.00 0.00 0.00 0.00 0.00 0.00 0.00 0.00 0.00 0.00 0.00 0.00 0.00 0.00 0.01 0.02 0.02 0.00 0.01 0.02 0.00 0.00
0.02 0.01 0.00 0.00 0.00 0.00 0.00 0.00 0.00 0.00 0.00 0.00 0.00 0.01 0.01 0.00 0.01 0.02 0.01 0.02 0.00 0.00 0.00 0.00 0.00 0.00 0.00 0.00 0.00 0.00 0.00 0.00 0.00 0.00 0.00 0.00 0.00 0.00 0.00 0.00 0.00 0.00 0.00 0.01 0.00 0.00 0.00 0.00 0.01 0.01 0.00 0.01 0.00 0.00
0.01 0.01 0.01 0.01 0.00 0.00 0.00 0.00 0.00 0.00 0.00 0.00 0.01 0.00 0.00 0.00 0.02 0.02 0.02 0.00 0.00 0.00 0.00 0.00 0.01 0.00 0.00 0.00 0.00 0.00 0.00 0.00 0.01 0.01 0.00 0.02 0.02 0.01 0.00 0.00 0.00 0.00 0.00 0.01 0.01 0.00 0.00 0.00 0.00 0.00 0.00 0.01 0.02 0.01
0.00 0.00 0.00 0.00 0.00 0.00 0.00 0.00 0.00 0.00 0.00 0.00 0.00 0.00 0.00 0.01 0.03 0.01 0.00 0.01 0.01 0.01 0.00 0.00 0.00 0.00 0.00 0.00 0.00 0.01 0.00 0.00 0.00 0.00 0.00 0.01 0.00 0.00 0.00 0.00 0.00 0.00 0.00 0.00 0.00 0.00 0.00 0.00 0.01 0.02 0.00 0.00 0.00 0.00
0.00 0.00 0.00 0.00 0.00 0.00 0.00 0.00 0.00 0.00 0.01 0.01 0.01 0.00 0.00 0.00 0.01 0.01 0.02 0.02 0.01 0.00 0.00 0.00 0.01 0.01 0.00 0.01 0.00 0.00 0.00 0.00 0.00 0.00 0.00 0.00 0.00 0.00 0.00 0.00 0.00 0.00 0.00 0.00 0.00 0.00 0.00 0.00 0.00 0.00 0.00 0.00 0.00 0.00
0.02 0.01 0.00 0.00 0.00 0.01 0.01 0.01 0.01 0.00 0.01 0.01 0.01 0.00 0.01 0.00 0.00 0.00 0.00 0.00 0.01 0.01 0.00 0.00 0.00 0.01 0.00 0.00 0.00 0.00 0.00 0.00 0.00 0.00 0.00 0.00 0.00 0.00 0.00 0.00 0.00 0.00 0.00 0.00 0.00 0.00 0.00 0.00 0.00 0.00 0.00 0.00 0.00 0.00
0.05 0.04 0.02 0.02 0.02 0.02 0.02 0.04 0.03 0.01 0.01 0.01 0.00 0.00 0.01 0.00 0.00 0.00 0.00 0.00 0.01 0.00 0.00 0.00 0.00 0.00 0.00 0.00 0.00 0.00 0.00 0.00 0.00 0.00 0.00 0.00 0.00 0.00 0.00 0.00 0.00 0.00 0.00 0.00 0.00 0.00 0.00 0.00 0.00 0.00 0.00 0.00 0.00 0.00

GFSWCAN_prec_precacc12_141.txt.gz
Total_Precipitation_Accumulation
0.60 0.67 0.69 0.53 0.28 0.17 0.12 0.09 0.07 0.07 0.08 0.07 0.03 0.03 0.03 0.00 0.00 0.00 0.00 0.00 0.00 0.00 0.00 0.00 0.00 0.00 0.00 0.00 0.00 0.00 0.00 0.00 0.00 0.00 0.00 0.00 0.00 0.00 0.00 0.00 0.00 0.00 0.00 0.00 0.01 0.00 0.01 0.00 0.01 0.03 0.07 0.09 0.14 0.17
0.40 0.44 0.43 0.33 0.18 0.11 0.06 0.04 0.04 0.04 0.03 0.01 0.00 0.00 0.00 0.00 0.00 0.00 0.00 0.00 0.00 0.00 0.00 0.00 0.00 0.00 0.00 0.00 0.00 0.00 0.00 0.00 0.00 0.00 0.00 0.00 0.00 0.00 0.00 0.00 0.00 0.00 0.01 0.01 0.03 0.05 0.04 0.03 0.05 0.09 0.14 0.16 0.17 0.16
0.24 0.24 0.23 0.16 0.09 0.04 0.01 0.00 0.01 0.01 0.00 0.00 0.00 0.00 0.00 0.00 0.00 0.00 0.00 0.00 0.00 0.00 0.00 0.00 0.00 0.00 0.00 0.00 0.00 0.00 0.00 0.00 0.00 0.00 0.00 0.00 0.00 0.00 0.00 0.00 0.00 0.00 0.00 0.00 0.04 0.05 0.02 0.04 0.04 0.03 0.06 0.09 0.05 0.01
0.16 0.14 0.13 0.09 0.03 0.01 0.00 0.01 0.00 0.00 0.00 0.00 0.00 0.00 0.00 0.00 0.00 0.00 0.00 0.00 0.00 0.00 0.00 0.00 0.00 0.00 0.00 0.00 0.00 0.00 0.00 0.00 0.00 0.00 0.00 0.00 0.00 0.00 0.00 0.00 0.00 0.00 0.01 0.00 0.00 0.01 0.03 0.06 0.02 0.01 0.00 0.00 0.00 0.00
0.14 0.11 0.09 0.05 0.01 0.00 0.01 0.01 0.00 0.00 0.00 0.00 0.00 0.00 0.00 0.00 0.00 0.00 0.00 0.00 0.00 0.00 0.00 0.00 0.00 0.00 0.00 0.00 0.00 0.00 0.00 0.00 0.00 0.00 0.00 0.00 0.00 0.00 0.00 0.00 0.00 0.00 0.00 0.00 0.00 0.01 0.02 0.02 0.00 0.00 0.00 0.00 0.00 0.00
0.19 0.13 0.07 0.03 0.01 0.01 0.00 0.00 0.00 0.00 0.00 0.00 0.00 0.00 0.00 0.00 0.00 0.00 0.00 0.00 0.00 0.00 0.00 0.00 0.00 0.00 0.00 0.00 0.00 0.00 0.00 0.00 0.00 0.00 0.00 0.00 0.00 0.00 0.00 0.00 0.00 0.00 0.00 0.00 0.00 0.00 0.00 0.00 0.00 0.00 0.00 0.00 0.00 0.00
0.18 0.14 0.06 0.02 0.01 0.01 0.00 0.00 0.00 0.01 0.00 0.00 0.00 0.00 0.00 0.00 0.00 0.00 0.00 0.00 0.00 0.00 0.00 0.00 0.00 0.00 0.00 0.00 0.00 0.00 0.00 0.00 0.00 0.00 0.00 0.00 0.00 0.00 0.00 0.00 0.00 0.00 0.00 0.00 0.00 0.00 0.00 0.00 0.00 0.00 0.00 0.00 0.00 0.00
0.14 0.11 0.08 0.05 0.03 0.02 0.01 0.01 0.01 0.01 0.00 0.00 0.00 0.01 0.00 0.00 0.00 0.00 0.00 0.00 0.00 0.00 0.00 0.00 0.00 0.00 0.00 0.00 0.00 0.00 0.00 0.00 0.00 0.00 0.00 0.00 0.00 0.00 0.00 0.00 0.00 0.00 0.00 0.00 0.00 0.00 0.00 0.00 0.00 0.00 0.00 0.00 0.00 0.00
0.09 0.07 0.08 0.09 0.06 0.06 0.04 0.03 0.02 0.01 0.01 0.00 0.01 0.00 0.00 0.00 0.00 0.00 0.00 0.00 0.00 0.00 0.00 0.00 0.00 0.00 0.00 0.00 0.01 0.01 0.00 0.00 0.00 0.00 0.00 0.00 0.00 0.02 0.00 0.00 0.00 0.00 0.00 0.00 0.00 0.00 0.00 0.00 0.00 0.00 0.00 0.00 0.00 0.00
0.09 0.05 0.10 0.16 0.13 0.10 0.08 0.04 0.02 0.00 0.00 0.00 0.00 0.00 0.00 0.00 0.00 0.00 0.00 0.00 0.00 0.00 0.00 0.00 0.00 0.00 0.00 0.00 0.05 0.01 0.00 0.00 0.01 0.00 0.00 0.00 0.00 0.00 0.00 0.00 0.00 0.00 0.00 0.00 0.00 0.00 0.00 0.00 0.00 0.00 0.00 0.00 0.00 0.00
0.08 0.05 0.12 0.21 0.16 0.12 0.08 0.02 0.01 0.00 0.00 0.00 0.00 0.01 0.00 0.00 0.00 0.00 0.00 0.00 0.00 0.00 0.00 0.00 0.00 0.00 0.00 0.00 0.00 0.00 0.00 0.00 0.01 0.01 0.03 0.02 0.02 0.01 0.00 0.00 0.00 0.00 0.00 0.00 0.00 0.00 0.00 0.00 0.00 0.00 0.00 0.00 0.00 0.00
0.07 0.05 0.14 0.25 0.22 0.10 0.03 0.01 0.00 0.00 0.00 0.00 0.00 0.00 0.00 0.00 0.00 0.00 0.00 0.00 0.00 0.00 0.00 0.00 0.00 0.00 0.00 0.00 0.00 0.00 0.00 0.00 0.01 0.03 0.13 0.22 0.07 0.02 0.00 0.00 0.00 0.00 0.00 0.00 0.00 0.00 0.00 0.00 0.00 0.00 0.00 0.00 0.00 0.00
0.06 0.06 0.16 0.31 0.21 0.05 0.02 0.00 0.00 0.00 0.00 0.00 0.00 0.00 0.00 0.00 0.00 0.00 0.00 0.00 0.00 0.00 0.00 0.00 0.00 0.00 0.00 0.00 0.00 0.00 0.00 0.00 0.00 0.03 0.03 0.00 0.00 0.00 0.00 0.00 0.00 0.00 0.00 0.00 0.00 0.00 0.00 0.00 0.00 0.00 0.00 0.00 0.00 0.00
0.05 0.10 0.23 0.34 0.16 0.07 0.01 0.00 0.00 0.00 0.00 0.00 0.00 0.00 0.00 0.00 0.00 0.00 0.00 0.00 0.00 0.00 0.00 0.00 0.00 0.00 0.00 0.00 0.00 0.00 0.00 0.00 0.01 0.01 0.00 0.00 0.00 0.00 0.00 0.00 0.00 0.00 0.00 0.00 0.00 0.00 0.00 0.00 0.00 0.00 0.00 0.00 0.00 0.00
0.08 0.17 0.32 0.31 0.14 0.11 0.01 0.00 0.00 0.00 0.00 0.00 0.00 0.00 0.00 0.00 0.00 0.00 0.00 0.00 0.00 0.00 0.00 0.00 0.00 0.00 0.00 0.00 0.00 0.00 0.00 0.01 0.00 0.00 0.00 0.00 0.00 0.00 0.00 0.00 0.00 0.00 0.00 0.00 0.00 0.00 0.00 0.00 0.00 0.00 0.00 0.00 0.00 0.00
0.21 0.39 0.52 0.36 0.16 0.15 0.04 0.05 0.01 0.00 0.00 0.00 0.00 0.01 0.01 0.00 0.01 0.00 0.00 0.00 0.00 0.01 0.01 0.01 0.00 0.00 0.00 0.00 0.00 0.00 0.01 0.01 0.01 0.03 0.03 0.03 0.04 0.03 0.01 0.01 0.00 0.00 0.00 0.00 0.00 0.00 0.00 0.00 0.00 0.00 0.00 0.00 0.00 0.00
0.19 0.29 0.46 0.30 0.25 0.31 0.15 0.07 0.04 0.03 0.01 0.00 0.01 0.01 0.00 0.00 0.00 0.00 0.00 0.00 0.00 0.02 0.04 0.07 0.04 0.00 0.00 0.00 0.00 0.00 0.00 0.01 0.03 0.06 0.07 0.05 0.02 0.01 0.00 0.00 0.00 0.00 0.00 0.00 0.00 0.00 0.00 0.00 0.00 0.00 0.00 0.00 0.00 0.00
0.09 0.26 0.40 0.34 0.75 0.44 0.19 0.10 0.03 0.01 0.00 0.00 0.00 0.00 0.00 0.00 0.00 0.00 0.00 0.00 0.00 0.01 0.01 0.07 0.12 0.04 0.01 0.00 0.00 0.01 0.04 0.08 0.09 0.08 0.05 0.02 0.00 0.00 0.00 0.00 0.00 0.00 0.00 0.00 0.00 0.00 0.00 0.00 0.00 0.00 0.00 0.00 0.00 0.00
0.28 0.38 0.48 0.47 0.41 0.20 0.17 0.07 0.00 0.00 0.00 0.00 0.00 0.00 0.00 0.00 0.00 0.00 0.00 0.00 0.00 0.00 0.00 0.00 0.02 0.02 0.01 0.00 0.00 0.00 0.02 0.02 0.02 0.01 0.01 0.00 0.00 0.00 0.00 0.00 0.00 0.00 0.00 0.00 0.00 0.00 0.00 0.00 0.00 0.00 0.00 0.00 0.00 0.00
0.45 0.47 0.34 0.25 0.17 0.04 0.01 0.01 0.00 0.00 0.00 0.00 0.00 0.00 0.00 0.00 0.00 0.00 0.00 0.00 0.00 0.01 0.02 0.01 0.00 0.00 0.00 0.00 0.00 0.00 0.00 0.00 0.00 0.01 0.01 0.00 0.00 0.00 0.00 0.00 0.00 0.00 0.00 0.01 0.01 0.00 0.00 0.00 0.00 0.00 0.00 0.00 0.00 0.00
0.55 0.80 0.69 0.42 0.19 0.04 0.00 0.00 0.00 0.00 0.00 0.00 0.00 0.00 0.00 0.00 0.00 0.00 0.00 0.00 0.00 0.00 0.00 0.00 0.00 0.01 0.00 0.00 0.00 0.00 0.00 0.00 0.00 0.00 0.00 0.01 0.01 0.00 0.00 0.00 0.00 0.00 0.00 0.00 0.00 0.00 0.00 0.00 0.00 0.00 0.00 0.00 0.00 0.00
0.68 0.80 0.65 0.22 0.04 0.01 0.00 0.00 0.00 0.00 0.00 0.00 0.00 0.00 0.00 0.00 0.00 0.00 0.00 0.00 0.00 0.00 0.00 0.00 0.00 0.00 0.01 0.01 0.01 0.01 0.00 0.00 0.01 0.02 0.01 0.01 0.02 0.01 0.01 0.00 0.00 0.00 0.00 0.00 0.00 0.00 0.00 0.00 0.00 0.00 0.00 0.00 0.00 0.00
0.42 0.35 0.16 0.03 0.00 0.00 0.01 0.00 0.00 0.00 0.00 0.00 0.00 0.00 0.00 0.00 0.00 0.00 0.00 0.00 0.00 0.00 0.00 0.00 0.00 0.00 0.01 0.01 0.00 0.01 0.01 0.01 0.02 0.02 0.02 0.01 0.00 0.00 0.00 0.00 0.00 0.00 0.00 0.00 0.00 0.00 0.00 0.00 0.00 0.00 0.00 0.00 0.00 0.01
0.19 0.20 0.06 0.01 0.00 0.01 0.00 0.00 0.00 0.00 0.00 0.00 0.00 0.00 0.00 0.01 0.00 0.00 0.00 0.00 0.00 0.01 0.01 0.00 0.00 0.01 0.02 0.01 0.02 0.04 0.03 0.00 0.01 0.02 0.01 0.01 0.00 0.00 0.00 0.00 0.00 0.00 0.00 0.01 0.00 0.00 0.00 0.00 0.00 0.00 0.00 0.00 0.00 0.00
0.10 0.10 0.01 0.00 0.00 0.00 0.00 0.01 0.00 0.00 0.00 0.00 0.00 0.00 0.01 0.00 0.00 0.00 0.00 0.00 0.01 0.01 0.01 0.01 0.01 0.00 0.00 0.01 0.01 0.01 0.01 0.00 0.00 0.01 0.01 0.00 0.00 0.01 0.02 0.01 0.00 0.00 0.00 0.00 0.00 0.01 0.01 0.00 0.00 0.00 0.00 0.00 0.00 0.01
0.04 0.03 0.00 0.00 0.00 0.00 0.00 0.00 0.00 0.00 0.00 0.00 0.00 0.00 0.00 0.00 0.00 0.00 0.00 0.00 0.00 0.00 0.01 0.01 0.01 0.01 0.02 0.00 0.00 0.00 0.01 0.00 0.00 0.00 0.00 0.00 0.00 0.00 0.01 0.00 0.00 0.00 0.00 0.00 0.00 0.00 0.01 0.01 0.01 0.00 0.00 0.00 0.00 0.00
0.00 0.00 0.00 0.00 0.00 0.00 0.00 0.00 0.00 0.01 0.01 0.00 0.01 0.01 0.01 0.01 0.00 0.00 0.01 0.01 0.00 0.00 0.00 0.00 0.00 0.00 0.00 0.00 0.00 0.00 0.00 0.00 0.00 0.00 0.00 0.00 0.00 0.00 0.00 0.00 0.00 0.00 0.00 0.00 0.00 0.00 0.00 0.01 0.01 0.00 0.00 0.01 0.00 0.00
0.00 0.00 0.00 0.00 0.00 0.00 0.00 0.00 0.00 0.00 0.00 0.00 0.00 0.00 0.01 0.00 0.00 0.01 0.01 0.01 0.00 0.00 0.00 0.00 0.00 0.00 0.00 0.00 0.00 0.00 0.00 0.00 0.00 0.00 0.00 0.00 0.00 0.00 0.00 0.00 0.00 0.00 0.00 0.00 0.00 0.00 0.00 0.00 0.00 0.00 0.00 0.00 0.00 0.00
0.00 0.00 0.00 0.00 0.00 0.00 0.00 0.00 0.00 0.00 0.00 0.00 0.00 0.00 0.00 0.00 0.00 0.01 0.01 0.00 0.00 0.00 0.00 0.00 0.01 0.00 0.00 0.00 0.01 0.00 0.00 0.00 0.00 0.00 0.00 0.00 0.00 0.00 0.00 0.00 0.00 0.00 0.00 0.00 0.00 0.00 0.00 0.00 0.00 0.00 0.00 0.00 0.01 0.00
0.00 0.00 0.00 0.00 0.00 0.00 0.00 0.00 0.00 0.00 0.00 0.00 0.00 0.00 0.00 0.00 0.01 0.01 0.00 0.01 0.00 0.00 0.00 0.00 0.00 0.00 0.00 0.00 0.01 0.01 0.00 0.00 0.00 0.00 0.00 0.00 0.00 0.00 0.00 0.00 0.00 0.00 0.00 0.00 0.00 0.00 0.00 0.00 0.01 0.01 0.00 0.00 0.00 0.00
0.00 0.00 0.00 0.00 0.00 0.00 0.00 0.00 0.00 0.00 0.00 0.00 0.00 0.00 0.00 0.00 0.00 0.00 0.00 0.00 0.00 0.00 0.00 0.00 0.01 0.00 0.00 0.00 0.00 0.00 0.00 0.00 0.00 0.00 0.00 0.00 0.00 0.00 0.00 0.00 0.00 0.00 0.00 0.00 0.00 0.00 0.00 0.00 0.00 0.00 0.00 0.00 0.00 0.00
0.01 0.01 0.00 0.00 0.00 0.01 0.00 0.00 0.00 0.00 0.00 0.00 0.00 0.00 0.00 0.00 0.00 0.00 0.00 0.01 0.01 0.01 0.00 0.00 0.00 0.00 0.00 0.00 0.00 0.00 0.00 0.00 0.00 0.00 0.00 0.00 0.00 0.00 0.00 0.00 0.00 0.00 0.00 0.00 0.00 0.00 0.00 0.00 0.00 0.00 0.00 0.00 0.00 0.00
0.04 0.03 0.02 0.02 0.01 0.01 0.00 0.02 0.02 0.01 0.00 0.00 0.00 0.00 0.00 0.00 0.00 0.00 0.00 0.00 0.00 0.00 0.00 0.00 0.00 0.00 0.00 0.00 0.00 0.00 0.00 0.00 0.00 0.00 0.00 0.00 0.00 0.00 0.00 0.00 0.00 0.00 0.00 0.00 0.00 0.00 0.00 0.00 0.00 0.00 0.00 0.00 0.00 0.00

GFSWCAN_prec_precacc12_144.txt.gz
Total_Precipitation_Accumulation
0.80 1.09 1.25 0.71 0.35 0.23 0.16 0.13 0.11 0.13 0.13 0.13 0.10 0.11 0.14 0.10 0.02 0.01 0.00 0.00 0.00 0.00 0.00 0.00 0.00 0.00 0.00 0.00 0.00 0.00 0.00 0.00 0.00 0.00 0.00 0.00 0.00 0.00 0.00 0.00 0.00 0.00 0.00 0.00 0.00 0.00 0.00 0.00 0.00 0.01 0.03 0.04 0.08 0.11
0.65 0.93 1.08 0.62 0.29 0.18 0.11 0.10 0.09 0.11 0.11 0.11 0.09 0.10 0.09 0.04 0.00 0.00 0.00 0.00 0.00 0.00 0.00 0.00 0.00 0.00 0.00 0.00 0.00 0.00 0.00 0.00 0.00 0.00 0.00 0.00 0.00 0.00 0.00 0.00 0.00 0.00 0.00 0.00 0.00 0.01 0.00 0.00 0.01 0.03 0.05 0.06 0.08 0.05
0.47 0.66 0.74 0.50 0.27 0.13 0.08 0.06 0.07 0.07 0.07 0.09 0.10 0.07 0.03 0.00 0.00 0.00 0.00 0.00 0.00 0.00 0.00 0.00 0.00 0.00 0.00 0.00 0.00 0.00 0.00 0.00 0.00 0.00 0.00 0.00 0.00 0.00 0.00 0.00 0.00 0.00 0.00 0.00 0.01 0.01 0.01 0.00 0.01 0.01 0.01 0.03 0.02 0.00
0.31 0.36 0.42 0.31 0.15 0.07 0.04 0.04 0.03 0.03 0.04 0.08 0.07 0.02 0.00 0.00 0.00 0.00 0.00 0.00 0.00 0.00 0.00 0.00 0.00 0.00 0.00 0.00 0.00 0.00 0.00 0.00 0.00 0.00 0.00 0.00 0.00 0.00 0.00 0.00 0.00 0.00 0.00 0.00 0.00 0.00 0.01 0.03 0.01 0.00 0.00 0.00 0.00 0.00
0.22 0.23 0.21 0.14 0.06 0.03 0.02 0.01 0.01 0.02 0.04 0.03 0.01 0.00 0.00 0.00 0.00 0.00 0.00 0.00 0.00 0.00 0.00 0.00 0.00 0.00 0.00 0.00 0.00 0.00 0.00 0.00 0.00 0.00 0.00 0.00 0.00 0.00 0.00 0.00 0.00 0.00 0.00 0.00 0.00 0.00 0.00 0.01 0.00 0.00 0.00 0.00 0.00 0.00
0.20 0.16 0.11 0.06 0.03 0.03 0.02 0.01 0.01 0.01 0.01 0.01 0.00 0.00 0.00 0.00 0.00 0.00 0.00 0.00 0.00 0.00 0.00 0.00 0.00 0.00 0.00 0.00 0.00 0.00 0.00 0.00 0.00 0.00 0.00 0.00 0.00 0.00 0.00 0.00 0.00 0.00 0.00 0.00 0.00 0.00 0.00 0.00 0.00 0.00 0.00 0.00 0.00 0.00
0.15 0.10 0.06 0.04 0.04 0.03 0.00 0.00 0.00 0.00 0.00 0.00 0.00 0.00 0.00 0.00 0.00 0.00 0.00 0.00 0.00 0.00 0.00 0.00 0.00 0.00 0.00 0.00 0.00 0.00 0.00 0.00 0.00 0.00 0.00 0.00 0.00 0.00 0.00 0.00 0.00 0.00 0.00 0.00 0.00 0.00 0.00 0.00 0.00 0.00 0.00 0.00 0.00 0.00
0.11 0.06 0.04 0.04 0.03 0.02 0.01 0.01 0.01 0.00 0.00 0.00 0.00 0.00 0.00 0.00 0.00 0.00 0.00 0.00 0.00 0.00 0.00 0.00 0.00 0.00 0.00 0.00 0.00 0.00 0.00 0.00 0.00 0.00 0.00 0.00 0.00 0.00 0.00 0.00 0.00 0.00 0.00 0.00 0.00 0.00 0.00 0.00 0.00 0.00 0.00 0.00 0.00 0.00
0.10 0.05 0.02 0.02 0.02 0.02 0.02 0.02 0.01 0.00 0.00 0.00 0.00 0.00 0.00 0.00 0.00 0.00 0.00 0.00 0.00 0.00 0.00 0.00 0.00 0.00 0.00 0.00 0.00 0.00 0.00 0.00 0.00 0.00 0.00 0.00 0.00 0.00 0.00 0.00 0.00 0.00 0.00 0.00 0.00 0.00 0.00 0.00 0.00 0.00 0.00 0.00 0.00 0.00
0.09 0.06 0.04 0.02 0.01 0.03 0.03 0.02 0.01 0.00 0.00 0.00 0.00 0.00 0.00 0.00 0.00 0.00 0.00 0.00 0.00 0.00 0.00 0.00 0.00 0.00 0.00 0.00 0.01 0.00 0.00 0.00 0.00 0.00 0.00 0.00 0.00 0.00 0.00 0.00 0.00 0.00 0.00 0.00 0.00 0.00 0.00 0.00 0.00 0.00 0.00 0.00 0.00 0.00
0.07 0.04 0.05 0.03 0.03 0.08 0.05 0.01 0.00 0.00 0.00 0.00 0.00 0.00 0.00 0.00 0.00 0.00 0.00 0.00 0.00 0.00 0.00 0.00 0.00 0.00 0.00 0.00 0.00 0.00 0.00 0.00 0.00 0.01 0.01 0.01 0.01 0.00 0.00 0.00 0.00 0.00 0.00 0.00 0.00 0.00 0.00 0.00 0.00 0.00 0.00 0.00 0.00 0.00
0.05 0.04 0.05 0.08 0.11 0.06 0.01 0.00 0.00 0.00 0.00 0.00 0.00 0.00 0.00 0.00 0.00 0.00 0.00 0.00 0.00 0.00 0.00 0.00 0.00 0.00 0.00 0.00 0.00 0.00 0.00 0.00 0.00 0.02 0.06 0.04 0.03 0.01 0.00 0.00 0.00 0.00 0.00 0.00 0.00 0.00 0.00 0.00 0.00 0.00 0.00 0.00 0.00 0.00
0.05 0.05 0.10 0.19 0.12 0.03 0.00 0.00 0.00 0.00 0.00 0.00 0.00 0.00 0.00 0.00 0.00 0.00 0.00 0.00 0.00 0.00 0.00 0.00 0.00 0.00 0.00 0.00 0.00 0.00 0.00 0.00 0.00 0.02 0.02 0.00 0.00 0.00 0.00 0.00 0.00 0.00 0.00 0.00 0.00 0.00 0.00 0.00 0.00 0.00 0.00 0.00 0.00 0.00
0.05 0.10 0.20 0.25 0.08 0.02 0.00 0.00 0.00 0.00 0.00 0.00 0.00 0.00 0.00 0.00 0.00 0.00 0.00 0.00 0.00 0.00 0.00 0.00 0.00 0.00 0.00 0.00 0.00 0.00 0.00 0.00 0.01 0.01 0.00 0.00 0.00 0.00 0.00 0.00 0.00 0.00 0.00 0.00 0.00 0.00 0.00 0.00 0.00 0.00 0.00 0.00 0.00 0.00
0.09 0.19 0.31 0.24 0.07 0.02 0.00 0.00 0.00 0.00 0.00 0.00 0.00 0.00 0.00 0.00 0.00 0.00 0.00 0.00 0.00 0.00 0.00 0.00 0.00 0.00 0.00 0.00 0.00 0.00 0.00 0.00 0.00 0.00 0.00 0.00 0.00 0.00 0.00 0.00 0.00 0.00 0.00 0.00 0.00 0.00 0.00 0.00 0.00 0.00 0.00 0.00 0.00 0.00
0.25 0.41 0.52 0.32 0.09 0.02 0.00 0.00 0.00 0.00 0.00 0.00 0.00 0.01 0.01 0.01 0.01 0.00 0.00 0.00 0.00 0.00 0.00 0.00 0.00 0.00 0.00 0.00 0.00 0.00 0.00 0.00 0.00 0.00 0.02 0.03 0.04 0.03 0.01 0.01 0.00 0.00 0.00 0.00 0.00 0.00 0.00 0.00 0.00 0.00 0.00 0.00 0.00 0.00
0.19 0.30 0.47 0.29 0.12 0.05 0.01 0.00 0.00 0.00 0.00 0.00 0.01 0.01 0.01 0.01 0.01 0.00 0.00 0.00 0.00 0.00 0.01 0.00 0.00 0.00 0.00 0.00 0.00 0.00 0.00 0.00 0.00 0.01 0.05 0.05 0.02 0.01 0.00 0.00 0.00 0.00 0.00 0.00 0.00 0.00 0.00 0.00 0.00 0.00 0.00 0.00 0.00 0.00
0.09 0.27 0.39 0.28 0.26 0.10 0.06 0.02 0.00 0.00 0.00 0.02 0.01 0.02 0.01 0.01 0.00 0.00 0.00 0.00 0.00 0.01 0.01 0.03 0.06 0.02 0.00 0.00 0.00 0.00 0.00 0.01 0.03 0.05 0.05 0.02 0.00 0.00 0.00 0.00 0.00 0.00 0.00 0.00 0.00 0.00 0.00 0.00 0.00 0.00 0.00 0.00 0.00 0.00
0.27 0.38 0.40 0.24 0.15 0.06 0.09 0.05 0.00 0.00 0.01 0.01 0.01 0.01 0.00 0.01 0.00 0.00 0.00 0.00 0.00 0.00 0.00 0.00 0.00 0.00 0.00 0.00 0.00 0.00 0.00 0.00 0.00 0.01 0.01 0.01 0.00 0.00 0.00 0.00 0.00 0.00 0.00 0.00 0.00 0.00 0.00 0.00 0.00 0.00 0.00 0.00 0.00 0.00
0.42 0.43 0.23 0.16 0.15 0.04 0.01 0.01 0.00 0.00 0.00 0.00 0.00 0.00 0.00 0.00 0.00 0.00 0.00 0.00 0.00 0.00 0.00 0.00 0.00 0.00 0.00 0.00 0.00 0.00 0.00 0.00 0.00 0.01 0.01 0.01 0.00 0.00 0.00 0.00 0.00 0.00 0.00 0.01 0.01 0.00 0.00 0.00 0.00 0.00 0.00 0.00 0.00 0.00
0.53 0.62 0.44 0.31 0.17 0.04 0.00 0.00 0.00 0.00 0.00 0.00 0.00 0.00 0.00 0.00 0.00 0.00 0.00 0.00 0.00 0.00 0.00 0.00 0.00 0.00 0.00 0.00 0.00 0.00 0.00 0.00 0.00 0.00 0.00 0.01 0.01 0.00 0.00 0.00 0.00 0.00 0.00 0.00 0.00 0.00 0.00 0.00 0.00 0.00 0.00 0.00 0.00 0.00
0.44 0.60 0.53 0.20 0.04 0.01 0.00 0.00 0.00 0.00 0.00 0.00 0.00 0.00 0.00 0.00 0.00 0.00 0.00 0.00 0.00 0.00 0.00 0.00 0.00 0.00 0.00 0.00 0.00 0.00 0.00 0.00 0.01 0.00 0.00 0.00 0.02 0.01 0.01 0.01 0.00 0.00 0.00 0.00 0.00 0.00 0.00 0.00 0.00 0.00 0.00 0.00 0.00 0.00
0.41 0.35 0.16 0.03 0.00 0.00 0.01 0.00 0.00 0.00 0.00 0.00 0.00 0.00 0.00 0.00 0.00 0.01 0.00 0.00 0.00 0.00 0.00 0.00 0.00 0.00 0.00 0.01 0.01 0.00 0.00 0.00 0.02 0.02 0.01 0.01 0.01 0.00 0.00 0.00 0.00 0.00 0.00 0.00 0.00 0.00 0.00 0.00 0.00 0.00 0.00 0.00 0.00 0.01
0.24 0.25 0.07 0.01 0.00 0.01 0.00 0.00 0.00 0.00 0.00 0.00 0.00 0.00 0.00 0.00 0.00 0.00 0.00 0.00 0.00 0.01 0.01 0.01 0.01 0.01 0.02 0.01 0.01 0.01 0.01 0.00 0.01 0.02 0.01 0.01 0.01 0.01 0.00 0.00 0.00 0.00 0.00 0.00 0.00 0.00 0.00 0.00 0.00 0.00 0.00 0.00 0.00 0.00
0.15 0.16 0.01 0.00 0.00 0.00 0.00 0.01 0.00 0.00 0.00 0.00 0.00 0.00 0.01 0.01 0.00 0.00 0.00 0.00 0.00 0.01 0.01 0.01 0.01 0.00 0.00 0.01 0.01 0.01 0.01 0.00 0.00 0.00 0.01 0.00 0.00 0.01 0.01 0.00 0.00 0.00 0.00 0.00 0.00 0.00 0.00 0.01 0.00 0.00 0.00 0.00 0.00 0.00
0.06 0.06 0.00 0.00 0.00 0.00 0.00 0.00 0.00 0.00 0.00 0.00 0.00 0.00 0.00 0.00 0.00 0.00 0.00 0.00 0.00 0.00 0.01 0.01 0.01 0.00 0.00 0.00 0.00 0.00 0.01 0.00 0.00 0.00 0.00 0.00 0.00 0.00 0.00 0.00 0.00 0.00 0.00 0.00 0.00 0.00 0.00 0.00 0.01 0.00 0.00 0.00 0.00 0.00
0.00 0.00 0.00 0.00 0.00 0.00 0.00 0.00 0.00 0.00 0.00 0.00 0.00 0.01 0.01 0.00 0.00 0.00 0.00 0.00 0.00 0.00 0.00 0.00 0.00 0.00 0.00 0.00 0.00 0.00 0.00 0.00 0.00 0.00 0.00 0.00 0.00 0.00 0.00 0.00 0.00 0.00 0.00 0.00 0.00 0.00 0.00 0.00 0.01 0.00 0.00 0.00 0.00 0.00
0.00 0.00 0.00 0.00 0.00 0.00 0.00 0.00 0.00 0.00 0.00 0.00 0.00 0.00 0.00 0.00 0.00 0.00 0.00 0.00 0.00 0.00 0.00 0.00 0.00 0.00 0.00 0.00 0.00 0.00 0.00 0.00 0.00 0.00 0.00 0.00 0.01 0.00 0.00 0.00 0.00 0.00 0.00 0.00 0.00 0.00 0.00 0.00 0.00 0.00 0.00 0.00 0.00 0.00
0.00 0.00 0.00 0.00 0.00 0.00 0.00 0.00 0.00 0.00 0.00 0.00 0.00 0.00 0.00 0.00 0.00 0.00 0.00 0.00 0.00 0.00 0.00 0.00 0.01 0.00 0.00 0.01 0.01 0.00 0.00 0.00 0.00 0.00 0.00 0.00 0.00 0.00 0.00 0.00 0.00 0.00 0.00 0.00 0.00 0.00 0.00 0.00 0.00 0.00 0.00 0.00 0.00 0.00
0.00 0.00 0.00 0.00 0.00 0.00 0.00 0.00 0.00 0.00 0.00 0.00 0.00 0.00 0.00 0.00 0.00 0.00 0.00 0.01 0.00 0.00 0.00 0.00 0.00 0.00 0.00 0.01 0.01 0.01 0.00 0.00 0.00 0.00 0.00 0.00 0.00 0.00 0.00 0.00 0.00 0.00 0.00 0.00 0.00 0.00 0.00 0.00 0.01 0.00 0.00 0.00 0.00 0.00
0.00 0.00 0.00 0.00 0.00 0.00 0.01 0.01 0.00 0.00 0.00 0.00 0.00 0.00 0.00 0.00 0.00 0.00 0.00 0.00 0.00 0.00 0.00 0.00 0.00 0.00 0.00 0.00 0.00 0.00 0.00 0.00 0.00 0.00 0.00 0.00 0.00 0.00 0.00 0.00 0.00 0.00 0.00 0.00 0.00 0.00 0.00 0.00 0.00 0.00 0.00 0.00 0.00 0.00
0.01 0.00 0.00 0.00 0.00 0.00 0.00 0.00 0.00 0.00 0.00 0.00 0.00 0.00 0.00 0.00 0.00 0.00 0.00 0.00 0.01 0.01 0.00 0.00 0.00 0.00 0.00 0.00 0.00 0.00 0.00 0.00 0.00 0.00 0.00 0.00 0.00 0.00 0.00 0.00 0.00 0.00 0.00 0.00 0.00 0.00 0.00 0.00 0.00 0.00 0.00 0.00 0.00 0.00
0.02 0.02 0.02 0.01 0.01 0.00 0.00 0.01 0.01 0.00 0.00 0.00 0.00 0.00 0.00 0.00 0.00 0.00 0.00 0.01 0.01 0.00 0.00 0.00 0.00 0.00 0.00 0.00 0.00 0.00 0.00 0.00 0.00 0.00 0.00 0.00 0.00 0.00 0.00 0.00 0.00 0.00 0.00 0.00 0.00 0.00 0.00 0.00 0.00 0.00 0.00 0.00 0.00 0.00

GFSWCAN_prec_precacc12_147.txt.gz
Total_Precipitation_Accumulation
0.84 1.15 1.34 0.71 0.35 0.23 0.16 0.13 0.11 0.14 0.14 0.14 0.13 0.14 0.19 0.16 0.08 0.06 0.08 0.09 0.07 0.02 0.00 0.00 0.00 0.00 0.00 0.00 0.00 0.00 0.00 0.00 0.00 0.00 0.00 0.00 0.00 0.00 0.00 0.00 0.00 0.00 0.00 0.00 0.01 0.01 0.00 0.00 0.00 0.01 0.01 0.02 0.06 0.09
0.80 1.20 1.39 0.64 0.30 0.19 0.12 0.10 0.10 0.13 0.14 0.14 0.13 0.15 0.14 0.10 0.05 0.03 0.07 0.07 0.03 0.01 0.00 0.00 0.00 0.00 0.00 0.00 0.00 0.00 0.00 0.00 0.00 0.00 0.00 0.00 0.00 0.00 0.00 0.00 0.00 0.00 0.00 0.01 0.01 0.01 0.00 0.00 0.00 0.00 0.01 0.02 0.05 0.03
0.62 1.20 1.18 0.57 0.31 0.17 0.12 0.09 0.10 0.10 0.11 0.13 0.14 0.11 0.08 0.06 0.03 0.02 0.05 0.02 0.00 0.00 0.00 0.00 0.00 0.00 0.00 0.00 0.00 0.00 0.00 0.00 0.00 0.00 0.00 0.00 0.00 0.00 0.00 0.00 0.00 0.00 0.00 0.00 0.00 0.00 0.00 0.00 0.00 0.00 0.00 0.01 0.00 0.00
0.54 0.96 0.91 0.49 0.25 0.15 0.10 0.09 0.07 0.08 0.10 0.13 0.12 0.07 0.05 0.03 0.01 0.01 0.01 0.00 0.00 0.00 0.00 0.00 0.00 0.00 0.00 0.00 0.00 0.00 0.00 0.00 0.00 0.00 0.00 0.00 0.00 0.00 0.00 0.00 0.00 0.00 0.00 0.00 0.00 0.00 0.00 0.01 0.00 0.00 0.00 0.00 0.00 0.00
0.41 0.61 0.62 0.37 0.18 0.14 0.10 0.07 0.06 0.07 0.11 0.10 0.08 0.05 0.03 0.01 0.00 0.00 0.00 0.00 0.00 0.00 0.00 0.00 0.00 0.00 0.00 0.00 0.00 0.00 0.00 0.00 0.00 0.00 0.00 0.00 0.00 0.00 0.00 0.00 0.00 0.00 0.00 0.00 0.00 0.00 0.00 0.00 0.00 0.00 0.00 0.00 0.00 0.00
0.33 0.34 0.34 0.25 0.20 0.16 0.10 0.07 0.09 0.11 0.09 0.07 0.04 0.01 0.00 0.00 0.00 0.00 0.00 0.00 0.00 0.00 0.00 0.00 0.00 0.00 0.00 0.00 0.00 0.00 0.00 0.00 0.00 0.00 0.00 0.00 0.00 0.00 0.00 0.00 0.00 0.00 0.00 0.00 0.00 0.00 0.00 0.00 0.00 0.00 0.00 0.00 0.00 0.00
0.20 0.20 0.19 0.20 0.19 0.14 0.09 0.10 0.11 0.10 0.06 0.04 0.01 0.00 0.00 0.00 0.00 0.00 0.00 0.00 0.00 0.00 0.00 0.00 0.00 0.00 0.00 0.00 0.00 0.00 0.00 0.00 0.00 0.00 0.00 0.00 0.00 0.00 0.00 0.00 0.00 0.00 0.00 0.00 0.00 0.00 0.00 0.00 0.00 0.00 0.00 0.00 0.00 0.00
0.15 0.15 0.13 0.14 0.11 0.08 0.07 0.09 0.06 0.03 0.02 0.00 0.00 0.00 0.00 0.00 0.00 0.00 0.00 0.00 0.00 0.00 0.00 0.00 0.01 0.00 0.00 0.00 0.00 0.00 0.00 0.00 0.00 0.00 0.00 0.00 0.00 0.00 0.00 0.00 0.00 0.00 0.00 0.00 0.00 0.00 0.00 0.00 0.00 0.00 0.00 0.00 0.00 0.00
0.10 0.09 0.08 0.07 0.07 0.07 0.06 0.03 0.01 0.00 0.00 0.00 0.00 0.00 0.00 0.00 0.00 0.00 0.00 0.00 0.00 0.00 0.00 0.00 0.00 0.00 0.00 0.00 0.00 0.00 0.00 0.00 0.00 0.00 0.00 0.00 0.00 0.00 0.00 0.00 0.00 0.00 0.00 0.00 0.00 0.00 0.00 0.00 0.00 0.00 0.00 0.00 0.00 0.00
0.05 0.04 0.03 0.03 0.03 0.03 0.03 0.01 0.00 0.00 0.00 0.00 0.00 0.00 0.00 0.00 0.00 0.00 0.00 0.00 0.00 0.00 0.00 0.00 0.00 0.00 0.00 0.00 0.00 0.00 0.00 0.00 0.00 0.00 0.00 0.00 0.00 0.00 0.00 0.00 0.00 0.00 0.00 0.00 0.00 0.00 0.00 0.00 0.00 0.00 0.00 0.00 0.00 0.00
0.03 0.02 0.01 0.00 0.02 0.03 0.01 0.00 0.00 0.00 0.00 0.00 0.00 0.00 0.00 0.00 0.00 0.00 0.00 0.00 0.00 0.00 0.00 0.00 0.00 0.00 0.00 0.00 0.00 0.00 0.00 0.00 0.00 0.01 0.01 0.01 0.01 0.00 0.00 0.00 0.00 0.00 0.00 0.00 0.00 0.00 0.00 0.00 0.00 0.00 0.00 0.00 0.00 0.00
0.04 0.02 0.00 0.01 0.04 0.02 0.00 0.00 0.00 0.00 0.00 0.00 0.00 0.00 0.00 0.00 0.00 0.00 0.00 0.00 0.00 0.00 0.00 0.00 0.00 0.00 0.00 0.00 0.00 0.00 0.00 0.00 0.00 0.01 0.03 0.01 0.00 0.00 0.00 0.00 0.00 0.00 0.00 0.00 0.00 0.00 0.00 0.00 0.00 0.00 0.00 0.00 0.00 0.00
0.04 0.03 0.02 0.03 0.03 0.01 0.00 0.00 0.00 0.00 0.00 0.00 0.00 0.00 0.00 0.00 0.00 0.00 0.00 0.00 0.00 0.00 0.00 0.00 0.00 0.00 0.00 0.00 0.00 0.00 0.00 0.00 0.01 0.01 0.01 0.00 0.00 0.00 0.00 0.00 0.00 0.00 0.00 0.00 0.00 0.00 0.00 0.00 0.00 0.00 0.00 0.00 0.00 0.00
0.03 0.06 0.07 0.05 0.02 0.01 0.00 0.00 0.00 0.00 0.00 0.00 0.00 0.00 0.00 0.00 0.00 0.00 0.00 0.00 0.00 0.00 0.00 0.00 0.00 0.00 0.00 0.00 0.00 0.00 0.00 0.00 0.01 0.01 0.00 0.00 0.00 0.00 0.00 0.00 0.00 0.00 0.00 0.00 0.00 0.00 0.00 0.00 0.00 0.00 0.00 0.00 0.00 0.00
0.07 0.11 0.11 0.08 0.04 0.01 0.00 0.00 0.00 0.00 0.00 0.00 0.00 0.00 0.00 0.00 0.00 0.00 0.00 0.00 0.00 0.00 0.00 0.00 0.00 0.00 0.00 0.00 0.00 0.00 0.00 0.00 0.00 0.00 0.00 0.00 0.00 0.00 0.00 0.00 0.00 0.00 0.00 0.00 0.00 0.00 0.00 0.00 0.00 0.00 0.00 0.00 0.00 0.00
0.22 0.28 0.26 0.13 0.05 0.01 0.00 0.00 0.00 0.00 0.00 0.00 0.01 0.01 0.02 0.02 0.02 0.01 0.00 0.00 0.00 0.00 0.00 0.00 0.00 0.00 0.00 0.00 0.00 0.00 0.00 0.00 0.00 0.00 0.00 0.00 0.03 0.03 0.01 0.01 0.00 0.00 0.00 0.00 0.00 0.00 0.00 0.00 0.00 0.00 0.00 0.00 0.00 0.00
0.19 0.26 0.30 0.12 0.05 0.00 0.00 0.00 0.00 0.00 0.00 0.01 0.02 0.03 0.03 0.01 0.02 0.02 0.01 0.00 0.00 0.00 0.00 0.00 0.00 0.00 0.00 0.00 0.00 0.00 0.00 0.00 0.00 0.00 0.00 0.01 0.01 0.01 0.00 0.00 0.00 0.00 0.00 0.00 0.00 0.00 0.00 0.00 0.00 0.00 0.00 0.00 0.00 0.00
0.09 0.25 0.27 0.14 0.02 0.00 0.00 0.00 0.00 0.00 0.01 0.02 0.02 0.04 0.02 0.02 0.01 0.00 0.00 0.00 0.00 0.00 0.00 0.00 0.01 0.00 0.00 0.00 0.00 0.00 0.00 0.00 0.00 0.00 0.00 0.00 0.00 0.00 0.00 0.00 0.00 0.00 0.00 0.00 0.00 0.00 0.00 0.00 0.00 0.00 0.00 0.00 0.00 0.00
0.27 0.36 0.30 0.05 0.00 0.00 0.01 0.00 0.00 0.00 0.02 0.02 0.03 0.02 0.01 0.01 0.01 0.00 0.00 0.00 0.00 0.00 0.00 0.00 0.00 0.00 0.00 0.00 0.00 0.00 0.00 0.00 0.00 0.01 0.01 0.01 0.00 0.00 0.00 0.00 0.00 0.00 0.00 0.00 0.00 0.00 0.00 0.00 0.00 0.00 0.00 0.00 0.00 0.00
0.40 0.43 0.20 0.05 0.01 0.00 0.00 0.00 0.00 0.00 0.01 0.01 0.01 0.01 0.00 0.01 0.00 0.00 0.00 0.00 0.00 0.00 0.00 0.00 0.00 0.00 0.00 0.00 0.00 0.00 0.00 0.00 0.00 0.01 0.01 0.01 0.01 0.00 0.00 0.00 0.00 0.00 0.01 0.01 0.01 0.00 0.00 0.00 0.00 0.00 0.00 0.00 0.01 0.01
0.48 0.54 0.26 0.12 0.06 0.01 0.00 0.00 0.00 0.00 0.00 0.00 0.00 0.00 0.00 0.00 0.00 0.00 0.00 0.00 0.00 0.00 0.00 0.00 0.00 0.00 0.00 0.00 0.00 0.00 0.00 0.00 0.00 0.00 0.00 0.01 0.01 0.01 0.00 0.00 0.00 0.00 0.00 0.00 0.00 0.00 0.00 0.00 0.00 0.00 0.01 0.01 0.01 0.01
0.32 0.33 0.31 0.14 0.03 0.00 0.00 0.00 0.00 0.00 0.00 0.00 0.00 0.00 0.00 0.00 0.00 0.00 0.00 0.00 0.00 0.00 0.00 0.00 0.00 0.00 0.00 0.00 0.00 0.00 0.00 0.00 0.00 0.00 0.00 0.00 0.01 0.01 0.01 0.01 0.01 0.00 0.00 0.00 0.00 0.00 0.00 0.00 0.00 0.00 0.01 0.01 0.01 0.01
0.20 0.24 0.13 0.02 0.00 0.00 0.01 0.00 0.00 0.00 0.00 0.00 0.00 0.00 0.00 0.00 0.00 0.00 0.00 0.00 0.00 0.00 0.00 0.00 0.00 0.00 0.00 0.01 0.01 0.00 0.00 0.00 0.00 0.00 0.01 0.01 0.01 0.01 0.01 0.01 0.00 0.00 0.00 0.00 0.00 0.00 0.00 0.00 0.00 0.00 0.00 0.00 0.01 0.01
0.16 0.23 0.06 0.00 0.00 0.01 0.00 0.00 0.00 0.00 0.00 0.00 0.00 0.00 0.00 0.00 0.00 0.00 0.00 0.00 0.00 0.00 0.01 0.01 0.01 0.01 0.02 0.01 0.01 0.01 0.01 0.00 0.00 0.01 0.01 0.01 0.01 0.01 0.00 0.00 0.00 0.00 0.00 0.00 0.00 0.00 0.00 0.01 0.00 0.00 0.00 0.00 0.01 0.00
0.15 0.17 0.01 0.00 0.00 0.00 0.00 0.00 0.00 0.00 0.00 0.00 0.00 0.00 0.00 0.01 0.00 0.00 0.00 0.00 0.00 0.00 0.01 0.01 0.01 0.00 0.00 0.01 0.01 0.01 0.00 0.00 0.00 0.01 0.02 0.00 0.00 0.00 0.01 0.00 0.00 0.00 0.00 0.00 0.00 0.00 0.01 0.01 0.01 0.01 0.00 0.00 0.00 0.00
0.07 0.06 0.00 0.00 0.00 0.00 0.00 0.00 0.00 0.00 0.00 0.00 0.00 0.00 0.00 0.00 0.00 0.00 0.00 0.00 0.00 0.00 0.01 0.01 0.01 0.01 0.00 0.00 0.01 0.01 0.01 0.00 0.00 0.00 0.01 0.00 0.00 0.00 0.00 0.00 0.00 0.00 0.00 0.00 0.00 0.00 0.00 0.01 0.01 0.01 0.01 0.01 0.00 0.00
0.00 0.00 0.00 0.00 0.00 0.00 0.00 0.00 0.00 0.00 0.00 0.00 0.00 0.00 0.00 0.00 0.00 0.00 0.00 0.00 0.00 0.00 0.00 0.00 0.00 0.00 0.00 0.00 0.00 0.00 0.00 0.00 0.00 0.00 0.00 0.00 0.00 0.00 0.00 0.00 0.00 0.00 0.00 0.00 0.00 0.00 0.00 0.00 0.01 0.01 0.01 0.01 0.01 0.01
0.00 0.00 0.00 0.00 0.00 0.00 0.00 0.00 0.00 0.00 0.00 0.00 0.00 0.00 0.00 0.00 0.00 0.00 0.00 0.00 0.00 0.00 0.00 0.00 0.00 0.00 0.00 0.00 0.00 0.00 0.00 0.00 0.00 0.00 0.00 0.00 0.01 0.00 0.00 0.00 0.00 0.00 0.00 0.00 0.00 0.00 0.00 0.00 0.00 0.00 0.00 0.00 0.00 0.00
0.00 0.00 0.00 0.00 0.00 0.00 0.00 0.00 0.00 0.00 0.00 0.00 0.00 0.00 0.00 0.00 0.00 0.00 0.00 0.00 0.00 0.00 0.00 0.00 0.01 0.01 0.01 0.01 0.01 0.00 0.00 0.00 0.00 0.00 0.00 0.00 0.01 0.01 0.00 0.00 0.00 0.00 0.00 0.00 0.00 0.00 0.00 0.00 0.00 0.00 0.00 0.01 0.00 0.00
0.00 0.00 0.00 0.00 0.00 0.00 0.00 0.00 0.00 0.00 0.00 0.00 0.00 0.00 0.00 0.00 0.00 0.00 0.00 0.00 0.00 0.00 0.00 0.00 0.00 0.00 0.01 0.01 0.02 0.02 0.01 0.00 0.00 0.00 0.00 0.00 0.00 0.00 0.00 0.00 0.00 0.00 0.00 0.00 0.00 0.01 0.01 0.00 0.00 0.00 0.00 0.00 0.00 0.00
0.00 0.00 0.00 0.00 0.00 0.00 0.01 0.01 0.00 0.01 0.00 0.00 0.00 0.00 0.00 0.00 0.00 0.00 0.00 0.00 0.00 0.00 0.00 0.01 0.01 0.00 0.00 0.00 0.00 0.00 0.01 0.00 0.00 0.00 0.00 0.00 0.00 0.00 0.00 0.00 0.00 0.00 0.00 0.00 0.00 0.00 0.00 0.00 0.00 0.00 0.00 0.00 0.00 0.00
0.01 0.00 0.00 0.00 0.00 0.01 0.00 0.00 0.00 0.00 0.00 0.00 0.00 0.00 0.00 0.00 0.00 0.00 0.00 0.01 0.01 0.02 0.01 0.00 0.00 0.00 0.00 0.00 0.00 0.00 0.00 0.00 0.00 0.00 0.00 0.00 0.00 0.00 0.00 0.00 0.00 0.00 0.00 0.00 0.00 0.00 0.00 0.00 0.00 0.00 0.00 0.00 0.00 0.00
0.02 0.02 0.01 0.01 0.00 0.00 0.00 0.01 0.01 0.00 0.00 0.00 0.00 0.00 0.00 0.00 0.00 0.00 0.00 0.01 0.01 0.01 0.01 0.01 0.01 0.01 0.00 0.00 0.00 0.01 0.00 0.00 0.00 0.00 0.00 0.00 0.00 0.00 0.00 0.00 0.00 0.00 0.00 0.00 0.00 0.00 0.00 0.00 0.00 0.00 0.00 0.00 0.00 0.00